<?xml version='1.0' encoding='UTF-8'?><gpx version="1.1" creator="JPX - https://github.com/jenetics/jpx" xmlns="http://www.topografix.com/GPX/1/1"><trk><trkseg><trkpt lat="48.40076263991304" lon="-4.466876757735883"><ele>97.99999999999999</ele><time>2026-04-18T15:16:31Z</time></trkpt><trkpt lat="48.40083658143112" lon="-4.46688212755756"><ele>98.0</ele><time>2026-04-18T15:16:34Z</time></trkpt><trkpt lat="48.40090715533472" lon="-4.4669195823339845"><ele>98.0</ele><time>2026-04-18T15:16:37Z</time></trkpt><trkpt lat="48.40098427940144" lon="-4.466922289889524"><ele>98.0</ele><time>2026-04-18T15:16:40Z</time></trkpt><trkpt lat="48.40108116562045" lon="-4.466948685178254"><ele>97.99999999999999</ele><time>2026-04-18T15:16:43Z</time></trkpt><trkpt lat="48.40114545947423" lon="-4.466962913692916"><ele>98.0</ele><time>2026-04-18T15:16:45Z</time></trkpt><trkpt lat="48.401235252644874" lon="-4.46696937536701"><ele>97.99999999999999</ele><time>2026-04-18T15:16:48Z</time></trkpt><trkpt lat="48.401301319232324" lon="-4.466986472123685"><ele>98.0</ele><time>2026-04-18T15:16:50Z</time></trkpt><trkpt lat="48.401367317916495" lon="-4.466989466153288"><ele>98.0</ele><time>2026-04-18T15:16:52Z</time></trkpt><trkpt lat="48.4014987734227" lon="-4.466989878430266"><ele>98.0</ele><time>2026-04-18T15:16:56Z</time></trkpt><trkpt lat="48.40156820060094" lon="-4.466992819485547"><ele>97.99999999999999</ele><time>2026-04-18T15:16:58Z</time></trkpt><trkpt lat="48.401651833426655" lon="-4.467006930008788"><ele>98.0</ele><time>2026-04-18T15:17:01Z</time></trkpt><trkpt lat="48.40175227954448" lon="-4.467011772381951"><ele>98.66666666666666</ele><time>2026-04-18T15:17:04Z</time></trkpt><trkpt lat="48.401843327401046" lon="-4.466946763240124"><ele>99.33333333333333</ele><time>2026-04-18T15:17:07Z</time></trkpt><trkpt lat="48.40191979360328" lon="-4.466914707902967"><ele>100.0</ele><time>2026-04-18T15:17:09Z</time></trkpt><trkpt lat="48.401990524931854" lon="-4.46689908437333"><ele>100.66666666666666</ele><time>2026-04-18T15:17:11Z</time></trkpt><trkpt lat="48.402058397639884" lon="-4.466868311859732"><ele>101.33333333333333</ele><time>2026-04-18T15:17:13Z</time></trkpt><trkpt lat="48.40212549589376" lon="-4.466839486026358"><ele>102.0</ele><time>2026-04-18T15:17:15Z</time></trkpt><trkpt lat="48.40218115544285" lon="-4.466787284738554"><ele>102.42857142857143</ele><time>2026-04-18T15:17:17Z</time></trkpt><trkpt lat="48.40220585973376" lon="-4.46668921754724"><ele>102.85714285714286</ele><time>2026-04-18T15:17:19Z</time></trkpt><trkpt lat="48.4022530740894" lon="-4.466602424057154"><ele>103.28571428571428</ele><time>2026-04-18T15:17:21Z</time></trkpt><trkpt lat="48.40231224129525" lon="-4.4665589351365425"><ele>103.71428571428572</ele><time>2026-04-18T15:17:23Z</time></trkpt><trkpt lat="48.402382129318006" lon="-4.466557475763983"><ele>104.14285714285714</ele><time>2026-04-18T15:17:25Z</time></trkpt><trkpt lat="48.40244791214231" lon="-4.466599889084988"><ele>104.57142857142857</ele><time>2026-04-18T15:17:27Z</time></trkpt><trkpt lat="48.40249780887751" lon="-4.466677236816419"><ele>105.0</ele><time>2026-04-18T15:17:29Z</time></trkpt><trkpt lat="48.40255052642101" lon="-4.466732368826434"><ele>105.0</ele><time>2026-04-18T15:17:31Z</time></trkpt><trkpt lat="48.40262516369614" lon="-4.466749913081737"><ele>105.0</ele><time>2026-04-18T15:17:33Z</time></trkpt><trkpt lat="48.402685679681476" lon="-4.466793725655351"><ele>105.0</ele><time>2026-04-18T15:17:35Z</time></trkpt><trkpt lat="48.40275230141658" lon="-4.4668661203620195"><ele>105.0</ele><time>2026-04-18T15:17:38Z</time></trkpt><trkpt lat="48.402789495925305" lon="-4.46698575344814"><ele>105.0</ele><time>2026-04-18T15:17:41Z</time></trkpt><trkpt lat="48.40280780817866" lon="-4.467081105568874"><ele>105.0</ele><time>2026-04-18T15:17:43Z</time></trkpt><trkpt lat="48.40285251044097" lon="-4.467154878411969"><ele>105.0</ele><time>2026-04-18T15:17:45Z</time></trkpt><trkpt lat="48.40291077142094" lon="-4.467240220287823"><ele>103.0</ele><time>2026-04-18T15:17:48Z</time></trkpt><trkpt lat="48.4029833451014" lon="-4.4672505895409"><ele>103.0</ele><time>2026-04-18T15:17:52Z</time></trkpt></trkseg><trkseg><trkpt lat="48.408372528823904" lon="-4.468007993855388"><ele>74.0</ele><time>2026-04-18T15:25:29Z</time></trkpt><trkpt lat="48.40844823721113" lon="-4.468029006028387"><ele>74.0</ele><time>2026-04-18T15:25:45Z</time></trkpt><trkpt lat="48.40851577350039" lon="-4.4680274019039325"><ele>74.0</ele><time>2026-04-18T15:26:07Z</time></trkpt><trkpt lat="48.408604734337096" lon="-4.4680284668075405"><ele>74.0</ele><time>2026-04-18T15:26:10Z</time></trkpt><trkpt lat="48.4086800253491" lon="-4.467961684655976"><ele>74.0</ele><time>2026-04-18T15:26:13Z</time></trkpt><trkpt lat="48.408763075481744" lon="-4.468008394885258"><ele>74.0</ele><time>2026-04-18T15:26:16Z</time></trkpt><trkpt lat="48.408813100371226" lon="-4.468071102821472"><ele>74.0</ele><time>2026-04-18T15:26:18Z</time></trkpt><trkpt lat="48.40881567019533" lon="-4.468186976392874"><ele>74.0</ele><time>2026-04-18T15:26:21Z</time></trkpt><trkpt lat="48.40896608164284" lon="-4.468184128873452"><ele>74.0</ele><time>2026-04-18T15:26:23Z</time></trkpt><trkpt lat="48.40904405749329" lon="-4.468205321476657"><ele>74.0</ele><time>2026-04-18T15:26:25Z</time></trkpt><trkpt lat="48.40912392372651" lon="-4.46820103837306"><ele>74.0</ele><time>2026-04-18T15:26:27Z</time></trkpt><trkpt lat="48.409190024105555" lon="-4.468242217151627"><ele>74.0</ele><time>2026-04-18T15:26:29Z</time></trkpt><trkpt lat="48.4092166289949" lon="-4.468346208984028"><ele>74.0</ele><time>2026-04-18T15:26:31Z</time></trkpt><trkpt lat="48.40918497256121" lon="-4.468447985249534"><ele>74.0</ele><time>2026-04-18T15:26:33Z</time></trkpt><trkpt lat="48.40913655314125" lon="-4.46852118134398"><ele>74.0</ele><time>2026-04-18T15:26:35Z</time></trkpt><trkpt lat="48.409136980775706" lon="-4.4686451439398995"><ele>74.0</ele><time>2026-04-18T15:26:38Z</time></trkpt><trkpt lat="48.40911417915404" lon="-4.468764966191903"><ele>74.0</ele><time>2026-04-18T15:26:41Z</time></trkpt><trkpt lat="48.4090897243455" lon="-4.468877257763287"><ele>73.5</ele><time>2026-04-18T15:26:43Z</time></trkpt><trkpt lat="48.40908229079458" lon="-4.468992490799179"><ele>73.0</ele><time>2026-04-18T15:26:45Z</time></trkpt><trkpt lat="48.40910615014667" lon="-4.469108123972558"><ele>72.5</ele><time>2026-04-18T15:26:47Z</time></trkpt><trkpt lat="48.40914919781255" lon="-4.46922656818713"><ele>72.0</ele><time>2026-04-18T15:26:49Z</time></trkpt><trkpt lat="48.409195536367434" lon="-4.469354792404552"><ele>71.5</ele><time>2026-04-18T15:26:51Z</time></trkpt><trkpt lat="48.409240453237544" lon="-4.4694914621224555"><ele>71.0</ele><time>2026-04-18T15:26:53Z</time></trkpt><trkpt lat="48.409287116391376" lon="-4.4696227223679035"><ele>70.66666666666667</ele><time>2026-04-18T15:26:55Z</time></trkpt><trkpt lat="48.4093283604202" lon="-4.469745862771743"><ele>70.33333333333334</ele><time>2026-04-18T15:26:57Z</time></trkpt><trkpt lat="48.40937389892271" lon="-4.469855718991914"><ele>70.0</ele><time>2026-04-18T15:26:59Z</time></trkpt><trkpt lat="48.4094197382071" lon="-4.469941529874889"><ele>69.66666666666667</ele><time>2026-04-18T15:27:01Z</time></trkpt><trkpt lat="48.40948545482783" lon="-4.470039896313384"><ele>69.33333333333333</ele><time>2026-04-18T15:27:04Z</time></trkpt><trkpt lat="48.40954202397591" lon="-4.470123643825968"><ele>69.0</ele><time>2026-04-18T15:27:07Z</time></trkpt><trkpt lat="48.409531700107124" lon="-4.470236115674932"><ele>69.0</ele><time>2026-04-18T15:27:10Z</time></trkpt><trkpt lat="48.409598534566534" lon="-4.470341063227562"><ele>69.0</ele><time>2026-04-18T15:27:13Z</time></trkpt><trkpt lat="48.4096817664006" lon="-4.470383652203728"><ele>69.0</ele><time>2026-04-18T15:27:15Z</time></trkpt><trkpt lat="48.40976444713797" lon="-4.47043522409948"><ele>69.0</ele><time>2026-04-18T15:27:17Z</time></trkpt><trkpt lat="48.40984387674038" lon="-4.470494589703862"><ele>69.0</ele><time>2026-04-18T15:27:19Z</time></trkpt><trkpt lat="48.40992901148918" lon="-4.470544236475683"><ele>68.33333333333333</ele><time>2026-04-18T15:27:21Z</time></trkpt><trkpt lat="48.410009518139944" lon="-4.470595421757451"><ele>67.66666666666667</ele><time>2026-04-18T15:27:23Z</time></trkpt><trkpt lat="48.410087278538036" lon="-4.470652255039148"><ele>67.0</ele><time>2026-04-18T15:27:25Z</time></trkpt><trkpt lat="48.41017558850695" lon="-4.470705391457687"><ele>66.33333333333334</ele><time>2026-04-18T15:27:27Z</time></trkpt><trkpt lat="48.410259954502564" lon="-4.470759533148877"><ele>65.66666666666667</ele><time>2026-04-18T15:27:29Z</time></trkpt><trkpt lat="48.41033645590424" lon="-4.470806093052812"><ele>65.0</ele><time>2026-04-18T15:27:31Z</time></trkpt><trkpt lat="48.41039940490758" lon="-4.470849934436183"><ele>65.00000000000001</ele><time>2026-04-18T15:27:33Z</time></trkpt><trkpt lat="48.41048181557598" lon="-4.4709069432866135"><ele>65.0</ele><time>2026-04-18T15:27:36Z</time></trkpt><trkpt lat="48.41053291152874" lon="-4.470963334069829"><ele>65.0</ele><time>2026-04-18T15:27:39Z</time></trkpt><trkpt lat="48.41058520857894" lon="-4.471043257880261"><ele>65.0</ele><time>2026-04-18T15:27:55Z</time></trkpt><trkpt lat="48.41063779264427" lon="-4.471139300024829"><ele>65.0</ele><time>2026-04-18T15:27:59Z</time></trkpt><trkpt lat="48.4106868950717" lon="-4.471208465356284"><ele>65.00000000000001</ele><time>2026-04-18T15:28:01Z</time></trkpt><trkpt lat="48.41073125820226" lon="-4.471285839041508"><ele>65.0</ele><time>2026-04-18T15:28:03Z</time></trkpt><trkpt lat="48.41078137162597" lon="-4.471367899577457"><ele>66.33333333333334</ele><time>2026-04-18T15:28:05Z</time></trkpt><trkpt lat="48.4108340686856" lon="-4.471462408845046"><ele>67.66666666666667</ele><time>2026-04-18T15:28:07Z</time></trkpt><trkpt lat="48.4108920825463" lon="-4.47155292227419"><ele>69.0</ele><time>2026-04-18T15:28:09Z</time></trkpt><trkpt lat="48.41094302826368" lon="-4.471653008931111"><ele>70.33333333333333</ele><time>2026-04-18T15:28:11Z</time></trkpt><trkpt lat="48.41100139848061" lon="-4.471761466687168"><ele>71.66666666666666</ele><time>2026-04-18T15:28:13Z</time></trkpt><trkpt lat="48.4110621589987" lon="-4.471862806644519"><ele>73.0</ele><time>2026-04-18T15:28:15Z</time></trkpt><trkpt lat="48.411118528058864" lon="-4.4719683954875835"><ele>73.0</ele><time>2026-04-18T15:28:17Z</time></trkpt><trkpt lat="48.41117746920985" lon="-4.472074658580949"><ele>73.0</ele><time>2026-04-18T15:28:19Z</time></trkpt><trkpt lat="48.41123216479366" lon="-4.472186393946635"><ele>73.0</ele><time>2026-04-18T15:28:21Z</time></trkpt><trkpt lat="48.411290693067095" lon="-4.47229623426236"><ele>73.0</ele><time>2026-04-18T15:28:23Z</time></trkpt><trkpt lat="48.41134121952329" lon="-4.472402963264945"><ele>73.0</ele><time>2026-04-18T15:28:25Z</time></trkpt><trkpt lat="48.41139293541151" lon="-4.472515712059097"><ele>73.8</ele><time>2026-04-18T15:28:27Z</time></trkpt><trkpt lat="48.41144285667229" lon="-4.472633473933033"><ele>74.6</ele><time>2026-04-18T15:28:29Z</time></trkpt><trkpt lat="48.41148982418212" lon="-4.472758473483919"><ele>75.4</ele><time>2026-04-18T15:28:31Z</time></trkpt><trkpt lat="48.411547557898956" lon="-4.472874422938742"><ele>76.2</ele><time>2026-04-18T15:28:33Z</time></trkpt><trkpt lat="48.411596450003515" lon="-4.472989070222543"><ele>77.0</ele><time>2026-04-18T15:28:35Z</time></trkpt><trkpt lat="48.41163330521439" lon="-4.473114057344472"><ele>77.0</ele><time>2026-04-18T15:28:37Z</time></trkpt><trkpt lat="48.41168108746758" lon="-4.47322348500973"><ele>77.0</ele><time>2026-04-18T15:28:39Z</time></trkpt><trkpt lat="48.4117299683862" lon="-4.473344567934811"><ele>77.0</ele><time>2026-04-18T15:28:41Z</time></trkpt><trkpt lat="48.411775836997315" lon="-4.473465424477127"><ele>77.0</ele><time>2026-04-18T15:28:43Z</time></trkpt><trkpt lat="48.411817545117856" lon="-4.473587452821148"><ele>77.0</ele><time>2026-04-18T15:28:45Z</time></trkpt><trkpt lat="48.41185421056987" lon="-4.4736991716963805"><ele>77.0</ele><time>2026-04-18T15:28:47Z</time></trkpt><trkpt lat="48.411899138933286" lon="-4.473824183086959"><ele>76.8</ele><time>2026-04-18T15:28:49Z</time></trkpt><trkpt lat="48.41194159667588" lon="-4.47395809596807"><ele>76.6</ele><time>2026-04-18T15:28:51Z</time></trkpt><trkpt lat="48.41199015459609" lon="-4.474080511524449"><ele>76.39999999999999</ele><time>2026-04-18T15:28:53Z</time></trkpt><trkpt lat="48.41203919868807" lon="-4.474219537197507"><ele>76.2</ele><time>2026-04-18T15:28:55Z</time></trkpt><trkpt lat="48.41208921716394" lon="-4.4743584790175515"><ele>76.0</ele><time>2026-04-18T15:28:57Z</time></trkpt><trkpt lat="48.41214225597429" lon="-4.474500207310506"><ele>75.39999999999999</ele><time>2026-04-18T15:28:59Z</time></trkpt><trkpt lat="48.41219379452659" lon="-4.474635342540591"><ele>74.8</ele><time>2026-04-18T15:29:01Z</time></trkpt><trkpt lat="48.41224772309764" lon="-4.474780607588163"><ele>74.19999999999999</ele><time>2026-04-18T15:29:03Z</time></trkpt><trkpt lat="48.41229214307471" lon="-4.474928967606496"><ele>73.6</ele><time>2026-04-18T15:29:05Z</time></trkpt><trkpt lat="48.41234174082441" lon="-4.4750618005400575"><ele>73.0</ele><time>2026-04-18T15:29:07Z</time></trkpt><trkpt lat="48.41239219836653" lon="-4.475204884073234"><ele>73.0</ele><time>2026-04-18T15:29:09Z</time></trkpt><trkpt lat="48.41244252840175" lon="-4.475344080408879"><ele>73.0</ele><time>2026-04-18T15:29:11Z</time></trkpt><trkpt lat="48.412488886006095" lon="-4.475485683771424"><ele>73.0</ele><time>2026-04-18T15:29:13Z</time></trkpt><trkpt lat="48.41254178431282" lon="-4.475611455530077"><ele>73.0</ele><time>2026-04-18T15:29:15Z</time></trkpt><trkpt lat="48.41260986522166" lon="-4.475714566186572"><ele>73.0</ele><time>2026-04-18T15:29:17Z</time></trkpt><trkpt lat="48.412630455487474" lon="-4.47584978625664"><ele>72.0</ele><time>2026-04-18T15:29:19Z</time></trkpt><trkpt lat="48.412628072981065" lon="-4.4760122944694585"><ele>71.0</ele><time>2026-04-18T15:29:21Z</time></trkpt><trkpt lat="48.41267550545584" lon="-4.476143143511776"><ele>70.0</ele><time>2026-04-18T15:29:23Z</time></trkpt><trkpt lat="48.41272240438994" lon="-4.476282330689516"><ele>69.0</ele><time>2026-04-18T15:29:25Z</time></trkpt><trkpt lat="48.412761758103855" lon="-4.476414908899658"><ele>68.0</ele><time>2026-04-18T15:29:27Z</time></trkpt><trkpt lat="48.41279631155193" lon="-4.476531547995219"><ele>68.0</ele><time>2026-04-18T15:29:29Z</time></trkpt><trkpt lat="48.41284364915831" lon="-4.476659777515401"><ele>68.0</ele><time>2026-04-18T15:29:31Z</time></trkpt><trkpt lat="48.41287622135497" lon="-4.476788096032424"><ele>68.0</ele><time>2026-04-18T15:29:33Z</time></trkpt><trkpt lat="48.41290824954625" lon="-4.47690628406078"><ele>68.0</ele><time>2026-04-18T15:29:35Z</time></trkpt><trkpt lat="48.412944718995774" lon="-4.477024951849416"><ele>68.0</ele><time>2026-04-18T15:29:37Z</time></trkpt><trkpt lat="48.41297516078263" lon="-4.477133167417083"><ele>68.0</ele><time>2026-04-18T15:29:39Z</time></trkpt><trkpt lat="48.41300751940201" lon="-4.477221943349408"><ele>68.85714285714285</ele><time>2026-04-18T15:29:41Z</time></trkpt><trkpt lat="48.41303979965817" lon="-4.477304234055502"><ele>69.71428571428571</ele><time>2026-04-18T15:29:43Z</time></trkpt><trkpt lat="48.4130729788664" lon="-4.477397617035511"><ele>70.57142857142857</ele><time>2026-04-18T15:29:45Z</time></trkpt><trkpt lat="48.41311332520093" lon="-4.477494856994904"><ele>71.42857142857142</ele><time>2026-04-18T15:29:47Z</time></trkpt><trkpt lat="48.41315245856562" lon="-4.477582054016381"><ele>72.28571428571428</ele><time>2026-04-18T15:29:49Z</time></trkpt><trkpt lat="48.41318716111863" lon="-4.47766311834499"><ele>73.14285714285714</ele><time>2026-04-18T15:29:51Z</time></trkpt><trkpt lat="48.41323472818552" lon="-4.47775473284781"><ele>74.0</ele><time>2026-04-18T15:29:55Z</time></trkpt><trkpt lat="48.41324753240021" lon="-4.477889059041163"><ele>74.0</ele><time>2026-04-18T15:29:58Z</time></trkpt><trkpt lat="48.41328800660871" lon="-4.477977245774967"><ele>74.0</ele><time>2026-04-18T15:30:00Z</time></trkpt><trkpt lat="48.41334196881969" lon="-4.478051088221653"><ele>74.0</ele><time>2026-04-18T15:30:02Z</time></trkpt><trkpt lat="48.413359404108846" lon="-4.478172574699161"><ele>74.0</ele><time>2026-04-18T15:30:05Z</time></trkpt><trkpt lat="48.41331521283028" lon="-4.478247759038903"><ele>74.0</ele><time>2026-04-18T15:30:07Z</time></trkpt><trkpt lat="48.413277672979426" lon="-4.478366076704602"><ele>74.0</ele><time>2026-04-18T15:30:10Z</time></trkpt><trkpt lat="48.41324710836146" lon="-4.478476977847663"><ele>74.0</ele><time>2026-04-18T15:30:13Z</time></trkpt><trkpt lat="48.413211941636334" lon="-4.478566566001731"><ele>74.0</ele><time>2026-04-18T15:30:16Z</time></trkpt><trkpt lat="48.413167979513595" lon="-4.478652228937887"><ele>74.0</ele><time>2026-04-18T15:30:20Z</time></trkpt><trkpt lat="48.413153097907575" lon="-4.478785789254851"><ele>74.0</ele><time>2026-04-18T15:30:24Z</time></trkpt><trkpt lat="48.413130820969805" lon="-4.478879472826658"><ele>74.0</ele><time>2026-04-18T15:30:26Z</time></trkpt><trkpt lat="48.41311123499199" lon="-4.478981471389112"><ele>74.0</ele><time>2026-04-18T15:30:28Z</time></trkpt><trkpt lat="48.41308971872532" lon="-4.479083435377177"><ele>74.0</ele><time>2026-04-18T15:30:30Z</time></trkpt><trkpt lat="48.41305820093359" lon="-4.4791779149243265"><ele>74.16666666666667</ele><time>2026-04-18T15:30:32Z</time></trkpt><trkpt lat="48.41303712544042" lon="-4.479275482004228"><ele>74.33333333333334</ele><time>2026-04-18T15:30:34Z</time></trkpt><trkpt lat="48.41301268924248" lon="-4.479384046518148"><ele>74.5</ele><time>2026-04-18T15:30:36Z</time></trkpt><trkpt lat="48.412968472368156" lon="-4.479484704905496"><ele>74.66666666666667</ele><time>2026-04-18T15:30:38Z</time></trkpt><trkpt lat="48.412913278500646" lon="-4.479596968607184"><ele>74.83333333333333</ele><time>2026-04-18T15:30:40Z</time></trkpt><trkpt lat="48.41283740357495" lon="-4.479699906592949"><ele>75.0</ele><time>2026-04-18T15:30:42Z</time></trkpt><trkpt lat="48.41274486375171" lon="-4.479789393050917"><ele>74.0</ele><time>2026-04-18T15:30:44Z</time></trkpt><trkpt lat="48.41264988605159" lon="-4.479878418765375"><ele>73.0</ele><time>2026-04-18T15:30:46Z</time></trkpt><trkpt lat="48.412565105115796" lon="-4.480008675800718"><ele>72.0</ele><time>2026-04-18T15:30:48Z</time></trkpt><trkpt lat="48.41250125966244" lon="-4.480151149061848"><ele>71.0</ele><time>2026-04-18T15:30:50Z</time></trkpt><trkpt lat="48.41247186244618" lon="-4.480253028180334"><ele>70.0</ele><time>2026-04-18T15:30:52Z</time></trkpt><trkpt lat="48.41253973051341" lon="-4.480422126386752"><ele>70.0</ele><time>2026-04-18T15:30:56Z</time></trkpt><trkpt lat="48.41260771639927" lon="-4.480481930565219"><ele>70.0</ele><time>2026-04-18T15:30:59Z</time></trkpt><trkpt lat="48.4126818308804" lon="-4.480496604913699"><ele>70.0</ele><time>2026-04-18T15:31:19Z</time></trkpt><trkpt lat="48.412621487658484" lon="-4.480534974441485"><ele>70.0</ele><time>2026-04-18T15:31:29Z</time></trkpt><trkpt lat="48.412553297450856" lon="-4.480530486564042"><ele>70.0</ele><time>2026-04-18T15:31:46Z</time></trkpt><trkpt lat="48.412524059794414" lon="-4.480442826888399"><ele>70.0</ele><time>2026-04-18T15:31:52Z</time></trkpt><trkpt lat="48.41247671122032" lon="-4.480349431621822"><ele>70.0</ele><time>2026-04-18T15:31:55Z</time></trkpt><trkpt lat="48.41241699868508" lon="-4.480268882854988"><ele>70.0</ele><time>2026-04-18T15:31:57Z</time></trkpt><trkpt lat="48.41234673205146" lon="-4.480200427667299"><ele>70.0</ele><time>2026-04-18T15:31:59Z</time></trkpt><trkpt lat="48.412251957215965" lon="-4.480137162195975"><ele>70.0</ele><time>2026-04-18T15:32:02Z</time></trkpt><trkpt lat="48.41218491046251" lon="-4.480111387422302"><ele>70.0</ele><time>2026-04-18T15:32:04Z</time></trkpt><trkpt lat="48.412114173421145" lon="-4.480072314239442"><ele>70.0</ele><time>2026-04-18T15:32:06Z</time></trkpt><trkpt lat="48.412044556454205" lon="-4.480047635982596"><ele>70.0</ele><time>2026-04-18T15:32:08Z</time></trkpt><trkpt lat="48.411973472125176" lon="-4.480031784263252"><ele>69.4</ele><time>2026-04-18T15:32:10Z</time></trkpt><trkpt lat="48.41190046250137" lon="-4.47999596485569"><ele>68.8</ele><time>2026-04-18T15:32:12Z</time></trkpt><trkpt lat="48.41181798515553" lon="-4.479958514202411"><ele>68.2</ele><time>2026-04-18T15:32:14Z</time></trkpt><trkpt lat="48.41172604094961" lon="-4.479921851214974"><ele>67.6</ele><time>2026-04-18T15:32:16Z</time></trkpt><trkpt lat="48.411624419008895" lon="-4.479879146152457"><ele>67.0</ele><time>2026-04-18T15:32:18Z</time></trkpt><trkpt lat="48.41153788897065" lon="-4.479837387631482"><ele>67.0</ele><time>2026-04-18T15:32:20Z</time></trkpt><trkpt lat="48.411436208155536" lon="-4.47976369070184"><ele>67.0</ele><time>2026-04-18T15:32:22Z</time></trkpt><trkpt lat="48.411350992656615" lon="-4.479662951579921"><ele>67.0</ele><time>2026-04-18T15:32:24Z</time></trkpt><trkpt lat="48.41126148258125" lon="-4.479550762232124"><ele>67.0</ele><time>2026-04-18T15:32:26Z</time></trkpt><trkpt lat="48.41119300278043" lon="-4.4794449036975355"><ele>67.0</ele><time>2026-04-18T15:32:28Z</time></trkpt><trkpt lat="48.41113252567606" lon="-4.479383063827949"><ele>65.8</ele><time>2026-04-18T15:32:30Z</time></trkpt><trkpt lat="48.41103974011457" lon="-4.479464325932576"><ele>64.6</ele><time>2026-04-18T15:32:33Z</time></trkpt><trkpt lat="48.410995890860065" lon="-4.479586961334333"><ele>63.39999999999999</ele><time>2026-04-18T15:32:35Z</time></trkpt><trkpt lat="48.410931330970215" lon="-4.479725405866574"><ele>62.199999999999996</ele><time>2026-04-18T15:32:37Z</time></trkpt><trkpt lat="48.41086906317783" lon="-4.479872540564627"><ele>61.0</ele><time>2026-04-18T15:32:39Z</time></trkpt><trkpt lat="48.41079390182912" lon="-4.4800172586101406"><ele>61.0</ele><time>2026-04-18T15:32:41Z</time></trkpt><trkpt lat="48.41072982211285" lon="-4.48018324831562"><ele>60.99999999999999</ele><time>2026-04-18T15:32:43Z</time></trkpt><trkpt lat="48.41069157115507" lon="-4.480265526774903"><ele>60.99999999999999</ele><time>2026-04-18T15:32:44Z</time></trkpt><trkpt lat="48.41065913951853" lon="-4.480363856881206"><ele>61.0</ele><time>2026-04-18T15:32:45Z</time></trkpt><trkpt lat="48.410604196755095" lon="-4.480522137660825"><ele>61.0</ele><time>2026-04-18T15:32:47Z</time></trkpt><trkpt lat="48.41053980721033" lon="-4.480658077237687"><ele>59.5</ele><time>2026-04-18T15:32:49Z</time></trkpt><trkpt lat="48.41045592305759" lon="-4.480749939347973"><ele>58.0</ele><time>2026-04-18T15:32:51Z</time></trkpt><trkpt lat="48.4103450098591" lon="-4.480792463195834"><ele>56.5</ele><time>2026-04-18T15:32:53Z</time></trkpt><trkpt lat="48.41022887926632" lon="-4.480763241185029"><ele>55.0</ele><time>2026-04-18T15:32:55Z</time></trkpt><trkpt lat="48.41010839326745" lon="-4.480746078464456"><ele>55.0</ele><time>2026-04-18T15:32:57Z</time></trkpt><trkpt lat="48.409999307170665" lon="-4.4807122364447185"><ele>55.0</ele><time>2026-04-18T15:32:59Z</time></trkpt><trkpt lat="48.40989682747744" lon="-4.480674192645995"><ele>55.0</ele><time>2026-04-18T15:33:01Z</time></trkpt><trkpt lat="48.409800039616975" lon="-4.480656384852952"><ele>55.0</ele><time>2026-04-18T15:33:03Z</time></trkpt><trkpt lat="48.40971389733429" lon="-4.480671190095897"><ele>55.0</ele><time>2026-04-18T15:33:05Z</time></trkpt><trkpt lat="48.409637058827684" lon="-4.4807015443426135"><ele>55.166666666666664</ele><time>2026-04-18T15:33:07Z</time></trkpt><trkpt lat="48.409576019352016" lon="-4.48075385867491"><ele>55.33333333333333</ele><time>2026-04-18T15:33:09Z</time></trkpt><trkpt lat="48.40950491711903" lon="-4.480843416376232"><ele>55.5</ele><time>2026-04-18T15:33:11Z</time></trkpt><trkpt lat="48.40944842364105" lon="-4.480910849044697"><ele>55.66666666666667</ele><time>2026-04-18T15:33:13Z</time></trkpt><trkpt lat="48.40937207443064" lon="-4.48095526965364"><ele>55.833333333333336</ele><time>2026-04-18T15:33:16Z</time></trkpt><trkpt lat="48.40931668985673" lon="-4.481016771453784"><ele>56.0</ele><time>2026-04-18T15:33:39Z</time></trkpt><trkpt lat="48.40932090928495" lon="-4.481123945066081"><ele>56.00000000000001</ele><time>2026-04-18T15:33:42Z</time></trkpt><trkpt lat="48.40932688289632" lon="-4.481227632169856"><ele>56.0</ele><time>2026-04-18T15:33:47Z</time></trkpt><trkpt lat="48.40932338400654" lon="-4.481372010954952"><ele>56.0</ele><time>2026-04-18T15:33:50Z</time></trkpt><trkpt lat="48.409312373496" lon="-4.48149961324636"><ele>56.0</ele><time>2026-04-18T15:33:52Z</time></trkpt><trkpt lat="48.40931214167969" lon="-4.481617659339465"><ele>56.00000000000001</ele><time>2026-04-18T15:33:54Z</time></trkpt><trkpt lat="48.4093156977466" lon="-4.481741166990568"><ele>56.0</ele><time>2026-04-18T15:33:56Z</time></trkpt><trkpt lat="48.40931742850942" lon="-4.4819052020453904"><ele>55.8</ele><time>2026-04-18T15:33:58Z</time></trkpt><trkpt lat="48.40932516940197" lon="-4.482070725297192"><ele>55.599999999999994</ele><time>2026-04-18T15:34:00Z</time></trkpt><trkpt lat="48.40933034273196" lon="-4.482243221153149"><ele>55.4</ele><time>2026-04-18T15:34:02Z</time></trkpt><trkpt lat="48.40934605945164" lon="-4.48240287519934"><ele>55.2</ele><time>2026-04-18T15:34:04Z</time></trkpt><trkpt lat="48.40939036225775" lon="-4.482532368335733"><ele>55.0</ele><time>2026-04-18T15:34:06Z</time></trkpt><trkpt lat="48.40948114446676" lon="-4.482635286970402"><ele>54.6</ele><time>2026-04-18T15:34:08Z</time></trkpt><trkpt lat="48.40955123258168" lon="-4.482760598113447"><ele>54.2</ele><time>2026-04-18T15:34:10Z</time></trkpt><trkpt lat="48.409578395443866" lon="-4.482923370279179"><ele>53.8</ele><time>2026-04-18T15:34:12Z</time></trkpt><trkpt lat="48.40955472026622" lon="-4.483085591030128"><ele>53.4</ele><time>2026-04-18T15:34:14Z</time></trkpt><trkpt lat="48.40947603129861" lon="-4.483214492745788"><ele>53.0</ele><time>2026-04-18T15:34:16Z</time></trkpt><trkpt lat="48.40937787623775" lon="-4.483319792145432"><ele>52.8</ele><time>2026-04-18T15:34:18Z</time></trkpt><trkpt lat="48.40928949892143" lon="-4.483412850408527"><ele>52.599999999999994</ele><time>2026-04-18T15:34:20Z</time></trkpt><trkpt lat="48.40929329248144" lon="-4.483535568299113"><ele>52.400000000000006</ele><time>2026-04-18T15:34:21Z</time></trkpt><trkpt lat="48.40930968585421" lon="-4.4837065967303085"><ele>52.2</ele><time>2026-04-18T15:34:23Z</time></trkpt><trkpt lat="48.40931868926201" lon="-4.48388120054826"><ele>52.0</ele><time>2026-04-18T15:34:25Z</time></trkpt><trkpt lat="48.40931805174675" lon="-4.484050384143555"><ele>52.0</ele><time>2026-04-18T15:34:27Z</time></trkpt><trkpt lat="48.409328166407356" lon="-4.4842099142965"><ele>52.0</ele><time>2026-04-18T15:34:29Z</time></trkpt><trkpt lat="48.40934190792674" lon="-4.4843760719921795"><ele>52.0</ele><time>2026-04-18T15:34:31Z</time></trkpt><trkpt lat="48.409367556676415" lon="-4.48453801891621"><ele>52.0</ele><time>2026-04-18T15:34:33Z</time></trkpt><trkpt lat="48.40940031304279" lon="-4.48468078081749"><ele>52.0</ele><time>2026-04-18T15:34:35Z</time></trkpt><trkpt lat="48.40943706521927" lon="-4.484789235207408"><ele>51.83333333333333</ele><time>2026-04-18T15:34:37Z</time></trkpt><trkpt lat="48.40947731051288" lon="-4.4848908995008525"><ele>51.666666666666664</ele><time>2026-04-18T15:34:39Z</time></trkpt><trkpt lat="48.40953584980251" lon="-4.484999230499925"><ele>51.5</ele><time>2026-04-18T15:34:41Z</time></trkpt><trkpt lat="48.409590447014615" lon="-4.485094608444024"><ele>51.33333333333333</ele><time>2026-04-18T15:34:43Z</time></trkpt><trkpt lat="48.409643265590326" lon="-4.485191916796031"><ele>51.166666666666664</ele><time>2026-04-18T15:34:45Z</time></trkpt><trkpt lat="48.40970543071543" lon="-4.485284882281784"><ele>51.0</ele><time>2026-04-18T15:34:47Z</time></trkpt><trkpt lat="48.409770527821905" lon="-4.485366665303201"><ele>51.833333333333336</ele><time>2026-04-18T15:34:49Z</time></trkpt><trkpt lat="48.409839284652136" lon="-4.48543872691874"><ele>52.66666666666667</ele><time>2026-04-18T15:34:51Z</time></trkpt><trkpt lat="48.409907058724116" lon="-4.485502201458972"><ele>53.5</ele><time>2026-04-18T15:34:53Z</time></trkpt><trkpt lat="48.40998143606713" lon="-4.485553940124475"><ele>54.333333333333336</ele><time>2026-04-18T15:34:55Z</time></trkpt><trkpt lat="48.41006035375017" lon="-4.485563086375101"><ele>55.16666666666667</ele><time>2026-04-18T15:34:57Z</time></trkpt><trkpt lat="48.41013903377406" lon="-4.4856104163270585"><ele>56.0</ele><time>2026-04-18T15:34:59Z</time></trkpt><trkpt lat="48.41021132173826" lon="-4.485678771015243"><ele>56.00000000000001</ele><time>2026-04-18T15:35:01Z</time></trkpt><trkpt lat="48.41028363066654" lon="-4.485736755877669"><ele>56.0</ele><time>2026-04-18T15:35:03Z</time></trkpt><trkpt lat="48.41034893306921" lon="-4.485795664468316"><ele>56.0</ele><time>2026-04-18T15:35:05Z</time></trkpt><trkpt lat="48.410412531225255" lon="-4.485847761840398"><ele>56.0</ele><time>2026-04-18T15:35:07Z</time></trkpt><trkpt lat="48.41048099679317" lon="-4.48590745090855"><ele>56.00000000000001</ele><time>2026-04-18T15:35:09Z</time></trkpt><trkpt lat="48.41054782993677" lon="-4.485970275534457"><ele>56.0</ele><time>2026-04-18T15:35:11Z</time></trkpt><trkpt lat="48.410618570836235" lon="-4.486031077499638"><ele>56.50000000000001</ele><time>2026-04-18T15:35:13Z</time></trkpt><trkpt lat="48.41068214662524" lon="-4.486090702548707"><ele>57.0</ele><time>2026-04-18T15:35:15Z</time></trkpt><trkpt lat="48.41074807090548" lon="-4.486122169092288"><ele>57.5</ele><time>2026-04-18T15:35:17Z</time></trkpt><trkpt lat="48.41080495403003" lon="-4.4862144566871285"><ele>58.0</ele><time>2026-04-18T15:35:21Z</time></trkpt><trkpt lat="48.41088250262933" lon="-4.486308160459189"><ele>58.50000000000001</ele><time>2026-04-18T15:35:24Z</time></trkpt><trkpt lat="48.410961831041305" lon="-4.486369350726453"><ele>59.0</ele><time>2026-04-18T15:35:26Z</time></trkpt><trkpt lat="48.41099498264265" lon="-4.486503121927196"><ele>59.0</ele><time>2026-04-18T15:35:28Z</time></trkpt><trkpt lat="48.41102072246267" lon="-4.4866611220231185"><ele>59.00000000000001</ele><time>2026-04-18T15:35:30Z</time></trkpt><trkpt lat="48.41104452448066" lon="-4.486818407139085"><ele>59.00000000000001</ele><time>2026-04-18T15:35:32Z</time></trkpt><trkpt lat="48.4110836345407" lon="-4.486977262429233"><ele>59.0</ele><time>2026-04-18T15:35:34Z</time></trkpt><trkpt lat="48.41111447556802" lon="-4.487149595910688"><ele>59.0</ele><time>2026-04-18T15:35:36Z</time></trkpt><trkpt lat="48.41113484182689" lon="-4.487242311470568"><ele>59.0</ele><time>2026-04-18T15:35:37Z</time></trkpt><trkpt lat="48.411173066464606" lon="-4.48742534944979"><ele>59.0</ele><time>2026-04-18T15:35:39Z</time></trkpt><trkpt lat="48.411207898806715" lon="-4.487603447303477"><ele>59.0</ele><time>2026-04-18T15:35:41Z</time></trkpt><trkpt lat="48.4112385728207" lon="-4.487772103815466"><ele>59.0</ele><time>2026-04-18T15:35:43Z</time></trkpt><trkpt lat="48.41128501415853" lon="-4.487937080220942"><ele>59.800000000000004</ele><time>2026-04-18T15:35:45Z</time></trkpt><trkpt lat="48.41133367539248" lon="-4.488086114879147"><ele>60.60000000000001</ele><time>2026-04-18T15:35:47Z</time></trkpt><trkpt lat="48.41136884480379" lon="-4.488226994679135"><ele>61.4</ele><time>2026-04-18T15:35:49Z</time></trkpt><trkpt lat="48.41141812060131" lon="-4.488351348019443"><ele>62.2</ele><time>2026-04-18T15:35:51Z</time></trkpt><trkpt lat="48.411459511964665" lon="-4.488474906241646"><ele>63.0</ele><time>2026-04-18T15:35:53Z</time></trkpt><trkpt lat="48.41150340961833" lon="-4.488605312094873"><ele>63.0</ele><time>2026-04-18T15:35:55Z</time></trkpt><trkpt lat="48.411559729502386" lon="-4.488729695093779"><ele>63.0</ele><time>2026-04-18T15:35:57Z</time></trkpt><trkpt lat="48.41161091133717" lon="-4.48884859155654"><ele>63.0</ele><time>2026-04-18T15:35:59Z</time></trkpt><trkpt lat="48.41164798805428" lon="-4.488961897484988"><ele>63.0</ele><time>2026-04-18T15:36:01Z</time></trkpt><trkpt lat="48.41169502932314" lon="-4.489069289922171"><ele>63.0</ele><time>2026-04-18T15:36:03Z</time></trkpt><trkpt lat="48.411739653591994" lon="-4.489167340415382"><ele>63.0</ele><time>2026-04-18T15:36:05Z</time></trkpt><trkpt lat="48.41178627202664" lon="-4.4892648296377144"><ele>63.0</ele><time>2026-04-18T15:36:07Z</time></trkpt><trkpt lat="48.411835446093775" lon="-4.489365543601146"><ele>63.0</ele><time>2026-04-18T15:36:09Z</time></trkpt><trkpt lat="48.411890142043966" lon="-4.489452230897698"><ele>63.0</ele><time>2026-04-18T15:36:11Z</time></trkpt><trkpt lat="48.411944626561045" lon="-4.489561423968777"><ele>63.0</ele><time>2026-04-18T15:36:13Z</time></trkpt><trkpt lat="48.412001180281386" lon="-4.489655594508634"><ele>63.0</ele><time>2026-04-18T15:36:15Z</time></trkpt><trkpt lat="48.412056272788504" lon="-4.48975541077366"><ele>63.0</ele><time>2026-04-18T15:36:17Z</time></trkpt><trkpt lat="48.41211405111151" lon="-4.489847463080152"><ele>63.666666666666664</ele><time>2026-04-18T15:36:19Z</time></trkpt><trkpt lat="48.412171332319794" lon="-4.489942696633004"><ele>64.33333333333333</ele><time>2026-04-18T15:36:21Z</time></trkpt><trkpt lat="48.41221947241598" lon="-4.490034498468102"><ele>65.0</ele><time>2026-04-18T15:36:23Z</time></trkpt><trkpt lat="48.41227260499637" lon="-4.490111288474498"><ele>65.66666666666666</ele><time>2026-04-18T15:36:25Z</time></trkpt><trkpt lat="48.41232769271003" lon="-4.490190677074408"><ele>66.33333333333333</ele><time>2026-04-18T15:36:27Z</time></trkpt><trkpt lat="48.41237936350254" lon="-4.490275153067201"><ele>67.0</ele><time>2026-04-18T15:36:29Z</time></trkpt><trkpt lat="48.41243003268133" lon="-4.4903566198361835"><ele>67.28571428571429</ele><time>2026-04-18T15:36:31Z</time></trkpt><trkpt lat="48.412474904479225" lon="-4.490434002139462"><ele>67.57142857142857</ele><time>2026-04-18T15:36:33Z</time></trkpt><trkpt lat="48.412504467234996" lon="-4.490554814748044"><ele>67.85714285714286</ele><time>2026-04-18T15:36:36Z</time></trkpt><trkpt lat="48.412519001954394" lon="-4.4906611643848136"><ele>68.14285714285714</ele><time>2026-04-18T15:36:40Z</time></trkpt><trkpt lat="48.41251393059252" lon="-4.49078204731131"><ele>68.42857142857143</ele><time>2026-04-18T15:37:15Z</time></trkpt><trkpt lat="48.41251764998224" lon="-4.490883049336692"><ele>68.71428571428572</ele><time>2026-04-18T15:37:18Z</time></trkpt><trkpt lat="48.412530328705905" lon="-4.490982785814938"><ele>69.0</ele><time>2026-04-18T15:37:20Z</time></trkpt><trkpt lat="48.412534577027216" lon="-4.4910979831902775"><ele>69.0</ele><time>2026-04-18T15:37:23Z</time></trkpt><trkpt lat="48.41252562800252" lon="-4.49122264776706"><ele>69.0</ele><time>2026-04-18T15:37:25Z</time></trkpt><trkpt lat="48.41251152246612" lon="-4.491355767733548"><ele>69.0</ele><time>2026-04-18T15:37:27Z</time></trkpt><trkpt lat="48.41252262189597" lon="-4.491506826236089"><ele>69.0</ele><time>2026-04-18T15:37:29Z</time></trkpt><trkpt lat="48.412514687077504" lon="-4.491626418691125"><ele>69.0</ele><time>2026-04-18T15:37:31Z</time></trkpt><trkpt lat="48.41250510433064" lon="-4.491754409796636"><ele>69.0</ele><time>2026-04-18T15:37:33Z</time></trkpt><trkpt lat="48.4125049559019" lon="-4.491886943338566"><ele>68.8</ele><time>2026-04-18T15:37:35Z</time></trkpt><trkpt lat="48.41249986492995" lon="-4.492019496506347"><ele>68.60000000000001</ele><time>2026-04-18T15:37:37Z</time></trkpt><trkpt lat="48.41249236803695" lon="-4.49214963985176"><ele>68.4</ele><time>2026-04-18T15:37:39Z</time></trkpt><trkpt lat="48.412484211505316" lon="-4.49228986800578"><ele>68.2</ele><time>2026-04-18T15:37:41Z</time></trkpt><trkpt lat="48.41247485535302" lon="-4.492426962684284"><ele>68.0</ele><time>2026-04-18T15:37:43Z</time></trkpt><trkpt lat="48.412464582637924" lon="-4.492580191594369"><ele>67.75</ele><time>2026-04-18T15:37:45Z</time></trkpt><trkpt lat="48.412449860382445" lon="-4.492743360345462"><ele>67.5</ele><time>2026-04-18T15:37:47Z</time></trkpt><trkpt lat="48.412438113642615" lon="-4.492904475259725"><ele>67.25</ele><time>2026-04-18T15:37:49Z</time></trkpt><trkpt lat="48.412428935740174" lon="-4.493077375711033"><ele>67.0</ele><time>2026-04-18T15:37:51Z</time></trkpt><trkpt lat="48.41242285557041" lon="-4.493260778554348"><ele>67.0</ele><time>2026-04-18T15:37:53Z</time></trkpt><trkpt lat="48.41241533671878" lon="-4.493455854092619"><ele>67.0</ele><time>2026-04-18T15:37:55Z</time></trkpt><trkpt lat="48.41241368109761" lon="-4.493558367950925"><ele>67.0</ele><time>2026-04-18T15:37:56Z</time></trkpt><trkpt lat="48.41241152146161" lon="-4.4936576656663405"><ele>67.0</ele><time>2026-04-18T15:37:57Z</time></trkpt><trkpt lat="48.41241029668855" lon="-4.493761914052201"><ele>67.0</ele><time>2026-04-18T15:37:58Z</time></trkpt><trkpt lat="48.41241228493358" lon="-4.493864299335832"><ele>67.0</ele><time>2026-04-18T15:37:59Z</time></trkpt><trkpt lat="48.41241365071735" lon="-4.4939669791828445"><ele>67.0</ele><time>2026-04-18T15:38:00Z</time></trkpt><trkpt lat="48.41241327166563" lon="-4.494068669760233"><ele>67.0</ele><time>2026-04-18T15:38:01Z</time></trkpt><trkpt lat="48.41241382966217" lon="-4.494170257230509"><ele>67.0</ele><time>2026-04-18T15:38:02Z</time></trkpt><trkpt lat="48.41241173112294" lon="-4.494271255529055"><ele>67.0</ele><time>2026-04-18T15:38:03Z</time></trkpt><trkpt lat="48.412411038432545" lon="-4.494372283216094"><ele>67.0</ele><time>2026-04-18T15:38:04Z</time></trkpt><trkpt lat="48.41241380833366" lon="-4.49446719308863"><ele>67.0</ele><time>2026-04-18T15:38:05Z</time></trkpt><trkpt lat="48.41242102470773" lon="-4.494656811794888"><ele>66.75</ele><time>2026-04-18T15:38:07Z</time></trkpt><trkpt lat="48.412449852768425" lon="-4.494843328892304"><ele>66.5</ele><time>2026-04-18T15:38:09Z</time></trkpt><trkpt lat="48.41243727800376" lon="-4.49502702405853"><ele>66.25</ele><time>2026-04-18T15:38:11Z</time></trkpt><trkpt lat="48.41244338249087" lon="-4.4952048015401385"><ele>66.0</ele><time>2026-04-18T15:38:13Z</time></trkpt><trkpt lat="48.41243816322451" lon="-4.495381477504036"><ele>66.2</ele><time>2026-04-18T15:38:15Z</time></trkpt><trkpt lat="48.41243991574161" lon="-4.4955612669500695"><ele>66.39999999999999</ele><time>2026-04-18T15:38:17Z</time></trkpt><trkpt lat="48.412440511594866" lon="-4.495733272631296"><ele>66.6</ele><time>2026-04-18T15:38:19Z</time></trkpt><trkpt lat="48.41243645761735" lon="-4.495876987872909"><ele>66.8</ele><time>2026-04-18T15:38:21Z</time></trkpt><trkpt lat="48.412441320019234" lon="-4.495996410942511"><ele>67.0</ele><time>2026-04-18T15:38:23Z</time></trkpt><trkpt lat="48.412573200476096" lon="-4.495986818365243"><ele>67.0</ele><time>2026-04-18T15:38:25Z</time></trkpt><trkpt lat="48.4126692666553" lon="-4.496010032026893"><ele>67.0</ele><time>2026-04-18T15:38:27Z</time></trkpt><trkpt lat="48.41276522549103" lon="-4.496019433612917"><ele>67.0</ele><time>2026-04-18T15:38:29Z</time></trkpt><trkpt lat="48.412853065751655" lon="-4.496030230898208"><ele>67.0</ele><time>2026-04-18T15:38:31Z</time></trkpt><trkpt lat="48.41292314724421" lon="-4.496038152904201"><ele>67.0</ele><time>2026-04-18T15:38:33Z</time></trkpt><trkpt lat="48.41298766054786" lon="-4.496042464336266"><ele>67.0</ele><time>2026-04-18T15:38:35Z</time></trkpt><trkpt lat="48.41305557567391" lon="-4.496019589956877"><ele>67.4</ele><time>2026-04-18T15:39:25Z</time></trkpt><trkpt lat="48.41312599999347" lon="-4.49603389259273"><ele>67.80000000000001</ele><time>2026-04-18T15:39:30Z</time></trkpt><trkpt lat="48.41318198698387" lon="-4.496097145545099"><ele>68.2</ele><time>2026-04-18T15:39:35Z</time></trkpt><trkpt lat="48.41316421347246" lon="-4.496291751297473"><ele>68.60000000000001</ele><time>2026-04-18T15:39:37Z</time></trkpt><trkpt lat="48.413162146034544" lon="-4.496426537983597"><ele>69.0</ele><time>2026-04-18T15:39:39Z</time></trkpt><trkpt lat="48.41315915820038" lon="-4.496572705436184"><ele>69.0</ele><time>2026-04-18T15:39:41Z</time></trkpt><trkpt lat="48.41315798530512" lon="-4.4967212266132615"><ele>69.0</ele><time>2026-04-18T15:39:43Z</time></trkpt><trkpt lat="48.41316256832512" lon="-4.496860440147269"><ele>69.0</ele><time>2026-04-18T15:39:45Z</time></trkpt><trkpt lat="48.413159882644884" lon="-4.497002850262858"><ele>69.0</ele><time>2026-04-18T15:39:47Z</time></trkpt><trkpt lat="48.413161146741025" lon="-4.497144112550909"><ele>69.0</ele><time>2026-04-18T15:39:49Z</time></trkpt><trkpt lat="48.41316519993921" lon="-4.497290329020229"><ele>69.0</ele><time>2026-04-18T15:39:51Z</time></trkpt><trkpt lat="48.41317515410328" lon="-4.497437372174201"><ele>69.0</ele><time>2026-04-18T15:39:53Z</time></trkpt><trkpt lat="48.41317788741321" lon="-4.497577232889678"><ele>69.0</ele><time>2026-04-18T15:39:55Z</time></trkpt><trkpt lat="48.41317566979273" lon="-4.497725991205262"><ele>69.0</ele><time>2026-04-18T15:39:57Z</time></trkpt><trkpt lat="48.413163722532566" lon="-4.497884155344944"><ele>69.0</ele><time>2026-04-18T15:39:59Z</time></trkpt><trkpt lat="48.41316270135348" lon="-4.498055439005683"><ele>68.8</ele><time>2026-04-18T15:40:01Z</time></trkpt><trkpt lat="48.41315274199536" lon="-4.498221428091004"><ele>68.60000000000001</ele><time>2026-04-18T15:40:03Z</time></trkpt><trkpt lat="48.41314186897998" lon="-4.498389020384496"><ele>68.4</ele><time>2026-04-18T15:40:05Z</time></trkpt><trkpt lat="48.413131748370574" lon="-4.4985547516919295"><ele>68.2</ele><time>2026-04-18T15:40:07Z</time></trkpt><trkpt lat="48.41312556198389" lon="-4.498715676678639"><ele>68.0</ele><time>2026-04-18T15:40:09Z</time></trkpt><trkpt lat="48.4131188600578" lon="-4.498875659796716"><ele>68.0</ele><time>2026-04-18T15:40:11Z</time></trkpt><trkpt lat="48.41311254124754" lon="-4.499034172589467"><ele>68.0</ele><time>2026-04-18T15:40:13Z</time></trkpt><trkpt lat="48.41310764793355" lon="-4.499186797821797"><ele>68.0</ele><time>2026-04-18T15:40:15Z</time></trkpt><trkpt lat="48.413102098543625" lon="-4.4993346886171155"><ele>68.0</ele><time>2026-04-18T15:40:17Z</time></trkpt><trkpt lat="48.41309413180271" lon="-4.499478469080065"><ele>68.0</ele><time>2026-04-18T15:40:19Z</time></trkpt><trkpt lat="48.413089508043356" lon="-4.49964124112869"><ele>68.4</ele><time>2026-04-18T15:40:21Z</time></trkpt><trkpt lat="48.41308601212063" lon="-4.499807966312007"><ele>68.8</ele><time>2026-04-18T15:40:23Z</time></trkpt><trkpt lat="48.4130743644538" lon="-4.4999871150573245"><ele>69.2</ele><time>2026-04-18T15:40:25Z</time></trkpt><trkpt lat="48.413070698050205" lon="-4.500173974704908"><ele>69.6</ele><time>2026-04-18T15:40:27Z</time></trkpt><trkpt lat="48.413069369259155" lon="-4.5002719128135364"><ele>70.0</ele><time>2026-04-18T15:40:28Z</time></trkpt><trkpt lat="48.41306598539186" lon="-4.5003680698213575"><ele>69.57142857142857</ele><time>2026-04-18T15:40:29Z</time></trkpt><trkpt lat="48.41306069604341" lon="-4.500462920624504"><ele>69.14285714285714</ele><time>2026-04-18T15:40:30Z</time></trkpt><trkpt lat="48.413054535483944" lon="-4.500561179047898"><ele>68.71428571428572</ele><time>2026-04-18T15:40:31Z</time></trkpt><trkpt lat="48.41305168309492" lon="-4.500659631311336"><ele>68.28571428571428</ele><time>2026-04-18T15:40:32Z</time></trkpt><trkpt lat="48.413044918934006" lon="-4.500756145839077"><ele>67.85714285714286</ele><time>2026-04-18T15:40:33Z</time></trkpt><trkpt lat="48.413038574538405" lon="-4.500856583941955"><ele>67.42857142857143</ele><time>2026-04-18T15:40:34Z</time></trkpt><trkpt lat="48.413032191707906" lon="-4.500958978669405"><ele>67.0</ele><time>2026-04-18T15:40:35Z</time></trkpt><trkpt lat="48.41303017627188" lon="-4.501060904422788"><ele>67.0</ele><time>2026-04-18T15:40:36Z</time></trkpt><trkpt lat="48.41302802121331" lon="-4.501162977336474"><ele>67.0</ele><time>2026-04-18T15:40:37Z</time></trkpt><trkpt lat="48.41302533092844" lon="-4.501261752112527"><ele>67.0</ele><time>2026-04-18T15:40:38Z</time></trkpt><trkpt lat="48.41302316846431" lon="-4.501364002561741"><ele>67.0</ele><time>2026-04-18T15:40:39Z</time></trkpt><trkpt lat="48.41302006105872" lon="-4.501466343251963"><ele>67.0</ele><time>2026-04-18T15:40:40Z</time></trkpt><trkpt lat="48.413012036598246" lon="-4.501652006762537"><ele>67.0</ele><time>2026-04-18T15:40:42Z</time></trkpt><trkpt lat="48.413016730725346" lon="-4.501819497676945"><ele>66.5</ele><time>2026-04-18T15:40:44Z</time></trkpt><trkpt lat="48.413018880458026" lon="-4.501990708523287"><ele>66.0</ele><time>2026-04-18T15:40:46Z</time></trkpt><trkpt lat="48.41301557267657" lon="-4.502150907265407"><ele>65.5</ele><time>2026-04-18T15:40:48Z</time></trkpt><trkpt lat="48.41300902233596" lon="-4.502323462057994"><ele>65.0</ele><time>2026-04-18T15:40:50Z</time></trkpt><trkpt lat="48.413004424277474" lon="-4.502514691629606"><ele>64.85714285714286</ele><time>2026-04-18T15:40:52Z</time></trkpt><trkpt lat="48.412999698506354" lon="-4.502612335240495"><ele>64.71428571428572</ele><time>2026-04-18T15:40:53Z</time></trkpt><trkpt lat="48.41299380419083" lon="-4.502707142582338"><ele>64.57142857142857</ele><time>2026-04-18T15:40:54Z</time></trkpt><trkpt lat="48.41298621852596" lon="-4.502805136857335"><ele>64.42857142857143</ele><time>2026-04-18T15:40:55Z</time></trkpt><trkpt lat="48.412990561750625" lon="-4.502905337551488"><ele>64.28571428571428</ele><time>2026-04-18T15:40:56Z</time></trkpt><trkpt lat="48.41299186937848" lon="-4.503011412256451"><ele>64.14285714285714</ele><time>2026-04-18T15:40:57Z</time></trkpt><trkpt lat="48.412985423756346" lon="-4.503113478872339"><ele>64.0</ele><time>2026-04-18T15:40:58Z</time></trkpt><trkpt lat="48.41298136894068" lon="-4.503221808738496"><ele>63.57142857142857</ele><time>2026-04-18T15:40:59Z</time></trkpt><trkpt lat="48.412977557624394" lon="-4.503324207409983"><ele>63.14285714285714</ele><time>2026-04-18T15:41:00Z</time></trkpt><trkpt lat="48.41297478872402" lon="-4.503435020611523"><ele>62.71428571428571</ele><time>2026-04-18T15:41:01Z</time></trkpt><trkpt lat="48.4129716876911" lon="-4.503542678550451"><ele>62.28571428571428</ele><time>2026-04-18T15:41:02Z</time></trkpt><trkpt lat="48.4129679393685" lon="-4.503649656533914"><ele>61.857142857142854</ele><time>2026-04-18T15:41:03Z</time></trkpt><trkpt lat="48.41296418956698" lon="-4.5037497497150545"><ele>61.428571428571416</ele><time>2026-04-18T15:41:04Z</time></trkpt><trkpt lat="48.412962456104616" lon="-4.503860890835029"><ele>60.99999999999999</ele><time>2026-04-18T15:41:05Z</time></trkpt><trkpt lat="48.41295910867728" lon="-4.5039738672909255"><ele>60.99999999999999</ele><time>2026-04-18T15:41:06Z</time></trkpt><trkpt lat="48.41295842382537" lon="-4.5040809311905035"><ele>61.0</ele><time>2026-04-18T15:41:07Z</time></trkpt><trkpt lat="48.412954430580974" lon="-4.504196751940341"><ele>61.0</ele><time>2026-04-18T15:41:08Z</time></trkpt><trkpt lat="48.41294926757143" lon="-4.504310050300776"><ele>61.0</ele><time>2026-04-18T15:41:09Z</time></trkpt><trkpt lat="48.41294342613406" lon="-4.504425753224333"><ele>60.99999999999999</ele><time>2026-04-18T15:41:10Z</time></trkpt><trkpt lat="48.412945715132764" lon="-4.504538222128356"><ele>61.0</ele><time>2026-04-18T15:41:11Z</time></trkpt><trkpt lat="48.41294070707828" lon="-4.504652440606677"><ele>60.83333333333333</ele><time>2026-04-18T15:41:12Z</time></trkpt><trkpt lat="48.41293660099033" lon="-4.504771756855354"><ele>60.666666666666664</ele><time>2026-04-18T15:41:13Z</time></trkpt><trkpt lat="48.412934507502236" lon="-4.504884875814487"><ele>60.5</ele><time>2026-04-18T15:41:14Z</time></trkpt><trkpt lat="48.41293910153524" lon="-4.5049916666710255"><ele>60.33333333333333</ele><time>2026-04-18T15:41:15Z</time></trkpt><trkpt lat="48.41293400076597" lon="-4.505090604134996"><ele>60.166666666666664</ele><time>2026-04-18T15:41:16Z</time></trkpt><trkpt lat="48.41292372756084" lon="-4.505287402611887"><ele>60.0</ele><time>2026-04-18T15:41:18Z</time></trkpt><trkpt lat="48.412910723624606" lon="-4.505395649114674"><ele>59.42857142857143</ele><time>2026-04-18T15:41:19Z</time></trkpt><trkpt lat="48.41290142026704" lon="-4.505499841438496"><ele>58.857142857142854</ele><time>2026-04-18T15:41:20Z</time></trkpt><trkpt lat="48.41289992848845" lon="-4.505604839332558"><ele>58.285714285714285</ele><time>2026-04-18T15:41:21Z</time></trkpt><trkpt lat="48.412896906393854" lon="-4.505706623659108"><ele>57.714285714285715</ele><time>2026-04-18T15:41:22Z</time></trkpt><trkpt lat="48.412895688811304" lon="-4.505811255414663"><ele>57.14285714285714</ele><time>2026-04-18T15:41:23Z</time></trkpt><trkpt lat="48.412893512820965" lon="-4.5059136894742124"><ele>56.57142857142857</ele><time>2026-04-18T15:41:24Z</time></trkpt><trkpt lat="48.41289164393842" lon="-4.506009825948291"><ele>56.0</ele><time>2026-04-18T15:41:25Z</time></trkpt><trkpt lat="48.41289072327259" lon="-4.506105153958497"><ele>55.599999999999994</ele><time>2026-04-18T15:41:26Z</time></trkpt><trkpt lat="48.412893684030564" lon="-4.506283169070118"><ele>55.199999999999996</ele><time>2026-04-18T15:41:28Z</time></trkpt><trkpt lat="48.41289321777855" lon="-4.506404377067284"><ele>54.800000000000004</ele><time>2026-04-18T15:41:30Z</time></trkpt><trkpt lat="48.41289462430651" lon="-4.5065353017719705"><ele>54.400000000000006</ele><time>2026-04-18T15:41:32Z</time></trkpt><trkpt lat="48.412850888000776" lon="-4.5066999216918555"><ele>54.0</ele><time>2026-04-18T15:41:34Z</time></trkpt><trkpt lat="48.41286585695872" lon="-4.5068260858444855"><ele>54.0</ele><time>2026-04-18T15:41:36Z</time></trkpt><trkpt lat="48.41288196055616" lon="-4.506961813216449"><ele>54.0</ele><time>2026-04-18T15:41:38Z</time></trkpt><trkpt lat="48.41289822358505" lon="-4.507098884281404"><ele>54.0</ele><time>2026-04-18T15:41:40Z</time></trkpt><trkpt lat="48.41291302894581" lon="-4.507194094516158"><ele>54.0</ele><time>2026-04-18T15:41:42Z</time></trkpt><trkpt lat="48.41292617169412" lon="-4.5072901057810215"><ele>54.0</ele><time>2026-04-18T15:41:44Z</time></trkpt><trkpt lat="48.41293821164362" lon="-4.507396202964367"><ele>54.0</ele><time>2026-04-18T15:42:03Z</time></trkpt><trkpt lat="48.41296271775521" lon="-4.507517670728876"><ele>53.333333333333336</ele><time>2026-04-18T15:42:08Z</time></trkpt><trkpt lat="48.41307364603431" lon="-4.507600739871829"><ele>52.66666666666667</ele><time>2026-04-18T15:42:11Z</time></trkpt><trkpt lat="48.41312872936831" lon="-4.507649575874208"><ele>52.0</ele><time>2026-04-18T15:42:13Z</time></trkpt><trkpt lat="48.413179654804956" lon="-4.507721066808005"><ele>51.333333333333336</ele><time>2026-04-18T15:42:15Z</time></trkpt><trkpt lat="48.41321947899591" lon="-4.507804335949642"><ele>50.66666666666667</ele><time>2026-04-18T15:42:17Z</time></trkpt><trkpt lat="48.413252603364256" lon="-4.507905458069102"><ele>50.0</ele><time>2026-04-18T15:42:20Z</time></trkpt><trkpt lat="48.413272929111805" lon="-4.508019170635797"><ele>49.66666666666667</ele><time>2026-04-18T15:42:24Z</time></trkpt><trkpt lat="48.41336072532901" lon="-4.508059068203567"><ele>49.333333333333336</ele><time>2026-04-18T15:42:26Z</time></trkpt><trkpt lat="48.41332496130184" lon="-4.508186455335505"><ele>49.0</ele><time>2026-04-18T15:42:29Z</time></trkpt><trkpt lat="48.41329690544869" lon="-4.508290738186818"><ele>48.66666666666667</ele><time>2026-04-18T15:42:31Z</time></trkpt><trkpt lat="48.413253627292676" lon="-4.508359986167087"><ele>48.333333333333336</ele><time>2026-04-18T15:42:33Z</time></trkpt><trkpt lat="48.41319595094899" lon="-4.508440869268167"><ele>48.0</ele><time>2026-04-18T15:42:36Z</time></trkpt><trkpt lat="48.41317146003076" lon="-4.508546515467002"><ele>47.99999999999999</ele><time>2026-04-18T15:42:39Z</time></trkpt><trkpt lat="48.413117004270156" lon="-4.508599600926812"><ele>48.0</ele><time>2026-04-18T15:42:41Z</time></trkpt><trkpt lat="48.41304743800784" lon="-4.508623171159988"><ele>48.0</ele><time>2026-04-18T15:42:43Z</time></trkpt><trkpt lat="48.41297737408033" lon="-4.508601931436397"><ele>48.0</ele><time>2026-04-18T15:42:45Z</time></trkpt><trkpt lat="48.412911641780795" lon="-4.508589028433091"><ele>48.0</ele><time>2026-04-18T15:42:47Z</time></trkpt><trkpt lat="48.41282291638782" lon="-4.508597221803564"><ele>47.99999999999999</ele><time>2026-04-18T15:42:50Z</time></trkpt><trkpt lat="48.41274618337455" lon="-4.508647217299007"><ele>48.0</ele><time>2026-04-18T15:42:52Z</time></trkpt><trkpt lat="48.4126840186631" lon="-4.508713465005618"><ele>48.4</ele><time>2026-04-18T15:42:54Z</time></trkpt><trkpt lat="48.412601841662514" lon="-4.5087787967526545"><ele>48.8</ele><time>2026-04-18T15:42:56Z</time></trkpt><trkpt lat="48.41254108761653" lon="-4.508906454517642"><ele>49.2</ele><time>2026-04-18T15:42:58Z</time></trkpt><trkpt lat="48.412476786867664" lon="-4.509062832303275"><ele>49.6</ele><time>2026-04-18T15:43:00Z</time></trkpt><trkpt lat="48.41245030613674" lon="-4.509151083020265"><ele>50.0</ele><time>2026-04-18T15:43:01Z</time></trkpt><trkpt lat="48.41242349604866" lon="-4.509243742071711"><ele>50.00000000000001</ele><time>2026-04-18T15:43:02Z</time></trkpt><trkpt lat="48.41239194056736" lon="-4.5093328011949785"><ele>50.0</ele><time>2026-04-18T15:43:03Z</time></trkpt><trkpt lat="48.41235956075912" lon="-4.509423995986874"><ele>50.0</ele><time>2026-04-18T15:43:04Z</time></trkpt><trkpt lat="48.41232835963071" lon="-4.50952009872371"><ele>50.0</ele><time>2026-04-18T15:43:05Z</time></trkpt><trkpt lat="48.41229574514333" lon="-4.509618413756124"><ele>50.0</ele><time>2026-04-18T15:43:06Z</time></trkpt><trkpt lat="48.412261043535345" lon="-4.509711307441139"><ele>50.00000000000001</ele><time>2026-04-18T15:43:07Z</time></trkpt><trkpt lat="48.41222835213799" lon="-4.509807540862169"><ele>50.0</ele><time>2026-04-18T15:43:08Z</time></trkpt><trkpt lat="48.412184903269406" lon="-4.50990506144814"><ele>49.16666666666667</ele><time>2026-04-18T15:43:09Z</time></trkpt><trkpt lat="48.41214796658362" lon="-4.510011820684518"><ele>48.333333333333336</ele><time>2026-04-18T15:43:10Z</time></trkpt><trkpt lat="48.41210836261967" lon="-4.51011879637935"><ele>47.5</ele><time>2026-04-18T15:43:11Z</time></trkpt><trkpt lat="48.412066895870076" lon="-4.510221562271277"><ele>46.66666666666667</ele><time>2026-04-18T15:43:12Z</time></trkpt><trkpt lat="48.412023474618756" lon="-4.510324750434576"><ele>45.833333333333336</ele><time>2026-04-18T15:43:13Z</time></trkpt><trkpt lat="48.41198164398229" lon="-4.510427132130244"><ele>45.0</ele><time>2026-04-18T15:43:14Z</time></trkpt><trkpt lat="48.41193887093823" lon="-4.5105295641182614"><ele>44.5</ele><time>2026-04-18T15:43:15Z</time></trkpt><trkpt lat="48.41189659746621" lon="-4.510632983507463"><ele>44.0</ele><time>2026-04-18T15:43:16Z</time></trkpt><trkpt lat="48.411850031201425" lon="-4.510729138230327"><ele>43.5</ele><time>2026-04-18T15:43:17Z</time></trkpt><trkpt lat="48.41179999850778" lon="-4.510834021762335"><ele>43.0</ele><time>2026-04-18T15:43:18Z</time></trkpt><trkpt lat="48.411750394123985" lon="-4.510932520337905"><ele>42.5</ele><time>2026-04-18T15:43:19Z</time></trkpt><trkpt lat="48.411699611680454" lon="-4.511036316926254"><ele>42.0</ele><time>2026-04-18T15:43:20Z</time></trkpt><trkpt lat="48.4116515763372" lon="-4.5111466303013605"><ele>41.833333333333336</ele><time>2026-04-18T15:43:21Z</time></trkpt><trkpt lat="48.41160003620255" lon="-4.511255033193212"><ele>41.666666666666664</ele><time>2026-04-18T15:43:22Z</time></trkpt><trkpt lat="48.411548845381944" lon="-4.511360469515616"><ele>41.5</ele><time>2026-04-18T15:43:23Z</time></trkpt><trkpt lat="48.41150864741062" lon="-4.511471897814095"><ele>41.33333333333333</ele><time>2026-04-18T15:43:24Z</time></trkpt><trkpt lat="48.411462482394995" lon="-4.511575202428802"><ele>41.166666666666664</ele><time>2026-04-18T15:43:25Z</time></trkpt><trkpt lat="48.41141408657488" lon="-4.511686058702057"><ele>41.0</ele><time>2026-04-18T15:43:26Z</time></trkpt><trkpt lat="48.41135971887287" lon="-4.51179114222141"><ele>40.33333333333333</ele><time>2026-04-18T15:43:27Z</time></trkpt><trkpt lat="48.41131802594528" lon="-4.511897029424254"><ele>39.666666666666664</ele><time>2026-04-18T15:43:28Z</time></trkpt><trkpt lat="48.411267192151854" lon="-4.511995851458645"><ele>39.0</ele><time>2026-04-18T15:43:29Z</time></trkpt><trkpt lat="48.41122317551658" lon="-4.512097636192616"><ele>38.333333333333336</ele><time>2026-04-18T15:43:30Z</time></trkpt><trkpt lat="48.411180328242644" lon="-4.512200882349189"><ele>37.66666666666667</ele><time>2026-04-18T15:43:31Z</time></trkpt><trkpt lat="48.411135682370904" lon="-4.512301555408088"><ele>37.0</ele><time>2026-04-18T15:43:32Z</time></trkpt><trkpt lat="48.41109423345089" lon="-4.512391004535609"><ele>36.714285714285715</ele><time>2026-04-18T15:43:33Z</time></trkpt><trkpt lat="48.41105024740805" lon="-4.512476855586964"><ele>36.42857142857143</ele><time>2026-04-18T15:43:34Z</time></trkpt><trkpt lat="48.411006822767305" lon="-4.512560798438501"><ele>36.14285714285714</ele><time>2026-04-18T15:43:35Z</time></trkpt><trkpt lat="48.41096870852042" lon="-4.51264859204468"><ele>35.85714285714286</ele><time>2026-04-18T15:43:36Z</time></trkpt><trkpt lat="48.41092862230337" lon="-4.512741818494538"><ele>35.57142857142857</ele><time>2026-04-18T15:43:37Z</time></trkpt><trkpt lat="48.41088602296089" lon="-4.512836626699557"><ele>35.285714285714285</ele><time>2026-04-18T15:43:38Z</time></trkpt><trkpt lat="48.4108424511359" lon="-4.5129331119478575"><ele>35.0</ele><time>2026-04-18T15:43:39Z</time></trkpt><trkpt lat="48.41079983729909" lon="-4.513033118614833"><ele>35.0</ele><time>2026-04-18T15:43:40Z</time></trkpt><trkpt lat="48.410754700752385" lon="-4.513132136765947"><ele>35.0</ele><time>2026-04-18T15:43:41Z</time></trkpt><trkpt lat="48.4107084479517" lon="-4.513231105485812"><ele>35.0</ele><time>2026-04-18T15:43:42Z</time></trkpt><trkpt lat="48.41066041417101" lon="-4.51332630254997"><ele>35.0</ele><time>2026-04-18T15:43:43Z</time></trkpt><trkpt lat="48.410617032299655" lon="-4.513411374113697"><ele>35.0</ele><time>2026-04-18T15:43:44Z</time></trkpt><trkpt lat="48.41057826295324" lon="-4.5134923527113555"><ele>35.0</ele><time>2026-04-18T15:43:45Z</time></trkpt><trkpt lat="48.41054205624765" lon="-4.513576648758623"><ele>35.0</ele><time>2026-04-18T15:43:46Z</time></trkpt><trkpt lat="48.41050160433922" lon="-4.513656070907501"><ele>34.8</ele><time>2026-04-18T15:43:47Z</time></trkpt><trkpt lat="48.41042352106269" lon="-4.5137802371057"><ele>34.6</ele><time>2026-04-18T15:43:49Z</time></trkpt><trkpt lat="48.410360740834754" lon="-4.51390846357493"><ele>34.4</ele><time>2026-04-18T15:43:51Z</time></trkpt><trkpt lat="48.41030394857419" lon="-4.514039355446184"><ele>34.2</ele><time>2026-04-18T15:43:53Z</time></trkpt><trkpt lat="48.41025223494904" lon="-4.514172768771554"><ele>34.0</ele><time>2026-04-18T15:43:55Z</time></trkpt><trkpt lat="48.410222047742366" lon="-4.514299819400002"><ele>34.0</ele><time>2026-04-18T15:43:57Z</time></trkpt><trkpt lat="48.41018698329426" lon="-4.514400729494159"><ele>34.0</ele><time>2026-04-18T15:44:00Z</time></trkpt><trkpt lat="48.41015753536908" lon="-4.514507707020072"><ele>34.0</ele><time>2026-04-18T15:44:03Z</time></trkpt><trkpt lat="48.41010826391206" lon="-4.514623170840661"><ele>34.0</ele><time>2026-04-18T15:44:06Z</time></trkpt><trkpt lat="48.41007102214088" lon="-4.514755567312785"><ele>34.0</ele><time>2026-04-18T15:44:09Z</time></trkpt><trkpt lat="48.410169101092706" lon="-4.514871403738558"><ele>34.0</ele><time>2026-04-18T15:44:10Z</time></trkpt><trkpt lat="48.4101872799823" lon="-4.5149767451287115"><ele>34.0</ele><time>2026-04-18T15:44:12Z</time></trkpt><trkpt lat="48.410223669411494" lon="-4.515070011395649"><ele>34.0</ele><time>2026-04-18T15:44:15Z</time></trkpt><trkpt lat="48.410268733963605" lon="-4.5151831771622835"><ele>34.0</ele><time>2026-04-18T15:44:19Z</time></trkpt><trkpt lat="48.41030750533454" lon="-4.51528770873202"><ele>34.0</ele><time>2026-04-18T15:44:21Z</time></trkpt><trkpt lat="48.41034595977365" lon="-4.515406083990111"><ele>34.0</ele><time>2026-04-18T15:44:23Z</time></trkpt><trkpt lat="48.41039156938238" lon="-4.51553051670763"><ele>34.6</ele><time>2026-04-18T15:44:25Z</time></trkpt><trkpt lat="48.41043604017481" lon="-4.515656877341664"><ele>35.2</ele><time>2026-04-18T15:44:27Z</time></trkpt><trkpt lat="48.41047174618795" lon="-4.515796781647098"><ele>35.800000000000004</ele><time>2026-04-18T15:44:29Z</time></trkpt><trkpt lat="48.41050477554186" lon="-4.51594183571586"><ele>36.4</ele><time>2026-04-18T15:44:31Z</time></trkpt><trkpt lat="48.410541653479065" lon="-4.516112446806918"><ele>37.0</ele><time>2026-04-18T15:44:33Z</time></trkpt><trkpt lat="48.41055807678102" lon="-4.516204455244079"><ele>35.42857142857143</ele><time>2026-04-18T15:44:34Z</time></trkpt><trkpt lat="48.41057348809617" lon="-4.516300467520086"><ele>33.857142857142854</ele><time>2026-04-18T15:44:35Z</time></trkpt><trkpt lat="48.41058551673943" lon="-4.5164103191231035"><ele>32.285714285714285</ele><time>2026-04-18T15:44:36Z</time></trkpt><trkpt lat="48.410599396711696" lon="-4.516518350826129"><ele>30.714285714285715</ele><time>2026-04-18T15:44:37Z</time></trkpt><trkpt lat="48.410616215192306" lon="-4.516635217661148"><ele>29.142857142857146</ele><time>2026-04-18T15:44:38Z</time></trkpt><trkpt lat="48.41062223571757" lon="-4.516746523738747"><ele>27.57142857142857</ele><time>2026-04-18T15:44:39Z</time></trkpt><trkpt lat="48.410626084132915" lon="-4.516864976938659"><ele>26.0</ele><time>2026-04-18T15:44:40Z</time></trkpt><trkpt lat="48.41062584099991" lon="-4.51698377441529"><ele>25.499999999999996</ele><time>2026-04-18T15:44:41Z</time></trkpt><trkpt lat="48.410629997009316" lon="-4.517112037540383"><ele>25.0</ele><time>2026-04-18T15:44:42Z</time></trkpt><trkpt lat="48.410622011459445" lon="-4.517233437782784"><ele>24.5</ele><time>2026-04-18T15:44:43Z</time></trkpt><trkpt lat="48.41061469931353" lon="-4.517363550283243"><ele>24.0</ele><time>2026-04-18T15:44:44Z</time></trkpt><trkpt lat="48.410603782665845" lon="-4.517504047198085"><ele>23.5</ele><time>2026-04-18T15:44:45Z</time></trkpt><trkpt lat="48.410591965029006" lon="-4.5176373601455815"><ele>23.0</ele><time>2026-04-18T15:44:46Z</time></trkpt><trkpt lat="48.41058657553249" lon="-4.517778041416973"><ele>21.599999999999998</ele><time>2026-04-18T15:44:47Z</time></trkpt><trkpt lat="48.41057318673765" lon="-4.517906904161867"><ele>20.2</ele><time>2026-04-18T15:44:48Z</time></trkpt><trkpt lat="48.41056035392287" lon="-4.518041453610917"><ele>18.8</ele><time>2026-04-18T15:44:49Z</time></trkpt><trkpt lat="48.410543312709954" lon="-4.518173943285049"><ele>17.4</ele><time>2026-04-18T15:44:50Z</time></trkpt><trkpt lat="48.41053203686895" lon="-4.518318220697211"><ele>16.0</ele><time>2026-04-18T15:44:51Z</time></trkpt><trkpt lat="48.41052791023888" lon="-4.518468530740093"><ele>16.0</ele><time>2026-04-18T15:44:52Z</time></trkpt><trkpt lat="48.410516642637894" lon="-4.51861770742298"><ele>16.0</ele><time>2026-04-18T15:44:53Z</time></trkpt><trkpt lat="48.4104980592199" lon="-4.518764437829532"><ele>16.0</ele><time>2026-04-18T15:44:54Z</time></trkpt><trkpt lat="48.41048623864437" lon="-4.518911604251819"><ele>16.0</ele><time>2026-04-18T15:44:55Z</time></trkpt><trkpt lat="48.41047980218423" lon="-4.519066436001517"><ele>16.0</ele><time>2026-04-18T15:44:56Z</time></trkpt><trkpt lat="48.410474701931975" lon="-4.519217876592224"><ele>16.400000000000002</ele><time>2026-04-18T15:44:57Z</time></trkpt><trkpt lat="48.410458139978545" lon="-4.519365475173593"><ele>16.8</ele><time>2026-04-18T15:44:58Z</time></trkpt><trkpt lat="48.41045137823526" lon="-4.519520701660476"><ele>17.200000000000003</ele><time>2026-04-18T15:44:59Z</time></trkpt><trkpt lat="48.41043420791662" lon="-4.519669976083212"><ele>17.6</ele><time>2026-04-18T15:45:00Z</time></trkpt><trkpt lat="48.410425220253614" lon="-4.519823404577593"><ele>18.0</ele><time>2026-04-18T15:45:01Z</time></trkpt><trkpt lat="48.41042050642057" lon="-4.519987832250679"><ele>18.0</ele><time>2026-04-18T15:45:02Z</time></trkpt><trkpt lat="48.41040683762576" lon="-4.520139634847515"><ele>18.0</ele><time>2026-04-18T15:45:03Z</time></trkpt><trkpt lat="48.410389481363424" lon="-4.520286213851332"><ele>18.0</ele><time>2026-04-18T15:45:04Z</time></trkpt><trkpt lat="48.4103776347574" lon="-4.520424168278199"><ele>18.0</ele><time>2026-04-18T15:45:05Z</time></trkpt><trkpt lat="48.41037893682183" lon="-4.520568297457989"><ele>18.0</ele><time>2026-04-18T15:45:06Z</time></trkpt><trkpt lat="48.410366390289965" lon="-4.520697279933342"><ele>17.166666666666668</ele><time>2026-04-18T15:45:07Z</time></trkpt><trkpt lat="48.410355434169134" lon="-4.520824026990408"><ele>16.333333333333332</ele><time>2026-04-18T15:45:08Z</time></trkpt><trkpt lat="48.41035235151125" lon="-4.520943191780465"><ele>15.5</ele><time>2026-04-18T15:45:09Z</time></trkpt><trkpt lat="48.41034455443605" lon="-4.521051453610934"><ele>14.666666666666666</ele><time>2026-04-18T15:45:10Z</time></trkpt><trkpt lat="48.41033406167849" lon="-4.521162088855026"><ele>13.833333333333332</ele><time>2026-04-18T15:45:11Z</time></trkpt><trkpt lat="48.41032678718634" lon="-4.52126370608367"><ele>13.0</ele><time>2026-04-18T15:45:12Z</time></trkpt><trkpt lat="48.410310850422306" lon="-4.52143693465581"><ele>12.833333333333332</ele><time>2026-04-18T15:45:14Z</time></trkpt><trkpt lat="48.410299068901494" lon="-4.521570054461797"><ele>12.666666666666666</ele><time>2026-04-18T15:45:16Z</time></trkpt><trkpt lat="48.41028826952062" lon="-4.5216796133384145"><ele>12.5</ele><time>2026-04-18T15:45:18Z</time></trkpt><trkpt lat="48.41028411053332" lon="-4.521780801687483"><ele>12.333333333333332</ele><time>2026-04-18T15:45:24Z</time></trkpt><trkpt lat="48.41027659984265" lon="-4.521901792491299"><ele>12.166666666666666</ele><time>2026-04-18T15:45:28Z</time></trkpt><trkpt lat="48.4102672501512" lon="-4.5220030946781336"><ele>12.0</ele><time>2026-04-18T15:45:30Z</time></trkpt><trkpt lat="48.41026055675643" lon="-4.522121971646791"><ele>11.0</ele><time>2026-04-18T15:45:32Z</time></trkpt><trkpt lat="48.4102410512343" lon="-4.522271491277898"><ele>10.0</ele><time>2026-04-18T15:45:34Z</time></trkpt><trkpt lat="48.41022681795191" lon="-4.5224464585475515"><ele>9.0</ele><time>2026-04-18T15:45:36Z</time></trkpt><trkpt lat="48.410207987241556" lon="-4.522624296000934"><ele>8.0</ele><time>2026-04-18T15:45:38Z</time></trkpt><trkpt lat="48.41019508485824" lon="-4.522811691600829"><ele>7.800000000000001</ele><time>2026-04-18T15:45:40Z</time></trkpt><trkpt lat="48.41017795273762" lon="-4.522997744081292"><ele>7.6000000000000005</ele><time>2026-04-18T15:45:42Z</time></trkpt><trkpt lat="48.41017438662425" lon="-4.5230945094832515"><ele>7.3999999999999995</ele><time>2026-04-18T15:45:43Z</time></trkpt><trkpt lat="48.41016302483822" lon="-4.523284126898801"><ele>7.199999999999999</ele><time>2026-04-18T15:45:45Z</time></trkpt><trkpt lat="48.410143962406906" lon="-4.523468432472111"><ele>7.0</ele><time>2026-04-18T15:45:47Z</time></trkpt><trkpt lat="48.41013369124294" lon="-4.523647447627667"><ele>7.5</ele><time>2026-04-18T15:45:49Z</time></trkpt><trkpt lat="48.41011643358775" lon="-4.523825955564922"><ele>8.0</ele><time>2026-04-18T15:45:51Z</time></trkpt><trkpt lat="48.410111374790546" lon="-4.524001486847279"><ele>8.5</ele><time>2026-04-18T15:45:53Z</time></trkpt><trkpt lat="48.41011096448086" lon="-4.524181151294986"><ele>9.0</ele><time>2026-04-18T15:45:55Z</time></trkpt><trkpt lat="48.41011673332161" lon="-4.5243562868888985"><ele>9.0</ele><time>2026-04-18T15:45:57Z</time></trkpt><trkpt lat="48.41013783300125" lon="-4.524532594966414"><ele>9.0</ele><time>2026-04-18T15:45:59Z</time></trkpt><trkpt lat="48.4101644418713" lon="-4.524701197790627"><ele>9.0</ele><time>2026-04-18T15:46:01Z</time></trkpt><trkpt lat="48.41019762145988" lon="-4.524860217588694"><ele>9.0</ele><time>2026-04-18T15:46:03Z</time></trkpt><trkpt lat="48.410242625380825" lon="-4.525009095410371"><ele>8.75</ele><time>2026-04-18T15:46:05Z</time></trkpt><trkpt lat="48.41028716398665" lon="-4.525163386377484"><ele>8.5</ele><time>2026-04-18T15:46:07Z</time></trkpt><trkpt lat="48.41035089491274" lon="-4.525313470323393"><ele>8.25</ele><time>2026-04-18T15:46:09Z</time></trkpt><trkpt lat="48.41042245976901" lon="-4.525455625590367"><ele>8.0</ele><time>2026-04-18T15:46:11Z</time></trkpt><trkpt lat="48.41050218782881" lon="-4.525590619496012"><ele>8.833333333333332</ele><time>2026-04-18T15:46:13Z</time></trkpt><trkpt lat="48.410584729213376" lon="-4.525730630268398"><ele>9.666666666666666</ele><time>2026-04-18T15:46:15Z</time></trkpt><trkpt lat="48.41062554247535" lon="-4.525803087630926"><ele>10.5</ele><time>2026-04-18T15:46:16Z</time></trkpt><trkpt lat="48.41071267812023" lon="-4.525938414897375"><ele>11.333333333333332</ele><time>2026-04-18T15:46:18Z</time></trkpt><trkpt lat="48.41075971388458" lon="-4.526004137129163"><ele>12.166666666666666</ele><time>2026-04-18T15:46:19Z</time></trkpt><trkpt lat="48.41080052114399" lon="-4.52608133628877"><ele>13.0</ele><time>2026-04-18T15:46:20Z</time></trkpt><trkpt lat="48.41084697440343" lon="-4.526151104635987"><ele>13.0</ele><time>2026-04-18T15:46:21Z</time></trkpt><trkpt lat="48.410892335573585" lon="-4.526220795665505"><ele>13.0</ele><time>2026-04-18T15:46:22Z</time></trkpt><trkpt lat="48.41093888823693" lon="-4.526293788226595"><ele>13.0</ele><time>2026-04-18T15:46:23Z</time></trkpt><trkpt lat="48.41098401877899" lon="-4.5263674515544015"><ele>13.0</ele><time>2026-04-18T15:46:24Z</time></trkpt><trkpt lat="48.411029814059525" lon="-4.526440196525849"><ele>13.0</ele><time>2026-04-18T15:46:25Z</time></trkpt><trkpt lat="48.41107209787382" lon="-4.526517781908291"><ele>13.0</ele><time>2026-04-18T15:46:26Z</time></trkpt><trkpt lat="48.41111755228945" lon="-4.526595146656354"><ele>13.0</ele><time>2026-04-18T15:46:27Z</time></trkpt><trkpt lat="48.41116137058311" lon="-4.526673048504603"><ele>12.499999999999998</ele><time>2026-04-18T15:46:28Z</time></trkpt><trkpt lat="48.41120226047572" lon="-4.526754803084633"><ele>12.0</ele><time>2026-04-18T15:46:29Z</time></trkpt><trkpt lat="48.41124021574489" lon="-4.526836194471064"><ele>11.5</ele><time>2026-04-18T15:46:30Z</time></trkpt><trkpt lat="48.411274779899074" lon="-4.526921816439351"><ele>11.0</ele><time>2026-04-18T15:46:31Z</time></trkpt><trkpt lat="48.41130509653274" lon="-4.527011175485985"><ele>10.5</ele><time>2026-04-18T15:46:32Z</time></trkpt><trkpt lat="48.411332126782604" lon="-4.5270969250252655"><ele>10.0</ele><time>2026-04-18T15:46:33Z</time></trkpt><trkpt lat="48.411373373101014" lon="-4.527272300561082"><ele>10.0</ele><time>2026-04-18T15:46:35Z</time></trkpt><trkpt lat="48.41141464575866" lon="-4.527439634390982"><ele>10.0</ele><time>2026-04-18T15:46:37Z</time></trkpt><trkpt lat="48.411449608290795" lon="-4.527597868754144"><ele>10.0</ele><time>2026-04-18T15:46:39Z</time></trkpt><trkpt lat="48.41148076428093" lon="-4.527746283480448"><ele>10.0</ele><time>2026-04-18T15:46:41Z</time></trkpt><trkpt lat="48.41150621739965" lon="-4.527895476101831"><ele>10.0</ele><time>2026-04-18T15:46:43Z</time></trkpt><trkpt lat="48.41152192810901" lon="-4.528041217652602"><ele>10.5</ele><time>2026-04-18T15:46:45Z</time></trkpt><trkpt lat="48.41153583385063" lon="-4.528187885406612"><ele>11.0</ele><time>2026-04-18T15:46:47Z</time></trkpt><trkpt lat="48.41155224906097" lon="-4.5283222771662865"><ele>11.5</ele><time>2026-04-18T15:46:49Z</time></trkpt><trkpt lat="48.41156209723787" lon="-4.528451783814427"><ele>12.0</ele><time>2026-04-18T15:46:51Z</time></trkpt><trkpt lat="48.411575782234166" lon="-4.528581893948434"><ele>12.499999999999998</ele><time>2026-04-18T15:46:53Z</time></trkpt><trkpt lat="48.41158242223018" lon="-4.528704822085595"><ele>13.0</ele><time>2026-04-18T15:46:55Z</time></trkpt><trkpt lat="48.41158847124439" lon="-4.528820132109256"><ele>13.428571428571427</ele><time>2026-04-18T15:46:57Z</time></trkpt><trkpt lat="48.41159287011508" lon="-4.528918531629872"><ele>13.857142857142858</ele><time>2026-04-18T15:46:59Z</time></trkpt><trkpt lat="48.41159631076293" lon="-4.52902307751018"><ele>14.285714285714285</ele><time>2026-04-18T15:47:01Z</time></trkpt><trkpt lat="48.411589861112944" lon="-4.529126835452909"><ele>14.714285714285714</ele><time>2026-04-18T15:47:03Z</time></trkpt><trkpt lat="48.4115839257507" lon="-4.529227033307391"><ele>15.142857142857142</ele><time>2026-04-18T15:47:05Z</time></trkpt><trkpt lat="48.41157776997899" lon="-4.529326207041063"><ele>15.571428571428571</ele><time>2026-04-18T15:47:07Z</time></trkpt><trkpt lat="48.41155819953473" lon="-4.529470638439253"><ele>16.0</ele><time>2026-04-18T15:47:10Z</time></trkpt><trkpt lat="48.411546776528176" lon="-4.529565165887664"><ele>16.285714285714285</ele><time>2026-04-18T15:47:12Z</time></trkpt><trkpt lat="48.411535866480065" lon="-4.529665447651726"><ele>16.57142857142857</ele><time>2026-04-18T15:47:14Z</time></trkpt><trkpt lat="48.411526537886424" lon="-4.529762260180182"><ele>16.857142857142858</ele><time>2026-04-18T15:47:16Z</time></trkpt><trkpt lat="48.411513613233794" lon="-4.529856759163236"><ele>17.142857142857142</ele><time>2026-04-18T15:47:18Z</time></trkpt><trkpt lat="48.411496823162096" lon="-4.529948261911765"><ele>17.42857142857143</ele><time>2026-04-18T15:47:20Z</time></trkpt><trkpt lat="48.41147360224825" lon="-4.530078427284148"><ele>17.714285714285715</ele><time>2026-04-18T15:47:23Z</time></trkpt><trkpt lat="48.41144641607159" lon="-4.530168275116331"><ele>18.0</ele><time>2026-04-18T15:47:25Z</time></trkpt><trkpt lat="48.41141521640565" lon="-4.5302946337865215"><ele>18.42857142857143</ele><time>2026-04-18T15:47:28Z</time></trkpt><trkpt lat="48.41138924952882" lon="-4.530418578664921"><ele>18.857142857142858</ele><time>2026-04-18T15:47:31Z</time></trkpt><trkpt lat="48.4113604268519" lon="-4.530506918137801"><ele>19.285714285714285</ele><time>2026-04-18T15:47:33Z</time></trkpt><trkpt lat="48.41133050309744" lon="-4.530599543270477"><ele>19.714285714285715</ele><time>2026-04-18T15:47:35Z</time></trkpt><trkpt lat="48.411291096239424" lon="-4.530682326064694"><ele>20.142857142857142</ele><time>2026-04-18T15:47:37Z</time></trkpt><trkpt lat="48.41126394720467" lon="-4.530768747305618"><ele>20.571428571428573</ele><time>2026-04-18T15:47:39Z</time></trkpt><trkpt lat="48.41122562161182" lon="-4.530852927970501"><ele>21.0</ele><time>2026-04-18T15:47:41Z</time></trkpt><trkpt lat="48.4111826830066" lon="-4.530934257921802"><ele>21.285714285714285</ele><time>2026-04-18T15:47:43Z</time></trkpt><trkpt lat="48.411135078954906" lon="-4.531011762695183"><ele>21.57142857142857</ele><time>2026-04-18T15:47:45Z</time></trkpt><trkpt lat="48.41109195550838" lon="-4.531093109854995"><ele>21.857142857142858</ele><time>2026-04-18T15:47:47Z</time></trkpt><trkpt lat="48.41104599079919" lon="-4.531168226879691"><ele>22.142857142857142</ele><time>2026-04-18T15:47:49Z</time></trkpt><trkpt lat="48.4110005825628" lon="-4.531242750996151"><ele>22.428571428571427</ele><time>2026-04-18T15:47:51Z</time></trkpt><trkpt lat="48.41095762217093" lon="-4.531319258227625"><ele>22.714285714285715</ele><time>2026-04-18T15:47:53Z</time></trkpt><trkpt lat="48.410917146656644" lon="-4.531397954296511"><ele>23.0</ele><time>2026-04-18T15:47:55Z</time></trkpt><trkpt lat="48.410873051639804" lon="-4.53147598837714"><ele>23.42857142857143</ele><time>2026-04-18T15:47:57Z</time></trkpt><trkpt lat="48.41082784803422" lon="-4.531557765663158"><ele>23.857142857142854</ele><time>2026-04-18T15:47:59Z</time></trkpt><trkpt lat="48.410785049261705" lon="-4.531643447078063"><ele>24.285714285714285</ele><time>2026-04-18T15:48:01Z</time></trkpt><trkpt lat="48.41073778765834" lon="-4.531717750429011"><ele>24.714285714285715</ele><time>2026-04-18T15:48:03Z</time></trkpt><trkpt lat="48.4106956750513" lon="-4.531795772482816"><ele>25.142857142857146</ele><time>2026-04-18T15:48:05Z</time></trkpt><trkpt lat="48.41065373356786" lon="-4.531876798928699"><ele>25.57142857142857</ele><time>2026-04-18T15:48:07Z</time></trkpt><trkpt lat="48.41061203449776" lon="-4.531956315614359"><ele>26.0</ele><time>2026-04-18T15:48:09Z</time></trkpt><trkpt lat="48.41056974765583" lon="-4.532041362272225"><ele>26.142857142857142</ele><time>2026-04-18T15:48:11Z</time></trkpt><trkpt lat="48.41052852998661" lon="-4.532118806300543"><ele>26.28571428571429</ele><time>2026-04-18T15:48:13Z</time></trkpt><trkpt lat="48.41047921490587" lon="-4.532187081620578"><ele>26.42857142857143</ele><time>2026-04-18T15:48:15Z</time></trkpt><trkpt lat="48.410419824730454" lon="-4.5322463360645795"><ele>26.57142857142857</ele><time>2026-04-18T15:48:18Z</time></trkpt><trkpt lat="48.410423471448915" lon="-4.532342164750483"><ele>26.714285714285715</ele><time>2026-04-18T15:48:21Z</time></trkpt><trkpt lat="48.41038456173367" lon="-4.532432388808583"><ele>26.857142857142858</ele><time>2026-04-18T15:48:24Z</time></trkpt><trkpt lat="48.410309990766734" lon="-4.532445116129113"><ele>27.0</ele><time>2026-04-18T15:48:27Z</time></trkpt><trkpt lat="48.41024495725719" lon="-4.53246626386263"><ele>27.0</ele><time>2026-04-18T15:48:29Z</time></trkpt><trkpt lat="48.41018367926046" lon="-4.532520997730542"><ele>27.0</ele><time>2026-04-18T15:48:31Z</time></trkpt><trkpt lat="48.41011501283421" lon="-4.532542496262233"><ele>27.0</ele><time>2026-04-18T15:48:33Z</time></trkpt><trkpt lat="48.41003996398648" lon="-4.5325275041074065"><ele>27.0</ele><time>2026-04-18T15:48:35Z</time></trkpt><trkpt lat="48.40997029665054" lon="-4.532489678110136"><ele>27.0</ele><time>2026-04-18T15:48:37Z</time></trkpt><trkpt lat="48.40990745256064" lon="-4.532423741884611"><ele>27.0</ele><time>2026-04-18T15:48:39Z</time></trkpt><trkpt lat="48.409831840595025" lon="-4.5323892081929955"><ele>27.0</ele><time>2026-04-18T15:48:41Z</time></trkpt><trkpt lat="48.4097537949421" lon="-4.532413954144939"><ele>27.0</ele><time>2026-04-18T15:48:43Z</time></trkpt><trkpt lat="48.409696286569684" lon="-4.532473778966454"><ele>27.0</ele><time>2026-04-18T15:48:45Z</time></trkpt><trkpt lat="48.4096617566726" lon="-4.532561968432764"><ele>27.0</ele><time>2026-04-18T15:48:47Z</time></trkpt><trkpt lat="48.40962162666323" lon="-4.532662930025815"><ele>27.0</ele><time>2026-04-18T15:48:49Z</time></trkpt><trkpt lat="48.4095740316733" lon="-4.5327772139140174"><ele>27.0</ele><time>2026-04-18T15:48:51Z</time></trkpt><trkpt lat="48.40951590109977" lon="-4.532926151222841"><ele>27.0</ele><time>2026-04-18T15:48:53Z</time></trkpt><trkpt lat="48.4094857879542" lon="-4.533019293694914"><ele>26.5</ele><time>2026-04-18T15:48:54Z</time></trkpt><trkpt lat="48.40945192008734" lon="-4.53311444428873"><ele>26.0</ele><time>2026-04-18T15:48:55Z</time></trkpt><trkpt lat="48.40941000748422" lon="-4.53321526237266"><ele>25.5</ele><time>2026-04-18T15:48:56Z</time></trkpt><trkpt lat="48.4093715760714" lon="-4.533321675750721"><ele>25.0</ele><time>2026-04-18T15:48:57Z</time></trkpt><trkpt lat="48.40933539858078" lon="-4.533429167617571"><ele>24.5</ele><time>2026-04-18T15:48:58Z</time></trkpt><trkpt lat="48.40930108529058" lon="-4.533542524298955"><ele>24.0</ele><time>2026-04-18T15:48:59Z</time></trkpt><trkpt lat="48.409267020305066" lon="-4.533645609747047"><ele>24.0</ele><time>2026-04-18T15:49:00Z</time></trkpt><trkpt lat="48.409224892958626" lon="-4.533758970736982"><ele>24.0</ele><time>2026-04-18T15:49:01Z</time></trkpt><trkpt lat="48.40918975472188" lon="-4.533868043039285"><ele>24.0</ele><time>2026-04-18T15:49:02Z</time></trkpt><trkpt lat="48.40916165275023" lon="-4.533981238493296"><ele>24.0</ele><time>2026-04-18T15:49:03Z</time></trkpt><trkpt lat="48.40914572382209" lon="-4.534099147428404"><ele>24.0</ele><time>2026-04-18T15:49:04Z</time></trkpt><trkpt lat="48.40913313738972" lon="-4.534209953810817"><ele>24.0</ele><time>2026-04-18T15:49:05Z</time></trkpt><trkpt lat="48.409122966804226" lon="-4.53431816170327"><ele>23.999999999999996</ele><time>2026-04-18T15:49:06Z</time></trkpt><trkpt lat="48.40910667929312" lon="-4.534423696424279"><ele>24.0</ele><time>2026-04-18T15:49:07Z</time></trkpt><trkpt lat="48.40908907929847" lon="-4.534525198782969"><ele>24.0</ele><time>2026-04-18T15:49:08Z</time></trkpt><trkpt lat="48.40907012093443" lon="-4.534624018835329"><ele>24.0</ele><time>2026-04-18T15:49:09Z</time></trkpt><trkpt lat="48.40904902211963" lon="-4.534716132322109"><ele>24.0</ele><time>2026-04-18T15:49:10Z</time></trkpt><trkpt lat="48.409022918165675" lon="-4.534810391206682"><ele>23.999999999999996</ele><time>2026-04-18T15:49:11Z</time></trkpt><trkpt lat="48.408988044979" lon="-4.534898398919101"><ele>24.0</ele><time>2026-04-18T15:49:12Z</time></trkpt><trkpt lat="48.40894867125164" lon="-4.534984157032555"><ele>24.285714285714285</ele><time>2026-04-18T15:49:13Z</time></trkpt><trkpt lat="48.408902401757615" lon="-4.535065934907918"><ele>24.57142857142857</ele><time>2026-04-18T15:49:14Z</time></trkpt><trkpt lat="48.40885363125469" lon="-4.535137429085817"><ele>24.857142857142854</ele><time>2026-04-18T15:49:15Z</time></trkpt><trkpt lat="48.408799987703716" lon="-4.535210257526988"><ele>25.142857142857142</ele><time>2026-04-18T15:49:16Z</time></trkpt><trkpt lat="48.408744400228166" lon="-4.5352819169410665"><ele>25.42857142857143</ele><time>2026-04-18T15:49:17Z</time></trkpt><trkpt lat="48.408691964051684" lon="-4.5353391525488"><ele>25.71428571428571</ele><time>2026-04-18T15:49:18Z</time></trkpt><trkpt lat="48.408633755836" lon="-4.535391234034517"><ele>26.0</ele><time>2026-04-18T15:49:19Z</time></trkpt><trkpt lat="48.4085749942016" lon="-4.535434409663197"><ele>26.166666666666664</ele><time>2026-04-18T15:49:20Z</time></trkpt><trkpt lat="48.40851728040339" lon="-4.53548266956084"><ele>26.333333333333332</ele><time>2026-04-18T15:49:21Z</time></trkpt><trkpt lat="48.4084583403483" lon="-4.535525057913621"><ele>26.5</ele><time>2026-04-18T15:49:22Z</time></trkpt><trkpt lat="48.408399959337444" lon="-4.535564245303187"><ele>26.666666666666664</ele><time>2026-04-18T15:49:23Z</time></trkpt><trkpt lat="48.408293049725174" lon="-4.535638797303598"><ele>26.833333333333332</ele><time>2026-04-18T15:49:25Z</time></trkpt><trkpt lat="48.40823720048129" lon="-4.5356872355800055"><ele>27.0</ele><time>2026-04-18T15:49:26Z</time></trkpt><trkpt lat="48.40813175997508" lon="-4.535784144016177"><ele>27.0</ele><time>2026-04-18T15:49:28Z</time></trkpt><trkpt lat="48.408050376556915" lon="-4.535922105934674"><ele>27.000000000000004</ele><time>2026-04-18T15:49:30Z</time></trkpt><trkpt lat="48.40802034719091" lon="-4.536005503231881"><ele>27.000000000000004</ele><time>2026-04-18T15:49:31Z</time></trkpt><trkpt lat="48.40796673252663" lon="-4.5361566343357635"><ele>27.0</ele><time>2026-04-18T15:49:33Z</time></trkpt><trkpt lat="48.40791534258868" lon="-4.536307198968493"><ele>27.0</ele><time>2026-04-18T15:49:35Z</time></trkpt><trkpt lat="48.407859708502535" lon="-4.536446089199127"><ele>27.6</ele><time>2026-04-18T15:49:37Z</time></trkpt><trkpt lat="48.40780481900875" lon="-4.5365856858261395"><ele>28.200000000000003</ele><time>2026-04-18T15:49:39Z</time></trkpt><trkpt lat="48.40774763856646" lon="-4.536721958512548"><ele>28.8</ele><time>2026-04-18T15:49:41Z</time></trkpt><trkpt lat="48.4077001185381" lon="-4.536857863687444"><ele>29.4</ele><time>2026-04-18T15:49:43Z</time></trkpt><trkpt lat="48.40764547870856" lon="-4.536999388992149"><ele>30.0</ele><time>2026-04-18T15:49:45Z</time></trkpt><trkpt lat="48.407590005508176" lon="-4.537139097867806"><ele>30.0</ele><time>2026-04-18T15:49:47Z</time></trkpt><trkpt lat="48.407537429357355" lon="-4.537286585562925"><ele>30.0</ele><time>2026-04-18T15:49:49Z</time></trkpt><trkpt lat="48.40749111583146" lon="-4.537428633481031"><ele>30.0</ele><time>2026-04-18T15:49:51Z</time></trkpt><trkpt lat="48.40745888383676" lon="-4.537577964351272"><ele>30.0</ele><time>2026-04-18T15:49:53Z</time></trkpt><trkpt lat="48.40743915796579" lon="-4.537724882866534"><ele>30.0</ele><time>2026-04-18T15:49:55Z</time></trkpt><trkpt lat="48.40743051704864" lon="-4.537875491942433"><ele>30.0</ele><time>2026-04-18T15:49:57Z</time></trkpt><trkpt lat="48.40742088402443" lon="-4.538032433706853"><ele>30.0</ele><time>2026-04-18T15:49:59Z</time></trkpt><trkpt lat="48.40741341189037" lon="-4.538186140015784"><ele>30.0</ele><time>2026-04-18T15:50:01Z</time></trkpt><trkpt lat="48.40741609169715" lon="-4.538336325987878"><ele>30.0</ele><time>2026-04-18T15:50:03Z</time></trkpt><trkpt lat="48.40741357475703" lon="-4.538484986476738"><ele>30.0</ele><time>2026-04-18T15:50:05Z</time></trkpt><trkpt lat="48.407401863629126" lon="-4.538634713474643"><ele>30.6</ele><time>2026-04-18T15:50:07Z</time></trkpt><trkpt lat="48.40740110790666" lon="-4.5387826953101875"><ele>31.2</ele><time>2026-04-18T15:50:09Z</time></trkpt><trkpt lat="48.40739877629292" lon="-4.538922267479963"><ele>31.799999999999997</ele><time>2026-04-18T15:50:11Z</time></trkpt><trkpt lat="48.407384647888755" lon="-4.539074009809999"><ele>32.4</ele><time>2026-04-18T15:50:13Z</time></trkpt><trkpt lat="48.40738207533876" lon="-4.539226113872009"><ele>33.0</ele><time>2026-04-18T15:50:15Z</time></trkpt><trkpt lat="48.40737246596813" lon="-4.5393677348797326"><ele>33.0</ele><time>2026-04-18T15:50:17Z</time></trkpt><trkpt lat="48.40736229973409" lon="-4.53951491489555"><ele>33.0</ele><time>2026-04-18T15:50:19Z</time></trkpt><trkpt lat="48.40734860932723" lon="-4.539655549027349"><ele>33.0</ele><time>2026-04-18T15:50:21Z</time></trkpt><trkpt lat="48.40732078644188" lon="-4.539783281335248"><ele>33.0</ele><time>2026-04-18T15:50:23Z</time></trkpt><trkpt lat="48.407282325089504" lon="-4.5398969148374535"><ele>33.0</ele><time>2026-04-18T15:50:25Z</time></trkpt><trkpt lat="48.40724503838971" lon="-4.540008163195112"><ele>33.0</ele><time>2026-04-18T15:50:27Z</time></trkpt><trkpt lat="48.40720576641251" lon="-4.540121545458703"><ele>33.166666666666664</ele><time>2026-04-18T15:50:29Z</time></trkpt><trkpt lat="48.40716892291604" lon="-4.5402264993864225"><ele>33.333333333333336</ele><time>2026-04-18T15:50:31Z</time></trkpt><trkpt lat="48.407136734560375" lon="-4.540328078228815"><ele>33.5</ele><time>2026-04-18T15:50:33Z</time></trkpt><trkpt lat="48.40710227195473" lon="-4.54043806573879"><ele>33.66666666666667</ele><time>2026-04-18T15:50:35Z</time></trkpt><trkpt lat="48.40707057452046" lon="-4.540562736971641"><ele>33.833333333333336</ele><time>2026-04-18T15:50:37Z</time></trkpt><trkpt lat="48.40704703879451" lon="-4.540704029261025"><ele>34.0</ele><time>2026-04-18T15:50:39Z</time></trkpt><trkpt lat="48.40700752370275" lon="-4.54084485556058"><ele>34.0</ele><time>2026-04-18T15:50:41Z</time></trkpt><trkpt lat="48.40696748146708" lon="-4.540993367876247"><ele>34.0</ele><time>2026-04-18T15:50:43Z</time></trkpt><trkpt lat="48.40692458367765" lon="-4.541133877964748"><ele>34.0</ele><time>2026-04-18T15:50:45Z</time></trkpt><trkpt lat="48.40686709182932" lon="-4.541279261916029"><ele>34.0</ele><time>2026-04-18T15:50:47Z</time></trkpt><trkpt lat="48.40681900591629" lon="-4.541430425129977"><ele>34.0</ele><time>2026-04-18T15:50:49Z</time></trkpt><trkpt lat="48.40675966811315" lon="-4.541570199123773"><ele>33.75</ele><time>2026-04-18T15:50:51Z</time></trkpt><trkpt lat="48.406699380092306" lon="-4.541718936881008"><ele>33.5</ele><time>2026-04-18T15:50:53Z</time></trkpt><trkpt lat="48.40662254137687" lon="-4.541864221776891"><ele>33.25</ele><time>2026-04-18T15:50:55Z</time></trkpt><trkpt lat="48.40654644016164" lon="-4.541984413699892"><ele>33.0</ele><time>2026-04-18T15:50:57Z</time></trkpt><trkpt lat="48.40646227540579" lon="-4.542090603917826"><ele>33.0</ele><time>2026-04-18T15:50:59Z</time></trkpt><trkpt lat="48.406373168281576" lon="-4.542199489014411"><ele>33.0</ele><time>2026-04-18T15:51:01Z</time></trkpt><trkpt lat="48.40628168781156" lon="-4.542331744643401"><ele>33.0</ele><time>2026-04-18T15:51:03Z</time></trkpt><trkpt lat="48.40621951503398" lon="-4.5424877520309295"><ele>33.0</ele><time>2026-04-18T15:51:05Z</time></trkpt><trkpt lat="48.40618937186634" lon="-4.54257571394084"><ele>33.0</ele><time>2026-04-18T15:51:06Z</time></trkpt><trkpt lat="48.40614011336815" lon="-4.542741694808461"><ele>33.6</ele><time>2026-04-18T15:51:08Z</time></trkpt><trkpt lat="48.40609449405735" lon="-4.542890394261488"><ele>34.199999999999996</ele><time>2026-04-18T15:51:10Z</time></trkpt><trkpt lat="48.40605926603423" lon="-4.543047233291031"><ele>34.8</ele><time>2026-04-18T15:51:12Z</time></trkpt><trkpt lat="48.40602733491756" lon="-4.543214938200148"><ele>35.4</ele><time>2026-04-18T15:51:14Z</time></trkpt><trkpt lat="48.4059939417362" lon="-4.543360551140736"><ele>36.0</ele><time>2026-04-18T15:51:16Z</time></trkpt><trkpt lat="48.40596820042517" lon="-4.54351251050137"><ele>36.0</ele><time>2026-04-18T15:51:18Z</time></trkpt><trkpt lat="48.40593948737887" lon="-4.543667398712807"><ele>36.0</ele><time>2026-04-18T15:51:20Z</time></trkpt><trkpt lat="48.40589763942935" lon="-4.543828161643142"><ele>36.0</ele><time>2026-04-18T15:51:22Z</time></trkpt><trkpt lat="48.40585780553976" lon="-4.543979619939871"><ele>36.0</ele><time>2026-04-18T15:51:24Z</time></trkpt><trkpt lat="48.405815617831124" lon="-4.544104913857694"><ele>36.0</ele><time>2026-04-18T15:51:26Z</time></trkpt><trkpt lat="48.40576552990926" lon="-4.544242108011162"><ele>35.833333333333336</ele><time>2026-04-18T15:51:28Z</time></trkpt><trkpt lat="48.40573167677908" lon="-4.544363781217663"><ele>35.666666666666664</ele><time>2026-04-18T15:51:30Z</time></trkpt><trkpt lat="48.405688015898946" lon="-4.544479447918265"><ele>35.5</ele><time>2026-04-18T15:51:32Z</time></trkpt><trkpt lat="48.40565334533979" lon="-4.544595779808208"><ele>35.33333333333333</ele><time>2026-04-18T15:51:34Z</time></trkpt><trkpt lat="48.40562283896925" lon="-4.544720512500884"><ele>35.166666666666664</ele><time>2026-04-18T15:51:36Z</time></trkpt><trkpt lat="48.4055829195646" lon="-4.544835931466986"><ele>35.0</ele><time>2026-04-18T15:51:38Z</time></trkpt><trkpt lat="48.40554595538275" lon="-4.544965336965485"><ele>34.8</ele><time>2026-04-18T15:51:40Z</time></trkpt><trkpt lat="48.40551532777276" lon="-4.545118189909056"><ele>34.6</ele><time>2026-04-18T15:51:42Z</time></trkpt><trkpt lat="48.40549503246212" lon="-4.545277861375714"><ele>34.4</ele><time>2026-04-18T15:51:44Z</time></trkpt><trkpt lat="48.40547625371734" lon="-4.545424547326152"><ele>34.2</ele><time>2026-04-18T15:51:46Z</time></trkpt><trkpt lat="48.40545831391711" lon="-4.545576041559622"><ele>34.0</ele><time>2026-04-18T15:51:48Z</time></trkpt><trkpt lat="48.40542991361721" lon="-4.545715301904251"><ele>33.8</ele><time>2026-04-18T15:51:50Z</time></trkpt><trkpt lat="48.40541455304966" lon="-4.545847532299696"><ele>33.599999999999994</ele><time>2026-04-18T15:51:52Z</time></trkpt><trkpt lat="48.40538577251506" lon="-4.545988175477754"><ele>33.4</ele><time>2026-04-18T15:51:54Z</time></trkpt><trkpt lat="48.405362160642724" lon="-4.546118734249272"><ele>33.199999999999996</ele><time>2026-04-18T15:51:56Z</time></trkpt><trkpt lat="48.40533177210397" lon="-4.546271891378647"><ele>33.0</ele><time>2026-04-18T15:51:58Z</time></trkpt><trkpt lat="48.40528896834699" lon="-4.546403563401051"><ele>33.0</ele><time>2026-04-18T15:52:00Z</time></trkpt><trkpt lat="48.405229363167415" lon="-4.546522790625856"><ele>33.0</ele><time>2026-04-18T15:52:02Z</time></trkpt><trkpt lat="48.40512885536977" lon="-4.546622611519588"><ele>33.0</ele><time>2026-04-18T15:52:04Z</time></trkpt><trkpt lat="48.40504354275251" lon="-4.546718499572544"><ele>33.0</ele><time>2026-04-18T15:52:06Z</time></trkpt><trkpt lat="48.405046361115595" lon="-4.5468543778584225"><ele>33.0</ele><time>2026-04-18T15:52:08Z</time></trkpt><trkpt lat="48.40504707595406" lon="-4.547003155328505"><ele>33.0</ele><time>2026-04-18T15:52:10Z</time></trkpt><trkpt lat="48.40505787557794" lon="-4.5471441649548945"><ele>33.0</ele><time>2026-04-18T15:52:12Z</time></trkpt><trkpt lat="48.405047965877515" lon="-4.547280652426857"><ele>33.0</ele><time>2026-04-18T15:52:14Z</time></trkpt><trkpt lat="48.40502574551775" lon="-4.547414928627239"><ele>33.0</ele><time>2026-04-18T15:52:16Z</time></trkpt><trkpt lat="48.40499099048259" lon="-4.547538002691689"><ele>33.0</ele><time>2026-04-18T15:52:18Z</time></trkpt><trkpt lat="48.404959567718144" lon="-4.5476587447216525"><ele>33.0</ele><time>2026-04-18T15:52:20Z</time></trkpt><trkpt lat="48.40492255546437" lon="-4.5477750530926055"><ele>33.0</ele><time>2026-04-18T15:52:22Z</time></trkpt><trkpt lat="48.40488936032589" lon="-4.547890630123414"><ele>33.0</ele><time>2026-04-18T15:52:24Z</time></trkpt><trkpt lat="48.40485932981187" lon="-4.548002008473397"><ele>33.0</ele><time>2026-04-18T15:52:26Z</time></trkpt><trkpt lat="48.40483431120031" lon="-4.548112734752591"><ele>33.0</ele><time>2026-04-18T15:52:28Z</time></trkpt><trkpt lat="48.404792252278604" lon="-4.548212668185252"><ele>33.0</ele><time>2026-04-18T15:52:30Z</time></trkpt><trkpt lat="48.40477000274417" lon="-4.548315456728952"><ele>33.57142857142857</ele><time>2026-04-18T15:52:32Z</time></trkpt><trkpt lat="48.404747343545864" lon="-4.548430640428392"><ele>34.142857142857146</ele><time>2026-04-18T15:52:34Z</time></trkpt><trkpt lat="48.4047335139478" lon="-4.548548679801847"><ele>34.714285714285715</ele><time>2026-04-18T15:52:36Z</time></trkpt><trkpt lat="48.404724436482574" lon="-4.54866541838192"><ele>35.285714285714285</ele><time>2026-04-18T15:52:38Z</time></trkpt><trkpt lat="48.404719487785854" lon="-4.548777737255342"><ele>35.857142857142854</ele><time>2026-04-18T15:52:40Z</time></trkpt><trkpt lat="48.40472295846864" lon="-4.54888323548223"><ele>36.42857142857143</ele><time>2026-04-18T15:52:42Z</time></trkpt><trkpt lat="48.40472990957797" lon="-4.548983514944743"><ele>37.0</ele><time>2026-04-18T15:52:44Z</time></trkpt><trkpt lat="48.404739147009415" lon="-4.54908101610926"><ele>37.5</ele><time>2026-04-18T15:52:46Z</time></trkpt><trkpt lat="48.40475435625966" lon="-4.549176462287823"><ele>38.0</ele><time>2026-04-18T15:52:48Z</time></trkpt><trkpt lat="48.40476835299543" lon="-4.549271226563326"><ele>38.5</ele><time>2026-04-18T15:52:50Z</time></trkpt><trkpt lat="48.40478606505562" lon="-4.549410077876016"><ele>39.0</ele><time>2026-04-18T15:52:53Z</time></trkpt><trkpt lat="48.40480219985598" lon="-4.549550762344643"><ele>39.5</ele><time>2026-04-18T15:52:56Z</time></trkpt><trkpt lat="48.40483326615618" lon="-4.549686407660743"><ele>40.0</ele><time>2026-04-18T15:52:59Z</time></trkpt><trkpt lat="48.40485631152733" lon="-4.549825011494031"><ele>40.333333333333336</ele><time>2026-04-18T15:53:02Z</time></trkpt><trkpt lat="48.404870824556795" lon="-4.549917464731697"><ele>40.66666666666667</ele><time>2026-04-18T15:53:04Z</time></trkpt><trkpt lat="48.404894908727336" lon="-4.55004898786507"><ele>41.0</ele><time>2026-04-18T15:53:07Z</time></trkpt><trkpt lat="48.40491742307401" lon="-4.550175560663703"><ele>41.333333333333336</ele><time>2026-04-18T15:53:10Z</time></trkpt><trkpt lat="48.40493696623741" lon="-4.550309527921479"><ele>41.666666666666664</ele><time>2026-04-18T15:53:13Z</time></trkpt><trkpt lat="48.40496575367665" lon="-4.550437408947011"><ele>42.0</ele><time>2026-04-18T15:53:16Z</time></trkpt><trkpt lat="48.40498878209778" lon="-4.550571829943137"><ele>42.166666666666664</ele><time>2026-04-18T15:53:19Z</time></trkpt><trkpt lat="48.40501212748328" lon="-4.5507036392569145"><ele>42.333333333333336</ele><time>2026-04-18T15:53:22Z</time></trkpt><trkpt lat="48.405031271302825" lon="-4.550795815357757"><ele>42.5</ele><time>2026-04-18T15:53:24Z</time></trkpt><trkpt lat="48.40505141045541" lon="-4.550887629070859"><ele>42.66666666666667</ele><time>2026-04-18T15:53:26Z</time></trkpt><trkpt lat="48.40509179773903" lon="-4.551008868301683"><ele>42.833333333333336</ele><time>2026-04-18T15:53:29Z</time></trkpt><trkpt lat="48.40514309333054" lon="-4.551121277182693"><ele>43.0</ele><time>2026-04-18T15:53:32Z</time></trkpt><trkpt lat="48.40520365299592" lon="-4.5512165775117515"><ele>43.0</ele><time>2026-04-18T15:53:35Z</time></trkpt><trkpt lat="48.405270898092084" lon="-4.551294373654945"><ele>43.0</ele><time>2026-04-18T15:53:38Z</time></trkpt><trkpt lat="48.405349458780314" lon="-4.551365145862964"><ele>43.0</ele><time>2026-04-18T15:53:41Z</time></trkpt><trkpt lat="48.40543675289697" lon="-4.551411446438958"><ele>43.0</ele><time>2026-04-18T15:53:44Z</time></trkpt><trkpt lat="48.40552110478773" lon="-4.55144086122233"><ele>43.0</ele><time>2026-04-18T15:53:47Z</time></trkpt><trkpt lat="48.405613616440796" lon="-4.551469872245703"><ele>43.833333333333336</ele><time>2026-04-18T15:53:50Z</time></trkpt><trkpt lat="48.4057066175969" lon="-4.551503614131289"><ele>44.66666666666667</ele><time>2026-04-18T15:53:53Z</time></trkpt><trkpt lat="48.40580141058587" lon="-4.551526646268386"><ele>45.5</ele><time>2026-04-18T15:53:56Z</time></trkpt><trkpt lat="48.405892674330026" lon="-4.551549257882725"><ele>46.333333333333336</ele><time>2026-04-18T15:53:59Z</time></trkpt><trkpt lat="48.405962906895866" lon="-4.551559570097979"><ele>47.166666666666664</ele><time>2026-04-18T15:54:01Z</time></trkpt><trkpt lat="48.40602839377876" lon="-4.551575153006487"><ele>48.0</ele><time>2026-04-18T15:54:03Z</time></trkpt><trkpt lat="48.40609189416708" lon="-4.5515877731030905"><ele>48.0</ele><time>2026-04-18T15:54:05Z</time></trkpt><trkpt lat="48.406157781911915" lon="-4.5515905909039684"><ele>48.0</ele><time>2026-04-18T15:54:07Z</time></trkpt><trkpt lat="48.406250804307014" lon="-4.551600896913797"><ele>48.0</ele><time>2026-04-18T15:54:10Z</time></trkpt><trkpt lat="48.40633849083964" lon="-4.551594891974609"><ele>48.0</ele><time>2026-04-18T15:54:13Z</time></trkpt><trkpt lat="48.40640226003899" lon="-4.551601183336963"><ele>48.0</ele><time>2026-04-18T15:54:15Z</time></trkpt><trkpt lat="48.40647587822909" lon="-4.551614848250494"><ele>48.0</ele><time>2026-04-18T15:54:17Z</time></trkpt><trkpt lat="48.40656808033989" lon="-4.551622027916269"><ele>49.0</ele><time>2026-04-18T15:54:20Z</time></trkpt><trkpt lat="48.406635777704565" lon="-4.551616579689992"><ele>50.0</ele><time>2026-04-18T15:54:22Z</time></trkpt><trkpt lat="48.4067011524726" lon="-4.55162152750081"><ele>51.0</ele><time>2026-04-18T15:54:24Z</time></trkpt><trkpt lat="48.40676938167528" lon="-4.551617065238784"><ele>52.0</ele><time>2026-04-18T15:54:26Z</time></trkpt><trkpt lat="48.40685586620804" lon="-4.551618129524052"><ele>53.0</ele><time>2026-04-18T15:54:29Z</time></trkpt><trkpt lat="48.40693983009991" lon="-4.55163537780889"><ele>54.0</ele><time>2026-04-18T15:54:32Z</time></trkpt><trkpt lat="48.407025135074846" lon="-4.551667915087603"><ele>54.0</ele><time>2026-04-18T15:54:35Z</time></trkpt><trkpt lat="48.40708810941735" lon="-4.551688871941979"><ele>54.0</ele><time>2026-04-18T15:54:37Z</time></trkpt><trkpt lat="48.40716299550309" lon="-4.5517399787613835"><ele>54.0</ele><time>2026-04-18T15:54:40Z</time></trkpt><trkpt lat="48.40723603855055" lon="-4.551799896544479"><ele>54.0</ele><time>2026-04-18T15:54:43Z</time></trkpt><trkpt lat="48.40730384089757" lon="-4.551861739545352"><ele>54.0</ele><time>2026-04-18T15:54:46Z</time></trkpt><trkpt lat="48.40737207811764" lon="-4.551927016794938"><ele>54.0</ele><time>2026-04-18T15:54:49Z</time></trkpt><trkpt lat="48.40744047376818" lon="-4.551989169295552"><ele>54.666666666666664</ele><time>2026-04-18T15:54:52Z</time></trkpt><trkpt lat="48.40750578089325" lon="-4.552054545713459"><ele>55.33333333333333</ele><time>2026-04-18T15:54:55Z</time></trkpt><trkpt lat="48.40757384539186" lon="-4.552119305915816"><ele>56.0</ele><time>2026-04-18T15:54:58Z</time></trkpt><trkpt lat="48.40765047305703" lon="-4.552166567453818"><ele>56.666666666666664</ele><time>2026-04-18T15:55:01Z</time></trkpt><trkpt lat="48.40772315645251" lon="-4.552210775703081"><ele>57.33333333333333</ele><time>2026-04-18T15:55:04Z</time></trkpt><trkpt lat="48.40780149571929" lon="-4.552248247113798"><ele>58.0</ele><time>2026-04-18T15:55:07Z</time></trkpt><trkpt lat="48.40787655712252" lon="-4.552291251402529"><ele>57.99999999999999</ele><time>2026-04-18T15:55:10Z</time></trkpt><trkpt lat="48.407939982906676" lon="-4.552317167716526"><ele>58.0</ele><time>2026-04-18T15:55:13Z</time></trkpt><trkpt lat="48.40801153218378" lon="-4.552343797148753"><ele>58.0</ele><time>2026-04-18T15:55:16Z</time></trkpt><trkpt lat="48.40808541540745" lon="-4.552373176587651"><ele>58.0</ele><time>2026-04-18T15:55:19Z</time></trkpt><trkpt lat="48.40816256019341" lon="-4.552404215682885"><ele>57.99999999999999</ele><time>2026-04-18T15:55:22Z</time></trkpt><trkpt lat="48.40824516546964" lon="-4.552430066908902"><ele>58.0</ele><time>2026-04-18T15:55:25Z</time></trkpt><trkpt lat="48.40832474158849" lon="-4.552448760062315"><ele>59.166666666666664</ele><time>2026-04-18T15:55:28Z</time></trkpt><trkpt lat="48.40841479121611" lon="-4.552460747092411"><ele>60.33333333333333</ele><time>2026-04-18T15:55:31Z</time></trkpt><trkpt lat="48.40850343183598" lon="-4.552482432071035"><ele>61.5</ele><time>2026-04-18T15:55:35Z</time></trkpt><trkpt lat="48.408568241430515" lon="-4.552518473482169"><ele>62.66666666666667</ele><time>2026-04-18T15:55:37Z</time></trkpt><trkpt lat="48.40865406109242" lon="-4.552527807115581"><ele>63.833333333333336</ele><time>2026-04-18T15:55:40Z</time></trkpt><trkpt lat="48.408734626291356" lon="-4.552554775991031"><ele>65.0</ele><time>2026-04-18T15:55:43Z</time></trkpt><trkpt lat="48.40881694418214" lon="-4.552558392571948"><ele>65.83333333333334</ele><time>2026-04-18T15:55:46Z</time></trkpt><trkpt lat="48.408893116136184" lon="-4.55258736976482"><ele>66.66666666666667</ele><time>2026-04-18T15:55:49Z</time></trkpt><trkpt lat="48.40895986485615" lon="-4.55259373392506"><ele>67.5</ele><time>2026-04-18T15:55:51Z</time></trkpt><trkpt lat="48.4090362125716" lon="-4.552622344492394"><ele>68.33333333333333</ele><time>2026-04-18T15:55:54Z</time></trkpt><trkpt lat="48.409127393964305" lon="-4.552633168816612"><ele>69.16666666666666</ele><time>2026-04-18T15:55:57Z</time></trkpt><trkpt lat="48.4092119782771" lon="-4.552653101885284"><ele>70.0</ele><time>2026-04-18T15:56:00Z</time></trkpt><trkpt lat="48.409293380094354" lon="-4.552675542989545"><ele>70.0</ele><time>2026-04-18T15:56:03Z</time></trkpt><trkpt lat="48.409376985732194" lon="-4.552692931596198"><ele>70.0</ele><time>2026-04-18T15:56:06Z</time></trkpt><trkpt lat="48.40945350121182" lon="-4.55270855097798"><ele>70.0</ele><time>2026-04-18T15:56:09Z</time></trkpt><trkpt lat="48.40953604353987" lon="-4.552716486371126"><ele>70.0</ele><time>2026-04-18T15:56:12Z</time></trkpt><trkpt lat="48.409610181184654" lon="-4.552761585577499"><ele>70.0</ele><time>2026-04-18T15:56:15Z</time></trkpt><trkpt lat="48.40967741470901" lon="-4.552817405529106"><ele>70.0</ele><time>2026-04-18T15:56:18Z</time></trkpt><trkpt lat="48.409746572781934" lon="-4.552870156511668"><ele>71.0</ele><time>2026-04-18T15:56:21Z</time></trkpt><trkpt lat="48.40980884073125" lon="-4.552942768628116"><ele>72.0</ele><time>2026-04-18T15:56:24Z</time></trkpt><trkpt lat="48.40987069954424" lon="-4.553029798852244"><ele>73.0</ele><time>2026-04-18T15:56:27Z</time></trkpt><trkpt lat="48.40992784502765" lon="-4.553118192870299"><ele>74.0</ele><time>2026-04-18T15:56:30Z</time></trkpt><trkpt lat="48.40998438391271" lon="-4.553200965061937"><ele>75.0</ele><time>2026-04-18T15:56:33Z</time></trkpt><trkpt lat="48.41003131274912" lon="-4.5532948631142505"><ele>76.0</ele><time>2026-04-18T15:56:36Z</time></trkpt><trkpt lat="48.41007387093926" lon="-4.553389365178228"><ele>76.0</ele><time>2026-04-18T15:56:39Z</time></trkpt><trkpt lat="48.41011675920998" lon="-4.553509340503219"><ele>76.0</ele><time>2026-04-18T15:56:42Z</time></trkpt><trkpt lat="48.410157286234764" lon="-4.553631153129834"><ele>76.0</ele><time>2026-04-18T15:56:45Z</time></trkpt><trkpt lat="48.4101880583319" lon="-4.553721458253185"><ele>76.0</ele><time>2026-04-18T15:56:47Z</time></trkpt><trkpt lat="48.410225795135375" lon="-4.553846662043411"><ele>76.0</ele><time>2026-04-18T15:56:50Z</time></trkpt><trkpt lat="48.41025069149639" lon="-4.553941279565945"><ele>76.0</ele><time>2026-04-18T15:56:52Z</time></trkpt><trkpt lat="48.41027698236093" lon="-4.554034676055398"><ele>75.85714285714285</ele><time>2026-04-18T15:56:54Z</time></trkpt><trkpt lat="48.41030390453388" lon="-4.554131684625656"><ele>75.71428571428572</ele><time>2026-04-18T15:56:56Z</time></trkpt><trkpt lat="48.410337515698906" lon="-4.554223727825894"><ele>75.57142857142857</ele><time>2026-04-18T15:56:58Z</time></trkpt><trkpt lat="48.410367150557704" lon="-4.554322635771453"><ele>75.42857142857142</ele><time>2026-04-18T15:57:00Z</time></trkpt><trkpt lat="48.41039328626386" lon="-4.554432210892332"><ele>75.28571428571428</ele><time>2026-04-18T15:57:02Z</time></trkpt><trkpt lat="48.41042130820736" lon="-4.554532608174353"><ele>75.14285714285714</ele><time>2026-04-18T15:57:04Z</time></trkpt><trkpt lat="48.41045144749635" lon="-4.554641630323825"><ele>75.0</ele><time>2026-04-18T15:57:06Z</time></trkpt><trkpt lat="48.410478769261566" lon="-4.554755410458417"><ele>75.0</ele><time>2026-04-18T15:57:08Z</time></trkpt><trkpt lat="48.41050635531898" lon="-4.554874941623675"><ele>75.0</ele><time>2026-04-18T15:57:10Z</time></trkpt><trkpt lat="48.410535142304674" lon="-4.554993403827289"><ele>75.0</ele><time>2026-04-18T15:57:12Z</time></trkpt><trkpt lat="48.410552943515135" lon="-4.555115775724514"><ele>75.0</ele><time>2026-04-18T15:57:14Z</time></trkpt><trkpt lat="48.41057260288329" lon="-4.555232487469113"><ele>75.0</ele><time>2026-04-18T15:57:16Z</time></trkpt><trkpt lat="48.41058923374222" lon="-4.555350288657708"><ele>75.0</ele><time>2026-04-18T15:57:18Z</time></trkpt><trkpt lat="48.410604874146856" lon="-4.555474706989353"><ele>75.0</ele><time>2026-04-18T15:57:20Z</time></trkpt><trkpt lat="48.41061761382982" lon="-4.555596899283402"><ele>75.0</ele><time>2026-04-18T15:57:22Z</time></trkpt><trkpt lat="48.41063653582844" lon="-4.555716793723361"><ele>75.0</ele><time>2026-04-18T15:57:24Z</time></trkpt><trkpt lat="48.41065147827688" lon="-4.555843459703304"><ele>75.0</ele><time>2026-04-18T15:57:26Z</time></trkpt><trkpt lat="48.41066933555125" lon="-4.555975916700549"><ele>75.0</ele><time>2026-04-18T15:57:28Z</time></trkpt><trkpt lat="48.41068313509973" lon="-4.556091103047087"><ele>75.0</ele><time>2026-04-18T15:57:30Z</time></trkpt><trkpt lat="48.4107035034495" lon="-4.556211128261888"><ele>75.0</ele><time>2026-04-18T15:57:32Z</time></trkpt><trkpt lat="48.41072244065567" lon="-4.55633531289332"><ele>75.0</ele><time>2026-04-18T15:57:34Z</time></trkpt><trkpt lat="48.41074391377047" lon="-4.556458395195421"><ele>75.0</ele><time>2026-04-18T15:57:36Z</time></trkpt><trkpt lat="48.41075991381008" lon="-4.556577291608675"><ele>75.0</ele><time>2026-04-18T15:57:38Z</time></trkpt><trkpt lat="48.41078478125734" lon="-4.556691074969153"><ele>75.0</ele><time>2026-04-18T15:57:40Z</time></trkpt><trkpt lat="48.410807674097136" lon="-4.556822687449526"><ele>75.0</ele><time>2026-04-18T15:57:42Z</time></trkpt><trkpt lat="48.41083174444396" lon="-4.5569493024757675"><ele>75.2</ele><time>2026-04-18T15:57:44Z</time></trkpt><trkpt lat="48.410859591396445" lon="-4.55707828349162"><ele>75.4</ele><time>2026-04-18T15:57:46Z</time></trkpt><trkpt lat="48.410885219076526" lon="-4.5572091806786394"><ele>75.6</ele><time>2026-04-18T15:57:48Z</time></trkpt><trkpt lat="48.410913575531076" lon="-4.557341571359767"><ele>75.8</ele><time>2026-04-18T15:57:50Z</time></trkpt><trkpt lat="48.41094310716931" lon="-4.55747868126394"><ele>76.0</ele><time>2026-04-18T15:57:52Z</time></trkpt><trkpt lat="48.41097647035854" lon="-4.557604474625151"><ele>76.0</ele><time>2026-04-18T15:57:54Z</time></trkpt><trkpt lat="48.41101130154513" lon="-4.5577358669527905"><ele>76.0</ele><time>2026-04-18T15:57:56Z</time></trkpt><trkpt lat="48.4110398866838" lon="-4.557861768788346"><ele>76.0</ele><time>2026-04-18T15:57:58Z</time></trkpt><trkpt lat="48.41106893767931" lon="-4.557984357990053"><ele>76.0</ele><time>2026-04-18T15:58:00Z</time></trkpt><trkpt lat="48.411105372383865" lon="-4.55811191085077"><ele>76.0</ele><time>2026-04-18T15:58:02Z</time></trkpt><trkpt lat="48.4111380693189" lon="-4.558224300231315"><ele>76.0</ele><time>2026-04-18T15:58:04Z</time></trkpt><trkpt lat="48.41116509826067" lon="-4.5583479672367435"><ele>76.0</ele><time>2026-04-18T15:58:06Z</time></trkpt><trkpt lat="48.41119387998614" lon="-4.558471698996788"><ele>76.0</ele><time>2026-04-18T15:58:08Z</time></trkpt><trkpt lat="48.41122859115716" lon="-4.558592835493209"><ele>76.0</ele><time>2026-04-18T15:58:10Z</time></trkpt><trkpt lat="48.41124935822032" lon="-4.558718944427186"><ele>76.0</ele><time>2026-04-18T15:58:12Z</time></trkpt><trkpt lat="48.41127786902263" lon="-4.558842374657071"><ele>76.0</ele><time>2026-04-18T15:58:14Z</time></trkpt><trkpt lat="48.41130499357514" lon="-4.558960458508247"><ele>76.0</ele><time>2026-04-18T15:58:16Z</time></trkpt><trkpt lat="48.41133188758565" lon="-4.559073701159767"><ele>76.33333333333333</ele><time>2026-04-18T15:58:18Z</time></trkpt><trkpt lat="48.41135587877085" lon="-4.5591798292784995"><ele>76.66666666666666</ele><time>2026-04-18T15:58:20Z</time></trkpt><trkpt lat="48.411386121150414" lon="-4.559299638297405"><ele>77.0</ele><time>2026-04-18T15:58:22Z</time></trkpt><trkpt lat="48.41141414959537" lon="-4.559418292715916"><ele>77.33333333333333</ele><time>2026-04-18T15:58:24Z</time></trkpt><trkpt lat="48.41144660133951" lon="-4.559531643354397"><ele>77.66666666666667</ele><time>2026-04-18T15:58:26Z</time></trkpt><trkpt lat="48.41148510903223" lon="-4.559648434647385"><ele>78.0</ele><time>2026-04-18T15:58:28Z</time></trkpt><trkpt lat="48.41153261654138" lon="-4.559757727569985"><ele>78.16666666666667</ele><time>2026-04-18T15:58:30Z</time></trkpt><trkpt lat="48.41157897214045" lon="-4.559861506798928"><ele>78.33333333333333</ele><time>2026-04-18T15:58:32Z</time></trkpt><trkpt lat="48.41163032995952" lon="-4.559957535962718"><ele>78.5</ele><time>2026-04-18T15:58:34Z</time></trkpt><trkpt lat="48.411678333713766" lon="-4.560033226600111"><ele>78.66666666666666</ele><time>2026-04-18T15:58:36Z</time></trkpt><trkpt lat="48.411732623853766" lon="-4.56010547618604"><ele>78.83333333333333</ele><time>2026-04-18T15:58:38Z</time></trkpt><trkpt lat="48.41178835674426" lon="-4.560180874995151"><ele>79.0</ele><time>2026-04-18T15:58:40Z</time></trkpt><trkpt lat="48.41185141588772" lon="-4.560238999990344"><ele>79.0</ele><time>2026-04-18T15:58:42Z</time></trkpt><trkpt lat="48.41192700480138" lon="-4.560287617348998"><ele>79.0</ele><time>2026-04-18T15:58:44Z</time></trkpt><trkpt lat="48.41200413071537" lon="-4.560364893645293"><ele>79.0</ele><time>2026-04-18T15:58:46Z</time></trkpt><trkpt lat="48.41202792835684" lon="-4.560473709710903"><ele>79.0</ele><time>2026-04-18T15:58:48Z</time></trkpt><trkpt lat="48.41198307375965" lon="-4.560582551703875"><ele>79.0</ele><time>2026-04-18T15:58:50Z</time></trkpt><trkpt lat="48.411893453961255" lon="-4.56062468419161"><ele>79.0</ele><time>2026-04-18T15:58:52Z</time></trkpt><trkpt lat="48.411794440735186" lon="-4.560651063772328"><ele>79.0</ele><time>2026-04-18T15:58:54Z</time></trkpt><trkpt lat="48.41172794773152" lon="-4.5607865282863145"><ele>79.0</ele><time>2026-04-18T15:58:56Z</time></trkpt><trkpt lat="48.411709780052796" lon="-4.560946860637747"><ele>79.0</ele><time>2026-04-18T15:58:58Z</time></trkpt><trkpt lat="48.411731232962374" lon="-4.5611044932562725"><ele>79.0</ele><time>2026-04-18T15:59:00Z</time></trkpt><trkpt lat="48.4117758736291" lon="-4.561234445617149"><ele>79.0</ele><time>2026-04-18T15:59:02Z</time></trkpt><trkpt lat="48.4118130593557" lon="-4.561368409128514"><ele>79.0</ele><time>2026-04-18T15:59:04Z</time></trkpt><trkpt lat="48.41184166084946" lon="-4.561491039123642"><ele>79.0</ele><time>2026-04-18T15:59:06Z</time></trkpt><trkpt lat="48.41187737062093" lon="-4.561607954227258"><ele>79.0</ele><time>2026-04-18T15:59:08Z</time></trkpt><trkpt lat="48.41191313984213" lon="-4.561724748441319"><ele>79.0</ele><time>2026-04-18T15:59:10Z</time></trkpt><trkpt lat="48.41194596964866" lon="-4.561838830690832"><ele>79.0</ele><time>2026-04-18T15:59:12Z</time></trkpt><trkpt lat="48.411977232959025" lon="-4.561939738095328"><ele>79.0</ele><time>2026-04-18T15:59:14Z</time></trkpt><trkpt lat="48.412004672074694" lon="-4.562048788294959"><ele>79.0</ele><time>2026-04-18T15:59:16Z</time></trkpt><trkpt lat="48.41203860038128" lon="-4.562163469640118"><ele>79.0</ele><time>2026-04-18T15:59:18Z</time></trkpt><trkpt lat="48.41207228084385" lon="-4.562277806245395"><ele>79.0</ele><time>2026-04-18T15:59:20Z</time></trkpt><trkpt lat="48.41210648490495" lon="-4.562391293387147"><ele>79.0</ele><time>2026-04-18T15:59:22Z</time></trkpt><trkpt lat="48.41214206518982" lon="-4.562487427796556"><ele>79.0</ele><time>2026-04-18T15:59:24Z</time></trkpt><trkpt lat="48.41218217727189" lon="-4.562565172900963"><ele>79.0</ele><time>2026-04-18T15:59:27Z</time></trkpt><trkpt lat="48.412185146598" lon="-4.562671616857174"><ele>79.57142857142858</ele><time>2026-04-18T15:59:50Z</time></trkpt><trkpt lat="48.41221972258577" lon="-4.562773019355492"><ele>80.14285714285714</ele><time>2026-04-18T15:59:55Z</time></trkpt><trkpt lat="48.412256857766685" lon="-4.56285399194443"><ele>80.71428571428572</ele><time>2026-04-18T15:59:59Z</time></trkpt><trkpt lat="48.41229603235155" lon="-4.562943111800332"><ele>81.28571428571429</ele><time>2026-04-18T16:00:01Z</time></trkpt><trkpt lat="48.412333795490156" lon="-4.563042356845235"><ele>81.85714285714286</ele><time>2026-04-18T16:00:03Z</time></trkpt><trkpt lat="48.41237899729801" lon="-4.563130435641307"><ele>82.42857142857143</ele><time>2026-04-18T16:00:05Z</time></trkpt><trkpt lat="48.412408732008224" lon="-4.563226820256354"><ele>83.0</ele><time>2026-04-18T16:00:07Z</time></trkpt><trkpt lat="48.41244316146129" lon="-4.563331646624679"><ele>83.0</ele><time>2026-04-18T16:00:09Z</time></trkpt><trkpt lat="48.412482611114015" lon="-4.563421341952392"><ele>83.0</ele><time>2026-04-18T16:00:11Z</time></trkpt><trkpt lat="48.412518920602345" lon="-4.563526000841758"><ele>83.0</ele><time>2026-04-18T16:00:13Z</time></trkpt><trkpt lat="48.41256123651687" lon="-4.5636280613306175"><ele>83.0</ele><time>2026-04-18T16:00:15Z</time></trkpt><trkpt lat="48.41259227519153" lon="-4.563744479597394"><ele>83.0</ele><time>2026-04-18T16:00:17Z</time></trkpt><trkpt lat="48.412627567189205" lon="-4.563845949966647"><ele>83.0</ele><time>2026-04-18T16:00:19Z</time></trkpt><trkpt lat="48.41266992393209" lon="-4.563953220620359"><ele>83.0</ele><time>2026-04-18T16:00:21Z</time></trkpt><trkpt lat="48.412713019809104" lon="-4.564070211002949"><ele>83.0</ele><time>2026-04-18T16:00:23Z</time></trkpt><trkpt lat="48.4127573039822" lon="-4.5641903101122345"><ele>83.0</ele><time>2026-04-18T16:00:25Z</time></trkpt><trkpt lat="48.41279476113365" lon="-4.564309545093753"><ele>83.0</ele><time>2026-04-18T16:00:27Z</time></trkpt><trkpt lat="48.412842253408115" lon="-4.564444399019971"><ele>83.0</ele><time>2026-04-18T16:00:29Z</time></trkpt><trkpt lat="48.412879861032614" lon="-4.5645705097403395"><ele>83.0</ele><time>2026-04-18T16:00:31Z</time></trkpt><trkpt lat="48.41291828359887" lon="-4.564693760144436"><ele>83.0</ele><time>2026-04-18T16:00:33Z</time></trkpt><trkpt lat="48.41296208100624" lon="-4.564815653002759"><ele>83.0</ele><time>2026-04-18T16:00:35Z</time></trkpt><trkpt lat="48.412995498265566" lon="-4.564940437816186"><ele>83.0</ele><time>2026-04-18T16:00:37Z</time></trkpt><trkpt lat="48.41303193152673" lon="-4.565072434298543"><ele>83.0</ele><time>2026-04-18T16:00:39Z</time></trkpt><trkpt lat="48.413071507244176" lon="-4.565201932110551"><ele>83.2</ele><time>2026-04-18T16:00:41Z</time></trkpt><trkpt lat="48.41310723141969" lon="-4.5653367217695004"><ele>83.4</ele><time>2026-04-18T16:00:43Z</time></trkpt><trkpt lat="48.413130773176604" lon="-4.565480476380188"><ele>83.60000000000001</ele><time>2026-04-18T16:00:45Z</time></trkpt><trkpt lat="48.413153139070275" lon="-4.565632587205973"><ele>83.80000000000001</ele><time>2026-04-18T16:00:47Z</time></trkpt><trkpt lat="48.41316838347576" lon="-4.565790736825718"><ele>84.0</ele><time>2026-04-18T16:00:49Z</time></trkpt><trkpt lat="48.413174024582176" lon="-4.565938576568369"><ele>84.2</ele><time>2026-04-18T16:00:51Z</time></trkpt><trkpt lat="48.4131763204738" lon="-4.566094933553815"><ele>84.4</ele><time>2026-04-18T16:00:53Z</time></trkpt><trkpt lat="48.41317746368384" lon="-4.56624645762248"><ele>84.6</ele><time>2026-04-18T16:00:55Z</time></trkpt><trkpt lat="48.41318331218497" lon="-4.566396360679481"><ele>84.8</ele><time>2026-04-18T16:00:57Z</time></trkpt><trkpt lat="48.413188906341254" lon="-4.566543166137224"><ele>85.0</ele><time>2026-04-18T16:00:59Z</time></trkpt><trkpt lat="48.4131857060964" lon="-4.566700320277089"><ele>85.0</ele><time>2026-04-18T16:01:01Z</time></trkpt><trkpt lat="48.41317404499745" lon="-4.566846481569272"><ele>85.0</ele><time>2026-04-18T16:01:03Z</time></trkpt><trkpt lat="48.41315408179798" lon="-4.566978491357557"><ele>85.0</ele><time>2026-04-18T16:01:05Z</time></trkpt><trkpt lat="48.41313779909589" lon="-4.567125578636009"><ele>85.0</ele><time>2026-04-18T16:01:07Z</time></trkpt><trkpt lat="48.41312269765589" lon="-4.567268060927595"><ele>85.0</ele><time>2026-04-18T16:01:09Z</time></trkpt><trkpt lat="48.413103302436056" lon="-4.567404660726885"><ele>85.0</ele><time>2026-04-18T16:01:11Z</time></trkpt><trkpt lat="48.41309462978563" lon="-4.567540185024359"><ele>85.0</ele><time>2026-04-18T16:01:13Z</time></trkpt><trkpt lat="48.4130787249851" lon="-4.567657722801417"><ele>85.0</ele><time>2026-04-18T16:01:15Z</time></trkpt><trkpt lat="48.41306532164007" lon="-4.567762785283165"><ele>85.0</ele><time>2026-04-18T16:01:17Z</time></trkpt><trkpt lat="48.41306785382933" lon="-4.567875398665865"><ele>85.0</ele><time>2026-04-18T16:01:19Z</time></trkpt><trkpt lat="48.41304956282614" lon="-4.568003412847553"><ele>85.0</ele><time>2026-04-18T16:01:21Z</time></trkpt><trkpt lat="48.41303491857109" lon="-4.568140999897618"><ele>84.8</ele><time>2026-04-18T16:01:23Z</time></trkpt><trkpt lat="48.413002931320435" lon="-4.568291900978065"><ele>84.6</ele><time>2026-04-18T16:01:25Z</time></trkpt><trkpt lat="48.41296138340376" lon="-4.56844472270373"><ele>84.4</ele><time>2026-04-18T16:01:27Z</time></trkpt><trkpt lat="48.41291622480072" lon="-4.568610905247247"><ele>84.2</ele><time>2026-04-18T16:01:29Z</time></trkpt><trkpt lat="48.41289842664692" lon="-4.568704375397669"><ele>84.0</ele><time>2026-04-18T16:01:30Z</time></trkpt><trkpt lat="48.412870496989676" lon="-4.568797404002361"><ele>82.8</ele><time>2026-04-18T16:01:31Z</time></trkpt><trkpt lat="48.412823878209025" lon="-4.568966923667309"><ele>81.60000000000001</ele><time>2026-04-18T16:01:33Z</time></trkpt><trkpt lat="48.412764755571025" lon="-4.569120576118131"><ele>80.4</ele><time>2026-04-18T16:01:35Z</time></trkpt><trkpt lat="48.412715267771" lon="-4.569277945877089"><ele>79.2</ele><time>2026-04-18T16:01:37Z</time></trkpt><trkpt lat="48.41269316321367" lon="-4.569369716919694"><ele>78.0</ele><time>2026-04-18T16:01:38Z</time></trkpt><trkpt lat="48.41267545366117" lon="-4.569462008541468"><ele>77.16666666666667</ele><time>2026-04-18T16:01:39Z</time></trkpt><trkpt lat="48.412645295815686" lon="-4.5695645886479435"><ele>76.33333333333333</ele><time>2026-04-18T16:01:40Z</time></trkpt><trkpt lat="48.412626032298235" lon="-4.569668679258409"><ele>75.5</ele><time>2026-04-18T16:01:41Z</time></trkpt><trkpt lat="48.412600679909396" lon="-4.569774352509095"><ele>74.66666666666666</ele><time>2026-04-18T16:01:42Z</time></trkpt><trkpt lat="48.41259805849352" lon="-4.569879683085738"><ele>73.83333333333333</ele><time>2026-04-18T16:01:43Z</time></trkpt><trkpt lat="48.412556022428234" lon="-4.570067761366818"><ele>73.0</ele><time>2026-04-18T16:01:45Z</time></trkpt><trkpt lat="48.41253720192115" lon="-4.570178378177511"><ele>73.0</ele><time>2026-04-18T16:01:46Z</time></trkpt><trkpt lat="48.41252590569304" lon="-4.570286934453446"><ele>73.0</ele><time>2026-04-18T16:01:47Z</time></trkpt><trkpt lat="48.4125209231835" lon="-4.570381991185744"><ele>73.0</ele><time>2026-04-18T16:01:48Z</time></trkpt><trkpt lat="48.412511260669255" lon="-4.57047599172555"><ele>73.0</ele><time>2026-04-18T16:01:49Z</time></trkpt><trkpt lat="48.41249747953743" lon="-4.570575625765605"><ele>73.0</ele><time>2026-04-18T16:01:50Z</time></trkpt><trkpt lat="48.41248540940494" lon="-4.570679322340387"><ele>73.0</ele><time>2026-04-18T16:01:51Z</time></trkpt><trkpt lat="48.41246218961362" lon="-4.570792970424366"><ele>73.0</ele><time>2026-04-18T16:01:52Z</time></trkpt><trkpt lat="48.41244428816975" lon="-4.570891761377042"><ele>72.0</ele><time>2026-04-18T16:01:53Z</time></trkpt><trkpt lat="48.412429390476625" lon="-4.571078942561519"><ele>71.0</ele><time>2026-04-18T16:01:55Z</time></trkpt><trkpt lat="48.412400791708116" lon="-4.571272393645183"><ele>70.0</ele><time>2026-04-18T16:01:57Z</time></trkpt><trkpt lat="48.41238569568178" lon="-4.5713805833111545"><ele>69.0</ele><time>2026-04-18T16:01:58Z</time></trkpt><trkpt lat="48.41235727368166" lon="-4.571470044428094"><ele>68.0</ele><time>2026-04-18T16:01:59Z</time></trkpt><trkpt lat="48.4123527685351" lon="-4.571573381605423"><ele>67.5</ele><time>2026-04-18T16:02:00Z</time></trkpt><trkpt lat="48.41233509588805" lon="-4.571686007836493"><ele>67.0</ele><time>2026-04-18T16:02:01Z</time></trkpt><trkpt lat="48.412327902638886" lon="-4.571813114111702"><ele>66.5</ele><time>2026-04-18T16:02:02Z</time></trkpt><trkpt lat="48.41232992677428" lon="-4.571943231877526"><ele>66.0</ele><time>2026-04-18T16:02:03Z</time></trkpt><trkpt lat="48.41232191708869" lon="-4.572070690028655"><ele>65.5</ele><time>2026-04-18T16:02:04Z</time></trkpt><trkpt lat="48.412315157216995" lon="-4.572192969429907"><ele>65.0</ele><time>2026-04-18T16:02:05Z</time></trkpt><trkpt lat="48.4123105313858" lon="-4.572299016000774"><ele>64.5</ele><time>2026-04-18T16:02:06Z</time></trkpt><trkpt lat="48.41230354814653" lon="-4.572419589833837"><ele>64.0</ele><time>2026-04-18T16:02:07Z</time></trkpt><trkpt lat="48.412307448039634" lon="-4.572540193895987"><ele>63.5</ele><time>2026-04-18T16:02:08Z</time></trkpt><trkpt lat="48.41231033096001" lon="-4.5726534843689866"><ele>63.0</ele><time>2026-04-18T16:02:09Z</time></trkpt><trkpt lat="48.412322166857116" lon="-4.572759309771858"><ele>62.50000000000001</ele><time>2026-04-18T16:02:10Z</time></trkpt><trkpt lat="48.41233362290891" lon="-4.57285326842117"><ele>62.0</ele><time>2026-04-18T16:02:11Z</time></trkpt><trkpt lat="48.41236499670533" lon="-4.573017768307312"><ele>62.0</ele><time>2026-04-18T16:02:13Z</time></trkpt><trkpt lat="48.412403686698816" lon="-4.573182325652045"><ele>62.0</ele><time>2026-04-18T16:02:15Z</time></trkpt><trkpt lat="48.41244163934189" lon="-4.5733498797702055"><ele>62.0</ele><time>2026-04-18T16:02:17Z</time></trkpt><trkpt lat="48.412483412796526" lon="-4.5735059817861385"><ele>62.0</ele><time>2026-04-18T16:02:19Z</time></trkpt><trkpt lat="48.41253422929958" lon="-4.573660721258082"><ele>62.2</ele><time>2026-04-18T16:02:21Z</time></trkpt><trkpt lat="48.412583294581026" lon="-4.573814869134772"><ele>62.400000000000006</ele><time>2026-04-18T16:02:23Z</time></trkpt><trkpt lat="48.41264190864493" lon="-4.573963958622259"><ele>62.599999999999994</ele><time>2026-04-18T16:02:25Z</time></trkpt><trkpt lat="48.41270944482562" lon="-4.574099031745572"><ele>62.8</ele><time>2026-04-18T16:02:27Z</time></trkpt><trkpt lat="48.41276508019672" lon="-4.574217254163885"><ele>63.0</ele><time>2026-04-18T16:02:29Z</time></trkpt><trkpt lat="48.412816550441484" lon="-4.574322761952641"><ele>63.0</ele><time>2026-04-18T16:02:31Z</time></trkpt><trkpt lat="48.412867479281346" lon="-4.574426409395849"><ele>63.0</ele><time>2026-04-18T16:02:33Z</time></trkpt><trkpt lat="48.41292505497209" lon="-4.574530811857646"><ele>63.0</ele><time>2026-04-18T16:02:35Z</time></trkpt><trkpt lat="48.41298371299738" lon="-4.574629577127762"><ele>63.0</ele><time>2026-04-18T16:02:37Z</time></trkpt><trkpt lat="48.41303337777435" lon="-4.574738388329188"><ele>63.0</ele><time>2026-04-18T16:02:39Z</time></trkpt><trkpt lat="48.4130807600746" lon="-4.574847462854847"><ele>63.0</ele><time>2026-04-18T16:02:41Z</time></trkpt><trkpt lat="48.413129165165614" lon="-4.574956103519887"><ele>63.5</ele><time>2026-04-18T16:02:43Z</time></trkpt><trkpt lat="48.4131718209616" lon="-4.575066174891534"><ele>64.0</ele><time>2026-04-18T16:02:45Z</time></trkpt><trkpt lat="48.41321210928313" lon="-4.575183604213227"><ele>64.5</ele><time>2026-04-18T16:02:47Z</time></trkpt><trkpt lat="48.413246062390506" lon="-4.575308344685187"><ele>65.0</ele><time>2026-04-18T16:02:49Z</time></trkpt><trkpt lat="48.41328267607552" lon="-4.575428274535526"><ele>65.5</ele><time>2026-04-18T16:02:51Z</time></trkpt><trkpt lat="48.41332322026068" lon="-4.5755400680265135"><ele>66.0</ele><time>2026-04-18T16:02:53Z</time></trkpt><trkpt lat="48.41335340924801" lon="-4.57566477873441"><ele>66.39999999999999</ele><time>2026-04-18T16:02:55Z</time></trkpt><trkpt lat="48.41338835360347" lon="-4.575786251407036"><ele>66.8</ele><time>2026-04-18T16:02:57Z</time></trkpt><trkpt lat="48.41341854474553" lon="-4.575914431609582"><ele>67.19999999999999</ele><time>2026-04-18T16:02:59Z</time></trkpt><trkpt lat="48.41345289474674" lon="-4.576049015107503"><ele>67.6</ele><time>2026-04-18T16:03:01Z</time></trkpt><trkpt lat="48.413481500455816" lon="-4.576187184694017"><ele>68.0</ele><time>2026-04-18T16:03:03Z</time></trkpt><trkpt lat="48.413502128474605" lon="-4.576337531820531"><ele>68.0</ele><time>2026-04-18T16:03:05Z</time></trkpt><trkpt lat="48.41352662761159" lon="-4.576486087895725"><ele>68.0</ele><time>2026-04-18T16:03:07Z</time></trkpt><trkpt lat="48.41355613561047" lon="-4.576645876371156"><ele>68.0</ele><time>2026-04-18T16:03:09Z</time></trkpt><trkpt lat="48.41358789915222" lon="-4.576800245568057"><ele>68.0</ele><time>2026-04-18T16:03:11Z</time></trkpt><trkpt lat="48.413619388130094" lon="-4.576942945597009"><ele>68.0</ele><time>2026-04-18T16:03:13Z</time></trkpt><trkpt lat="48.41365515979715" lon="-4.577074556933236"><ele>68.0</ele><time>2026-04-18T16:03:15Z</time></trkpt><trkpt lat="48.41368810035339" lon="-4.577195325689239"><ele>68.0</ele><time>2026-04-18T16:03:17Z</time></trkpt><trkpt lat="48.413719029613425" lon="-4.577318404750391"><ele>68.0</ele><time>2026-04-18T16:03:19Z</time></trkpt><trkpt lat="48.4137593118649" lon="-4.577438803278012"><ele>68.0</ele><time>2026-04-18T16:03:21Z</time></trkpt><trkpt lat="48.41378488316383" lon="-4.577553345618724"><ele>68.0</ele><time>2026-04-18T16:03:23Z</time></trkpt><trkpt lat="48.413820807056844" lon="-4.57768399546295"><ele>68.0</ele><time>2026-04-18T16:03:26Z</time></trkpt><trkpt lat="48.413848080661595" lon="-4.57777764806549"><ele>67.57142857142857</ele><time>2026-04-18T16:03:28Z</time></trkpt><trkpt lat="48.4138725856461" lon="-4.577872989635761"><ele>67.14285714285714</ele><time>2026-04-18T16:03:30Z</time></trkpt><trkpt lat="48.413899767577114" lon="-4.577964555353188"><ele>66.71428571428572</ele><time>2026-04-18T16:03:32Z</time></trkpt><trkpt lat="48.41392817256993" lon="-4.578055088340821"><ele>66.28571428571428</ele><time>2026-04-18T16:03:34Z</time></trkpt><trkpt lat="48.41394916317559" lon="-4.578148834991722"><ele>65.85714285714286</ele><time>2026-04-18T16:03:36Z</time></trkpt><trkpt lat="48.41399863889622" lon="-4.57827611208835"><ele>65.42857142857143</ele><time>2026-04-18T16:03:39Z</time></trkpt><trkpt lat="48.414019859155275" lon="-4.5783764397154005"><ele>65.0</ele><time>2026-04-18T16:03:41Z</time></trkpt><trkpt lat="48.4140442131576" lon="-4.578473157857784"><ele>65.0</ele><time>2026-04-18T16:03:43Z</time></trkpt><trkpt lat="48.41407404416648" lon="-4.578561422698921"><ele>65.0</ele><time>2026-04-18T16:03:45Z</time></trkpt><trkpt lat="48.41411892944357" lon="-4.578700437449605"><ele>65.0</ele><time>2026-04-18T16:03:48Z</time></trkpt><trkpt lat="48.4141593258578" lon="-4.578807737346399"><ele>65.0</ele><time>2026-04-18T16:03:50Z</time></trkpt><trkpt lat="48.414196843460296" lon="-4.578921294690979"><ele>65.0</ele><time>2026-04-18T16:03:52Z</time></trkpt><trkpt lat="48.414238625681875" lon="-4.579038543275497"><ele>65.0</ele><time>2026-04-18T16:03:54Z</time></trkpt><trkpt lat="48.41428014026429" lon="-4.579166349396927"><ele>64.83333333333334</ele><time>2026-04-18T16:03:56Z</time></trkpt><trkpt lat="48.414326284045366" lon="-4.579295921570276"><ele>64.66666666666667</ele><time>2026-04-18T16:03:58Z</time></trkpt><trkpt lat="48.41436719035083" lon="-4.579449846037618"><ele>64.5</ele><time>2026-04-18T16:04:00Z</time></trkpt><trkpt lat="48.414398148428575" lon="-4.579610202131139"><ele>64.33333333333333</ele><time>2026-04-18T16:04:02Z</time></trkpt><trkpt lat="48.414415159885216" lon="-4.579703230005482"><ele>64.16666666666666</ele><time>2026-04-18T16:04:03Z</time></trkpt><trkpt lat="48.41442664120965" lon="-4.579801690050921"><ele>64.0</ele><time>2026-04-18T16:04:04Z</time></trkpt><trkpt lat="48.41444781920845" lon="-4.579901161775904"><ele>63.42857142857142</ele><time>2026-04-18T16:04:05Z</time></trkpt><trkpt lat="48.41445087085836" lon="-4.580013175420018"><ele>62.85714285714285</ele><time>2026-04-18T16:04:06Z</time></trkpt><trkpt lat="48.41446872106937" lon="-4.580118798619405"><ele>62.285714285714285</ele><time>2026-04-18T16:04:07Z</time></trkpt><trkpt lat="48.41447515228774" lon="-4.580236633665801"><ele>61.71428571428571</ele><time>2026-04-18T16:04:08Z</time></trkpt><trkpt lat="48.414484488204074" lon="-4.580356417162489"><ele>61.14285714285714</ele><time>2026-04-18T16:04:09Z</time></trkpt><trkpt lat="48.414491537222546" lon="-4.5804661124175565"><ele>60.57142857142857</ele><time>2026-04-18T16:04:10Z</time></trkpt><trkpt lat="48.41449161820481" lon="-4.58056156996737"><ele>60.0</ele><time>2026-04-18T16:04:11Z</time></trkpt><trkpt lat="48.414506852689485" lon="-4.580666057613074"><ele>59.142857142857146</ele><time>2026-04-18T16:04:12Z</time></trkpt><trkpt lat="48.41451726335792" lon="-4.580788221978374"><ele>58.285714285714285</ele><time>2026-04-18T16:04:13Z</time></trkpt><trkpt lat="48.41452468465305" lon="-4.580884572747774"><ele>57.42857142857143</ele><time>2026-04-18T16:04:14Z</time></trkpt><trkpt lat="48.41453202404878" lon="-4.580990332105229"><ele>56.57142857142857</ele><time>2026-04-18T16:04:15Z</time></trkpt><trkpt lat="48.414542192801655" lon="-4.581102785632627"><ele>55.71428571428571</ele><time>2026-04-18T16:04:16Z</time></trkpt><trkpt lat="48.414557344872534" lon="-4.581216086075024"><ele>54.857142857142854</ele><time>2026-04-18T16:04:17Z</time></trkpt><trkpt lat="48.41456829840662" lon="-4.581335209411648"><ele>54.0</ele><time>2026-04-18T16:04:18Z</time></trkpt><trkpt lat="48.414578217624836" lon="-4.5814595425851286"><ele>53.333333333333336</ele><time>2026-04-18T16:04:19Z</time></trkpt><trkpt lat="48.41458998010047" lon="-4.581582600580404"><ele>52.66666666666667</ele><time>2026-04-18T16:04:20Z</time></trkpt><trkpt lat="48.4146053055124" lon="-4.581709641977055"><ele>52.0</ele><time>2026-04-18T16:04:21Z</time></trkpt><trkpt lat="48.41462511294354" lon="-4.581832293249308"><ele>51.333333333333336</ele><time>2026-04-18T16:04:22Z</time></trkpt><trkpt lat="48.414634168738054" lon="-4.5819597053671295"><ele>50.66666666666667</ele><time>2026-04-18T16:04:23Z</time></trkpt><trkpt lat="48.414642749308335" lon="-4.5820858098999"><ele>50.0</ele><time>2026-04-18T16:04:24Z</time></trkpt><trkpt lat="48.41464699005818" lon="-4.582209767313638"><ele>49.66666666666667</ele><time>2026-04-18T16:04:25Z</time></trkpt><trkpt lat="48.41464058476703" lon="-4.582327557875364"><ele>49.333333333333336</ele><time>2026-04-18T16:04:26Z</time></trkpt><trkpt lat="48.41465086840957" lon="-4.582446437245943"><ele>49.0</ele><time>2026-04-18T16:04:27Z</time></trkpt><trkpt lat="48.414654171087896" lon="-4.58256766134186"><ele>48.66666666666667</ele><time>2026-04-18T16:04:28Z</time></trkpt><trkpt lat="48.41465504467097" lon="-4.5826863512409295"><ele>48.333333333333336</ele><time>2026-04-18T16:04:29Z</time></trkpt><trkpt lat="48.41465196359168" lon="-4.582803154226212"><ele>48.0</ele><time>2026-04-18T16:04:30Z</time></trkpt><trkpt lat="48.414648134419004" lon="-4.582921290204972"><ele>47.857142857142854</ele><time>2026-04-18T16:04:31Z</time></trkpt><trkpt lat="48.41465895507136" lon="-4.583038707040492"><ele>47.714285714285715</ele><time>2026-04-18T16:04:32Z</time></trkpt><trkpt lat="48.414643198627246" lon="-4.583155228461541"><ele>47.57142857142857</ele><time>2026-04-18T16:04:33Z</time></trkpt><trkpt lat="48.41464701349654" lon="-4.583269034558287"><ele>47.42857142857143</ele><time>2026-04-18T16:04:34Z</time></trkpt><trkpt lat="48.4146408119227" lon="-4.583377459834276"><ele>47.285714285714285</ele><time>2026-04-18T16:04:35Z</time></trkpt><trkpt lat="48.41464068973349" lon="-4.58348699644591"><ele>47.14285714285714</ele><time>2026-04-18T16:04:36Z</time></trkpt><trkpt lat="48.41464530678315" lon="-4.583591637117674"><ele>47.0</ele><time>2026-04-18T16:04:37Z</time></trkpt><trkpt lat="48.414645434231076" lon="-4.583696403034043"><ele>46.33333333333333</ele><time>2026-04-18T16:04:38Z</time></trkpt><trkpt lat="48.41463653535538" lon="-4.5837962851735625"><ele>45.666666666666664</ele><time>2026-04-18T16:04:39Z</time></trkpt><trkpt lat="48.41463532914938" lon="-4.583898523073695"><ele>45.0</ele><time>2026-04-18T16:04:40Z</time></trkpt><trkpt lat="48.41463230354082" lon="-4.5839963162128425"><ele>44.333333333333336</ele><time>2026-04-18T16:04:41Z</time></trkpt><trkpt lat="48.41462556120104" lon="-4.584092051923936"><ele>43.66666666666667</ele><time>2026-04-18T16:04:42Z</time></trkpt><trkpt lat="48.41460435499772" lon="-4.584276571520979"><ele>43.0</ele><time>2026-04-18T16:04:44Z</time></trkpt><trkpt lat="48.41458332775083" lon="-4.58445864141354"><ele>42.8</ele><time>2026-04-18T16:04:46Z</time></trkpt><trkpt lat="48.41456245042282" lon="-4.584641864141802"><ele>42.599999999999994</ele><time>2026-04-18T16:04:48Z</time></trkpt><trkpt lat="48.41454210730616" lon="-4.584830558210109"><ele>42.400000000000006</ele><time>2026-04-18T16:04:50Z</time></trkpt><trkpt lat="48.41453063329052" lon="-4.584925697485566"><ele>42.2</ele><time>2026-04-18T16:04:51Z</time></trkpt><trkpt lat="48.41450966286209" lon="-4.585105712821578"><ele>42.0</ele><time>2026-04-18T16:04:53Z</time></trkpt><trkpt lat="48.414500579464466" lon="-4.585200961115236"><ele>42.0</ele><time>2026-04-18T16:04:54Z</time></trkpt><trkpt lat="48.41449761517317" lon="-4.585296066299611"><ele>42.0</ele><time>2026-04-18T16:04:55Z</time></trkpt><trkpt lat="48.41449082303449" lon="-4.585390706377876"><ele>42.0</ele><time>2026-04-18T16:04:56Z</time></trkpt><trkpt lat="48.41447748354053" lon="-4.5854858121248085"><ele>42.0</ele><time>2026-04-18T16:04:57Z</time></trkpt><trkpt lat="48.41446528725346" lon="-4.585579048853557"><ele>42.0</ele><time>2026-04-18T16:04:58Z</time></trkpt><trkpt lat="48.41444187848878" lon="-4.5857597442684535"><ele>42.0</ele><time>2026-04-18T16:05:00Z</time></trkpt><trkpt lat="48.41442825832942" lon="-4.585947018676541"><ele>42.2</ele><time>2026-04-18T16:05:02Z</time></trkpt><trkpt lat="48.414421051737776" lon="-4.586128904196664"><ele>42.400000000000006</ele><time>2026-04-18T16:05:04Z</time></trkpt><trkpt lat="48.41441349133481" lon="-4.586227912482212"><ele>42.599999999999994</ele><time>2026-04-18T16:05:05Z</time></trkpt><trkpt lat="48.414409653459295" lon="-4.586409052853077"><ele>42.8</ele><time>2026-04-18T16:05:07Z</time></trkpt><trkpt lat="48.414397860872775" lon="-4.586564406636691"><ele>43.0</ele><time>2026-04-18T16:05:09Z</time></trkpt><trkpt lat="48.41440324313769" lon="-4.58673775718603"><ele>43.2</ele><time>2026-04-18T16:05:11Z</time></trkpt><trkpt lat="48.41440694210996" lon="-4.586908083407504"><ele>43.4</ele><time>2026-04-18T16:05:13Z</time></trkpt><trkpt lat="48.4144104171068" lon="-4.587075838397271"><ele>43.6</ele><time>2026-04-18T16:05:15Z</time></trkpt><trkpt lat="48.414401429723334" lon="-4.5872448306371405"><ele>43.800000000000004</ele><time>2026-04-18T16:05:17Z</time></trkpt><trkpt lat="48.414382325424654" lon="-4.587410806483721"><ele>44.0</ele><time>2026-04-18T16:05:19Z</time></trkpt><trkpt lat="48.414370117168865" lon="-4.587576213019027"><ele>44.0</ele><time>2026-04-18T16:05:21Z</time></trkpt><trkpt lat="48.4143579110631" lon="-4.587746111431143"><ele>44.0</ele><time>2026-04-18T16:05:23Z</time></trkpt><trkpt lat="48.414347238633454" lon="-4.587927691099284"><ele>44.0</ele><time>2026-04-18T16:05:25Z</time></trkpt><trkpt lat="48.41433854609075" lon="-4.588023110348957"><ele>44.0</ele><time>2026-04-18T16:05:26Z</time></trkpt><trkpt lat="48.414324170520935" lon="-4.588206446739559"><ele>44.0</ele><time>2026-04-18T16:05:28Z</time></trkpt><trkpt lat="48.414305988167584" lon="-4.588389925867935"><ele>44.0</ele><time>2026-04-18T16:05:30Z</time></trkpt><trkpt lat="48.41429563571781" lon="-4.58848619269617"><ele>44.0</ele><time>2026-04-18T16:05:31Z</time></trkpt><trkpt lat="48.41428733776226" lon="-4.588582164855145"><ele>44.0</ele><time>2026-04-18T16:05:32Z</time></trkpt><trkpt lat="48.41427414261043" lon="-4.588680437482921"><ele>44.0</ele><time>2026-04-18T16:05:33Z</time></trkpt><trkpt lat="48.41426371234517" lon="-4.588775644506796"><ele>44.0</ele><time>2026-04-18T16:05:34Z</time></trkpt><trkpt lat="48.41425331928904" lon="-4.588870117504919"><ele>44.0</ele><time>2026-04-18T16:05:35Z</time></trkpt><trkpt lat="48.414242377204744" lon="-4.588964727902985"><ele>44.0</ele><time>2026-04-18T16:05:36Z</time></trkpt><trkpt lat="48.414232868498225" lon="-4.589065398258665"><ele>44.0</ele><time>2026-04-18T16:05:37Z</time></trkpt><trkpt lat="48.41422512022974" lon="-4.589163432905786"><ele>44.0</ele><time>2026-04-18T16:05:38Z</time></trkpt><trkpt lat="48.41421618325391" lon="-4.589262923988182"><ele>44.0</ele><time>2026-04-18T16:05:39Z</time></trkpt><trkpt lat="48.41420890972484" lon="-4.589363134947698"><ele>44.0</ele><time>2026-04-18T16:05:40Z</time></trkpt><trkpt lat="48.41419988661679" lon="-4.589458206612349"><ele>44.0</ele><time>2026-04-18T16:05:41Z</time></trkpt><trkpt lat="48.41419067095278" lon="-4.589556973014741"><ele>44.0</ele><time>2026-04-18T16:05:42Z</time></trkpt><trkpt lat="48.41417575381325" lon="-4.589742029681481"><ele>43.400000000000006</ele><time>2026-04-18T16:05:44Z</time></trkpt><trkpt lat="48.41416384783003" lon="-4.589925141062527"><ele>42.8</ele><time>2026-04-18T16:05:46Z</time></trkpt><trkpt lat="48.414140287805104" lon="-4.590109400056797"><ele>42.2</ele><time>2026-04-18T16:05:48Z</time></trkpt><trkpt lat="48.41412983461402" lon="-4.59029372723019"><ele>41.599999999999994</ele><time>2026-04-18T16:05:50Z</time></trkpt><trkpt lat="48.414106326562084" lon="-4.59039720201857"><ele>41.0</ele><time>2026-04-18T16:05:51Z</time></trkpt><trkpt lat="48.41409801848843" lon="-4.590493990863917"><ele>40.599999999999994</ele><time>2026-04-18T16:05:52Z</time></trkpt><trkpt lat="48.41409190699707" lon="-4.590590277563524"><ele>40.199999999999996</ele><time>2026-04-18T16:05:53Z</time></trkpt><trkpt lat="48.414082325566355" lon="-4.5906921093261595"><ele>39.8</ele><time>2026-04-18T16:05:54Z</time></trkpt><trkpt lat="48.41405718243449" lon="-4.590874622472765"><ele>39.4</ele><time>2026-04-18T16:05:56Z</time></trkpt><trkpt lat="48.41404131691194" lon="-4.591057912292279"><ele>39.0</ele><time>2026-04-18T16:05:58Z</time></trkpt><trkpt lat="48.414031279448814" lon="-4.591240160178546"><ele>38.8</ele><time>2026-04-18T16:06:00Z</time></trkpt><trkpt lat="48.41402674068918" lon="-4.5913401892465915"><ele>38.599999999999994</ele><time>2026-04-18T16:06:01Z</time></trkpt><trkpt lat="48.41401768233992" lon="-4.591525706648343"><ele>38.4</ele><time>2026-04-18T16:06:03Z</time></trkpt><trkpt lat="48.41399609228184" lon="-4.59169674578289"><ele>38.199999999999996</ele><time>2026-04-18T16:06:05Z</time></trkpt><trkpt lat="48.41400455955385" lon="-4.591857816700231"><ele>38.0</ele><time>2026-04-18T16:06:07Z</time></trkpt><trkpt lat="48.41402484127015" lon="-4.592043951873006"><ele>38.0</ele><time>2026-04-18T16:06:09Z</time></trkpt><trkpt lat="48.41406845747861" lon="-4.592211148406682"><ele>38.0</ele><time>2026-04-18T16:06:11Z</time></trkpt><trkpt lat="48.414109224863985" lon="-4.59235917164759"><ele>38.0</ele><time>2026-04-18T16:06:13Z</time></trkpt><trkpt lat="48.414153562086284" lon="-4.592500724563108"><ele>38.0</ele><time>2026-04-18T16:06:15Z</time></trkpt><trkpt lat="48.414214009124194" lon="-4.59263256173377"><ele>38.0</ele><time>2026-04-18T16:06:17Z</time></trkpt><trkpt lat="48.41428710863605" lon="-4.592754563495226"><ele>38.0</ele><time>2026-04-18T16:06:19Z</time></trkpt><trkpt lat="48.41436062314016" lon="-4.592873907195362"><ele>38.0</ele><time>2026-04-18T16:06:21Z</time></trkpt><trkpt lat="48.414439611739105" lon="-4.592995443468703"><ele>38.0</ele><time>2026-04-18T16:06:23Z</time></trkpt><trkpt lat="48.4145272728547" lon="-4.593096252185105"><ele>38.0</ele><time>2026-04-18T16:06:25Z</time></trkpt><trkpt lat="48.41461681352492" lon="-4.593193071621842"><ele>38.0</ele><time>2026-04-18T16:06:27Z</time></trkpt><trkpt lat="48.414711894618236" lon="-4.59328858446264"><ele>38.25</ele><time>2026-04-18T16:06:29Z</time></trkpt><trkpt lat="48.414807477322434" lon="-4.593381644178067"><ele>38.5</ele><time>2026-04-18T16:06:31Z</time></trkpt><trkpt lat="48.41491128316532" lon="-4.593467842921375"><ele>38.75</ele><time>2026-04-18T16:06:33Z</time></trkpt><trkpt lat="48.41500848512136" lon="-4.593572087879824"><ele>39.0</ele><time>2026-04-18T16:06:35Z</time></trkpt><trkpt lat="48.415108852708265" lon="-4.5936783098755525"><ele>38.6</ele><time>2026-04-18T16:06:37Z</time></trkpt><trkpt lat="48.41515774377685" lon="-4.593741463846455"><ele>38.2</ele><time>2026-04-18T16:06:38Z</time></trkpt><trkpt lat="48.41524496686862" lon="-4.593872502086296"><ele>37.800000000000004</ele><time>2026-04-18T16:06:40Z</time></trkpt><trkpt lat="48.415324905112904" lon="-4.594023322244205"><ele>37.4</ele><time>2026-04-18T16:06:42Z</time></trkpt><trkpt lat="48.415397620719475" lon="-4.594167113823932"><ele>37.0</ele><time>2026-04-18T16:06:44Z</time></trkpt><trkpt lat="48.415458671811336" lon="-4.594323305194179"><ele>37.5</ele><time>2026-04-18T16:06:46Z</time></trkpt><trkpt lat="48.415510733739254" lon="-4.5944778460550415"><ele>38.0</ele><time>2026-04-18T16:06:48Z</time></trkpt><trkpt lat="48.41555497230241" lon="-4.594637333782516"><ele>38.5</ele><time>2026-04-18T16:06:50Z</time></trkpt><trkpt lat="48.41559247043467" lon="-4.594804017367513"><ele>39.0</ele><time>2026-04-18T16:06:52Z</time></trkpt><trkpt lat="48.4156176856818" lon="-4.594955053629721"><ele>39.0</ele><time>2026-04-18T16:06:54Z</time></trkpt><trkpt lat="48.415642432646635" lon="-4.595102822908201"><ele>39.0</ele><time>2026-04-18T16:06:56Z</time></trkpt><trkpt lat="48.4156454866135" lon="-4.595248941234159"><ele>39.0</ele><time>2026-04-18T16:06:58Z</time></trkpt><trkpt lat="48.41565068975873" lon="-4.595375481030528"><ele>39.0</ele><time>2026-04-18T16:07:00Z</time></trkpt><trkpt lat="48.41565355934249" lon="-4.5954992708209526"><ele>39.0</ele><time>2026-04-18T16:07:02Z</time></trkpt><trkpt lat="48.41566262716535" lon="-4.595645686461264"><ele>39.0</ele><time>2026-04-18T16:07:04Z</time></trkpt><trkpt lat="48.41565750906698" lon="-4.595777909788312"><ele>39.0</ele><time>2026-04-18T16:07:06Z</time></trkpt><trkpt lat="48.4156585758594" lon="-4.5959040278117955"><ele>39.0</ele><time>2026-04-18T16:07:08Z</time></trkpt><trkpt lat="48.41565307143483" lon="-4.596034076036492"><ele>39.0</ele><time>2026-04-18T16:07:10Z</time></trkpt><trkpt lat="48.4156611497462" lon="-4.596170479160464"><ele>39.0</ele><time>2026-04-18T16:07:12Z</time></trkpt><trkpt lat="48.41565302102075" lon="-4.596302064132879"><ele>39.0</ele><time>2026-04-18T16:07:14Z</time></trkpt><trkpt lat="48.415666980722754" lon="-4.596440287945654"><ele>39.0</ele><time>2026-04-18T16:07:16Z</time></trkpt><trkpt lat="48.41566352577847" lon="-4.5965787796540925"><ele>39.0</ele><time>2026-04-18T16:07:18Z</time></trkpt><trkpt lat="48.41565369905067" lon="-4.596713974188078"><ele>39.0</ele><time>2026-04-18T16:07:20Z</time></trkpt><trkpt lat="48.415651824842804" lon="-4.596854055369688"><ele>39.0</ele><time>2026-04-18T16:07:22Z</time></trkpt><trkpt lat="48.415636944571176" lon="-4.5969877469580425"><ele>39.0</ele><time>2026-04-18T16:07:24Z</time></trkpt><trkpt lat="48.415615234960136" lon="-4.597131712064796"><ele>39.0</ele><time>2026-04-18T16:07:26Z</time></trkpt><trkpt lat="48.41559350269182" lon="-4.597275115875214"><ele>39.0</ele><time>2026-04-18T16:07:28Z</time></trkpt><trkpt lat="48.41556261284939" lon="-4.597409314188032"><ele>39.0</ele><time>2026-04-18T16:07:30Z</time></trkpt><trkpt lat="48.4155254171172" lon="-4.597542200486025"><ele>39.0</ele><time>2026-04-18T16:07:32Z</time></trkpt><trkpt lat="48.41549366074224" lon="-4.597673596216096"><ele>39.0</ele><time>2026-04-18T16:07:34Z</time></trkpt><trkpt lat="48.41546119731817" lon="-4.597797690919553"><ele>39.5</ele><time>2026-04-18T16:07:36Z</time></trkpt><trkpt lat="48.41542570853479" lon="-4.597915297915001"><ele>40.0</ele><time>2026-04-18T16:07:38Z</time></trkpt><trkpt lat="48.41539827273923" lon="-4.598041278210726"><ele>40.5</ele><time>2026-04-18T16:07:40Z</time></trkpt><trkpt lat="48.415359544207675" lon="-4.598159963285377"><ele>41.0</ele><time>2026-04-18T16:07:42Z</time></trkpt><trkpt lat="48.41533649133989" lon="-4.598272489546528"><ele>41.5</ele><time>2026-04-18T16:07:44Z</time></trkpt><trkpt lat="48.41531425709176" lon="-4.598375263649792"><ele>42.0</ele><time>2026-04-18T16:07:46Z</time></trkpt><trkpt lat="48.41529035792643" lon="-4.598464724002367"><ele>42.0</ele><time>2026-04-18T16:07:48Z</time></trkpt><trkpt lat="48.41527039773966" lon="-4.59855918719245"><ele>42.0</ele><time>2026-04-18T16:07:50Z</time></trkpt><trkpt lat="48.41525283776174" lon="-4.5986606522647415"><ele>42.0</ele><time>2026-04-18T16:07:54Z</time></trkpt><trkpt lat="48.41520828900207" lon="-4.598737132046064"><ele>42.0</ele><time>2026-04-18T16:07:58Z</time></trkpt><trkpt lat="48.415108392448616" lon="-4.5986680630088905"><ele>42.0</ele><time>2026-04-18T16:07:59Z</time></trkpt><trkpt lat="48.41503803046787" lon="-4.598595564755287"><ele>42.0</ele><time>2026-04-18T16:08:01Z</time></trkpt><trkpt lat="48.41495457574119" lon="-4.598527169332643"><ele>42.0</ele><time>2026-04-18T16:08:03Z</time></trkpt><trkpt lat="48.414864981653764" lon="-4.598456788683227"><ele>42.0</ele><time>2026-04-18T16:08:05Z</time></trkpt><trkpt lat="48.4147740531212" lon="-4.5983770437635805"><ele>42.0</ele><time>2026-04-18T16:08:07Z</time></trkpt><trkpt lat="48.41467885382302" lon="-4.598297474768499"><ele>42.0</ele><time>2026-04-18T16:08:09Z</time></trkpt><trkpt lat="48.41458162803305" lon="-4.598218509396408"><ele>42.0</ele><time>2026-04-18T16:08:11Z</time></trkpt><trkpt lat="48.41448733283313" lon="-4.598140021795864"><ele>42.400000000000006</ele><time>2026-04-18T16:08:13Z</time></trkpt><trkpt lat="48.41439126572126" lon="-4.5980568225831"><ele>42.800000000000004</ele><time>2026-04-18T16:08:15Z</time></trkpt><trkpt lat="48.414296175752305" lon="-4.597980693504877"><ele>43.2</ele><time>2026-04-18T16:08:17Z</time></trkpt><trkpt lat="48.414197801576286" lon="-4.597904638386351"><ele>43.6</ele><time>2026-04-18T16:08:19Z</time></trkpt><trkpt lat="48.41410464531659" lon="-4.597824351775327"><ele>44.0</ele><time>2026-04-18T16:08:21Z</time></trkpt><trkpt lat="48.41400764658799" lon="-4.597741645509656"><ele>43.75</ele><time>2026-04-18T16:08:23Z</time></trkpt><trkpt lat="48.41390999324657" lon="-4.5976608600755355"><ele>43.5</ele><time>2026-04-18T16:08:25Z</time></trkpt><trkpt lat="48.413808963373434" lon="-4.597580662375423"><ele>43.25</ele><time>2026-04-18T16:08:27Z</time></trkpt><trkpt lat="48.41370214927158" lon="-4.597502933843743"><ele>43.0</ele><time>2026-04-18T16:08:29Z</time></trkpt><trkpt lat="48.41359840941622" lon="-4.597405125028979"><ele>43.0</ele><time>2026-04-18T16:08:31Z</time></trkpt><trkpt lat="48.41348219274652" lon="-4.597324809841439"><ele>43.0</ele><time>2026-04-18T16:08:33Z</time></trkpt><trkpt lat="48.41342232640619" lon="-4.597278365769233"><ele>43.0</ele><time>2026-04-18T16:08:34Z</time></trkpt><trkpt lat="48.41336145017945" lon="-4.597231052933903"><ele>43.0</ele><time>2026-04-18T16:08:35Z</time></trkpt><trkpt lat="48.41330289964347" lon="-4.597183315222264"><ele>43.0</ele><time>2026-04-18T16:08:36Z</time></trkpt><trkpt lat="48.41324079586052" lon="-4.597142924075231"><ele>43.0</ele><time>2026-04-18T16:08:37Z</time></trkpt><trkpt lat="48.41318046813849" lon="-4.597099073738293"><ele>43.0</ele><time>2026-04-18T16:08:38Z</time></trkpt><trkpt lat="48.41312117185158" lon="-4.597061153028898"><ele>43.0</ele><time>2026-04-18T16:08:39Z</time></trkpt><trkpt lat="48.41300929499033" lon="-4.596980043575142"><ele>43.0</ele><time>2026-04-18T16:08:41Z</time></trkpt><trkpt lat="48.41295300001418" lon="-4.596936946898824"><ele>43.0</ele><time>2026-04-18T16:08:42Z</time></trkpt><trkpt lat="48.4128446914967" lon="-4.5968515981910265"><ele>43.0</ele><time>2026-04-18T16:08:44Z</time></trkpt><trkpt lat="48.412737328269664" lon="-4.596776003344293"><ele>43.4</ele><time>2026-04-18T16:08:46Z</time></trkpt><trkpt lat="48.41263028855742" lon="-4.596702409368532"><ele>43.8</ele><time>2026-04-18T16:08:48Z</time></trkpt><trkpt lat="48.41253412561396" lon="-4.596604659295959"><ele>44.2</ele><time>2026-04-18T16:08:50Z</time></trkpt><trkpt lat="48.41247679268155" lon="-4.596552948639764"><ele>44.6</ele><time>2026-04-18T16:08:51Z</time></trkpt><trkpt lat="48.41236855919429" lon="-4.596479230685066"><ele>45.0</ele><time>2026-04-18T16:08:53Z</time></trkpt><trkpt lat="48.412264430015576" lon="-4.596419439669432"><ele>45.0</ele><time>2026-04-18T16:08:55Z</time></trkpt><trkpt lat="48.41216465224133" lon="-4.596332802192877"><ele>45.0</ele><time>2026-04-18T16:08:57Z</time></trkpt><trkpt lat="48.412065672480516" lon="-4.596255747156169"><ele>45.0</ele><time>2026-04-18T16:08:59Z</time></trkpt><trkpt lat="48.41196966392542" lon="-4.5961842347677235"><ele>45.0</ele><time>2026-04-18T16:09:01Z</time></trkpt><trkpt lat="48.41187196001962" lon="-4.596114502391885"><ele>45.0</ele><time>2026-04-18T16:09:03Z</time></trkpt><trkpt lat="48.41177348210804" lon="-4.596036551786323"><ele>44.8</ele><time>2026-04-18T16:09:05Z</time></trkpt><trkpt lat="48.41167561779277" lon="-4.595967147755045"><ele>44.6</ele><time>2026-04-18T16:09:07Z</time></trkpt><trkpt lat="48.41161939509815" lon="-4.595921767314189"><ele>44.400000000000006</ele><time>2026-04-18T16:09:08Z</time></trkpt><trkpt lat="48.4115120388587" lon="-4.5958435681952565"><ele>44.2</ele><time>2026-04-18T16:09:10Z</time></trkpt><trkpt lat="48.41140471467209" lon="-4.595786414778713"><ele>44.0</ele><time>2026-04-18T16:09:12Z</time></trkpt><trkpt lat="48.41129547339539" lon="-4.595714911069995"><ele>43.800000000000004</ele><time>2026-04-18T16:09:14Z</time></trkpt><trkpt lat="48.41118327537424" lon="-4.595650447657877"><ele>43.6</ele><time>2026-04-18T16:09:16Z</time></trkpt><trkpt lat="48.411069626647084" lon="-4.595573544096939"><ele>43.4</ele><time>2026-04-18T16:09:18Z</time></trkpt><trkpt lat="48.41101170092954" lon="-4.595526663426305"><ele>43.2</ele><time>2026-04-18T16:09:19Z</time></trkpt><trkpt lat="48.410957578778465" lon="-4.595468779352419"><ele>43.0</ele><time>2026-04-18T16:09:20Z</time></trkpt><trkpt lat="48.41085504651633" lon="-4.595347891678674"><ele>42.714285714285715</ele><time>2026-04-18T16:09:22Z</time></trkpt><trkpt lat="48.410798343571656" lon="-4.595280512250302"><ele>42.42857142857143</ele><time>2026-04-18T16:09:23Z</time></trkpt><trkpt lat="48.41074421602531" lon="-4.595217210767418"><ele>42.14285714285714</ele><time>2026-04-18T16:09:24Z</time></trkpt><trkpt lat="48.410694501956954" lon="-4.595145432481986"><ele>41.85714285714286</ele><time>2026-04-18T16:09:25Z</time></trkpt><trkpt lat="48.410645392025785" lon="-4.59507790012675"><ele>41.57142857142857</ele><time>2026-04-18T16:09:26Z</time></trkpt><trkpt lat="48.410592439365004" lon="-4.595010661673129"><ele>41.285714285714285</ele><time>2026-04-18T16:09:27Z</time></trkpt><trkpt lat="48.41053912069969" lon="-4.594947598603958"><ele>41.0</ele><time>2026-04-18T16:09:28Z</time></trkpt><trkpt lat="48.41048317787278" lon="-4.594881708957351"><ele>40.71428571428571</ele><time>2026-04-18T16:09:29Z</time></trkpt><trkpt lat="48.410425880315735" lon="-4.594822079518375"><ele>40.42857142857143</ele><time>2026-04-18T16:09:30Z</time></trkpt><trkpt lat="48.41036766932375" lon="-4.594765541837772"><ele>40.14285714285714</ele><time>2026-04-18T16:09:31Z</time></trkpt><trkpt lat="48.410304839968276" lon="-4.594711294009114"><ele>39.857142857142854</ele><time>2026-04-18T16:09:32Z</time></trkpt><trkpt lat="48.41024145603987" lon="-4.594661960739366"><ele>39.57142857142857</ele><time>2026-04-18T16:09:33Z</time></trkpt><trkpt lat="48.41017863003966" lon="-4.594615729811117"><ele>39.285714285714285</ele><time>2026-04-18T16:09:34Z</time></trkpt><trkpt lat="48.41011357600935" lon="-4.594570797164667"><ele>39.0</ele><time>2026-04-18T16:09:35Z</time></trkpt><trkpt lat="48.410049789468175" lon="-4.594528054041306"><ele>39.0</ele><time>2026-04-18T16:09:36Z</time></trkpt><trkpt lat="48.409986413187916" lon="-4.594490693511793"><ele>39.0</ele><time>2026-04-18T16:09:37Z</time></trkpt><trkpt lat="48.40991782755134" lon="-4.594453869936304"><ele>39.0</ele><time>2026-04-18T16:09:38Z</time></trkpt><trkpt lat="48.40985934832497" lon="-4.5944060083650164"><ele>39.0</ele><time>2026-04-18T16:09:39Z</time></trkpt><trkpt lat="48.409796107645015" lon="-4.594365174506193"><ele>39.0</ele><time>2026-04-18T16:09:40Z</time></trkpt><trkpt lat="48.40973112036129" lon="-4.594333648316046"><ele>39.0</ele><time>2026-04-18T16:09:41Z</time></trkpt><trkpt lat="48.40966687463761" lon="-4.5943056040327965"><ele>39.0</ele><time>2026-04-18T16:09:42Z</time></trkpt><trkpt lat="48.40960494896186" lon="-4.594266879660256"><ele>39.6</ele><time>2026-04-18T16:09:43Z</time></trkpt><trkpt lat="48.40954553952261" lon="-4.594230065728323"><ele>40.2</ele><time>2026-04-18T16:09:44Z</time></trkpt><trkpt lat="48.409486224853545" lon="-4.594190375998884"><ele>40.800000000000004</ele><time>2026-04-18T16:09:45Z</time></trkpt><trkpt lat="48.40937249640957" lon="-4.594113534745034"><ele>41.4</ele><time>2026-04-18T16:09:47Z</time></trkpt><trkpt lat="48.40926071583765" lon="-4.594064271552023"><ele>42.0</ele><time>2026-04-18T16:09:49Z</time></trkpt><trkpt lat="48.40914392816668" lon="-4.594018983110008"><ele>42.0</ele><time>2026-04-18T16:09:51Z</time></trkpt><trkpt lat="48.40903499944916" lon="-4.593965898682736"><ele>42.0</ele><time>2026-04-18T16:09:53Z</time></trkpt><trkpt lat="48.40893254142707" lon="-4.593911506081078"><ele>42.0</ele><time>2026-04-18T16:09:55Z</time></trkpt><trkpt lat="48.40883366465686" lon="-4.593861369942797"><ele>42.0</ele><time>2026-04-18T16:09:57Z</time></trkpt><trkpt lat="48.40873066554185" lon="-4.593805152553508"><ele>42.0</ele><time>2026-04-18T16:09:59Z</time></trkpt><trkpt lat="48.408634718569566" lon="-4.593757242620336"><ele>42.2</ele><time>2026-04-18T16:10:01Z</time></trkpt><trkpt lat="48.40854453208442" lon="-4.593709581109002"><ele>42.400000000000006</ele><time>2026-04-18T16:10:03Z</time></trkpt><trkpt lat="48.408450229900595" lon="-4.593664696370499"><ele>42.599999999999994</ele><time>2026-04-18T16:10:05Z</time></trkpt><trkpt lat="48.40835634909014" lon="-4.593607523707499"><ele>42.8</ele><time>2026-04-18T16:10:07Z</time></trkpt><trkpt lat="48.40826773407457" lon="-4.5935359738087005"><ele>43.0</ele><time>2026-04-18T16:10:09Z</time></trkpt><trkpt lat="48.40817633205264" lon="-4.593482697469298"><ele>43.0</ele><time>2026-04-18T16:10:11Z</time></trkpt><trkpt lat="48.408090573775446" lon="-4.593392353136893"><ele>43.0</ele><time>2026-04-18T16:10:13Z</time></trkpt><trkpt lat="48.40801698784855" lon="-4.5932801937189"><ele>43.0</ele><time>2026-04-18T16:10:15Z</time></trkpt><trkpt lat="48.4079435313203" lon="-4.593177285000662"><ele>43.0</ele><time>2026-04-18T16:10:17Z</time></trkpt><trkpt lat="48.407894403592806" lon="-4.593071372156104"><ele>43.0</ele><time>2026-04-18T16:10:19Z</time></trkpt><trkpt lat="48.407852094691904" lon="-4.592956687869222"><ele>43.66666666666667</ele><time>2026-04-18T16:10:21Z</time></trkpt><trkpt lat="48.40780514928203" lon="-4.5928423443862085"><ele>44.333333333333336</ele><time>2026-04-18T16:10:23Z</time></trkpt><trkpt lat="48.4077549831813" lon="-4.592736955332423"><ele>45.0</ele><time>2026-04-18T16:10:25Z</time></trkpt><trkpt lat="48.40769708378541" lon="-4.592624847876696"><ele>45.666666666666664</ele><time>2026-04-18T16:10:27Z</time></trkpt><trkpt lat="48.40762602824876" lon="-4.592542805736482"><ele>46.33333333333333</ele><time>2026-04-18T16:10:29Z</time></trkpt><trkpt lat="48.40756047350029" lon="-4.592479140298482"><ele>47.0</ele><time>2026-04-18T16:10:31Z</time></trkpt><trkpt lat="48.40749225315957" lon="-4.59241589131859"><ele>47.0</ele><time>2026-04-18T16:10:33Z</time></trkpt><trkpt lat="48.407430732466096" lon="-4.5923606513127675"><ele>47.0</ele><time>2026-04-18T16:10:35Z</time></trkpt><trkpt lat="48.40735925383623" lon="-4.5923122812904245"><ele>47.0</ele><time>2026-04-18T16:10:37Z</time></trkpt><trkpt lat="48.40728584027657" lon="-4.592249341474615"><ele>47.0</ele><time>2026-04-18T16:10:39Z</time></trkpt><trkpt lat="48.40721820378921" lon="-4.592198939784192"><ele>47.0</ele><time>2026-04-18T16:10:41Z</time></trkpt><trkpt lat="48.40714335103868" lon="-4.592139794342102"><ele>47.0</ele><time>2026-04-18T16:10:43Z</time></trkpt><trkpt lat="48.40706384575254" lon="-4.5920936604147515"><ele>47.2</ele><time>2026-04-18T16:10:45Z</time></trkpt><trkpt lat="48.40697025215856" lon="-4.592052072737792"><ele>47.400000000000006</ele><time>2026-04-18T16:10:47Z</time></trkpt><trkpt lat="48.40688712255835" lon="-4.5920094782751315"><ele>47.599999999999994</ele><time>2026-04-18T16:10:49Z</time></trkpt><trkpt lat="48.40680141531064" lon="-4.591958835440715"><ele>47.8</ele><time>2026-04-18T16:10:51Z</time></trkpt><trkpt lat="48.40670140415133" lon="-4.591903277430976"><ele>48.0</ele><time>2026-04-18T16:10:53Z</time></trkpt><trkpt lat="48.40659807064323" lon="-4.591825997922138"><ele>47.5</ele><time>2026-04-18T16:10:55Z</time></trkpt><trkpt lat="48.40649835572388" lon="-4.591722677093379"><ele>47.0</ele><time>2026-04-18T16:10:57Z</time></trkpt><trkpt lat="48.40644656992069" lon="-4.591656307344363"><ele>46.5</ele><time>2026-04-18T16:10:58Z</time></trkpt><trkpt lat="48.406391083443225" lon="-4.591592070445"><ele>46.0</ele><time>2026-04-18T16:10:59Z</time></trkpt><trkpt lat="48.40633674356275" lon="-4.591521386457309"><ele>45.5</ele><time>2026-04-18T16:11:00Z</time></trkpt><trkpt lat="48.40628218110831" lon="-4.591447797843654"><ele>45.0</ele><time>2026-04-18T16:11:01Z</time></trkpt><trkpt lat="48.40622068326248" lon="-4.59138248770202"><ele>44.666666666666664</ele><time>2026-04-18T16:11:02Z</time></trkpt><trkpt lat="48.40614921135519" lon="-4.591336618654871"><ele>44.333333333333336</ele><time>2026-04-18T16:11:03Z</time></trkpt><trkpt lat="48.406074854908276" lon="-4.591302852133356"><ele>44.0</ele><time>2026-04-18T16:11:04Z</time></trkpt><trkpt lat="48.40599589775287" lon="-4.591298072335397"><ele>43.66666666666667</ele><time>2026-04-18T16:11:05Z</time></trkpt><trkpt lat="48.40591473929928" lon="-4.591316832406903"><ele>43.333333333333336</ele><time>2026-04-18T16:11:06Z</time></trkpt><trkpt lat="48.40583696860652" lon="-4.591355184277779"><ele>43.0</ele><time>2026-04-18T16:11:07Z</time></trkpt><trkpt lat="48.4057653604391" lon="-4.591413206759154"><ele>43.0</ele><time>2026-04-18T16:11:08Z</time></trkpt><trkpt lat="48.40569418909377" lon="-4.5914691463399"><ele>43.0</ele><time>2026-04-18T16:11:09Z</time></trkpt><trkpt lat="48.40562345693524" lon="-4.591524760540773"><ele>43.0</ele><time>2026-04-18T16:11:10Z</time></trkpt><trkpt lat="48.40555538441511" lon="-4.591585044426194"><ele>43.0</ele><time>2026-04-18T16:11:11Z</time></trkpt><trkpt lat="48.40548467457147" lon="-4.591640571756303"><ele>43.0</ele><time>2026-04-18T16:11:12Z</time></trkpt><trkpt lat="48.40541535036318" lon="-4.591696178637788"><ele>43.0</ele><time>2026-04-18T16:11:13Z</time></trkpt><trkpt lat="48.40534679234609" lon="-4.591750811172436"><ele>43.142857142857146</ele><time>2026-04-18T16:11:14Z</time></trkpt><trkpt lat="48.40528081088731" lon="-4.591804435558226"><ele>43.285714285714285</ele><time>2026-04-18T16:11:15Z</time></trkpt><trkpt lat="48.40521736174211" lon="-4.5918594060839"><ele>43.42857142857143</ele><time>2026-04-18T16:11:16Z</time></trkpt><trkpt lat="48.40515237635113" lon="-4.591912231027194"><ele>43.57142857142857</ele><time>2026-04-18T16:11:17Z</time></trkpt><trkpt lat="48.405090717944994" lon="-4.5919700943234"><ele>43.714285714285715</ele><time>2026-04-18T16:11:18Z</time></trkpt><trkpt lat="48.40503309084162" lon="-4.592038344552731"><ele>43.85714285714286</ele><time>2026-04-18T16:11:19Z</time></trkpt><trkpt lat="48.40498423171585" lon="-4.592115950607072"><ele>44.0</ele><time>2026-04-18T16:11:20Z</time></trkpt><trkpt lat="48.40493923957647" lon="-4.592200873931663"><ele>44.166666666666664</ele><time>2026-04-18T16:11:21Z</time></trkpt><trkpt lat="48.40489879668192" lon="-4.59228728178091"><ele>44.33333333333333</ele><time>2026-04-18T16:11:22Z</time></trkpt><trkpt lat="48.4048671644099" lon="-4.5923768655923976"><ele>44.5</ele><time>2026-04-18T16:11:23Z</time></trkpt><trkpt lat="48.404836787486815" lon="-4.592460908657053"><ele>44.666666666666664</ele><time>2026-04-18T16:11:24Z</time></trkpt><trkpt lat="48.40480723946386" lon="-4.592548501933866"><ele>44.833333333333336</ele><time>2026-04-18T16:11:25Z</time></trkpt><trkpt lat="48.40475918459338" lon="-4.5927194365766075"><ele>45.0</ele><time>2026-04-18T16:11:27Z</time></trkpt><trkpt lat="48.40473888379367" lon="-4.5928102161069795"><ele>45.4</ele><time>2026-04-18T16:11:28Z</time></trkpt><trkpt lat="48.404707762780625" lon="-4.59298507089944"><ele>45.8</ele><time>2026-04-18T16:11:30Z</time></trkpt><trkpt lat="48.404685257397716" lon="-4.59315319381005"><ele>46.2</ele><time>2026-04-18T16:11:32Z</time></trkpt><trkpt lat="48.40466766993117" lon="-4.5933148386417075"><ele>46.6</ele><time>2026-04-18T16:11:34Z</time></trkpt><trkpt lat="48.40465323350829" lon="-4.593473172997751"><ele>47.0</ele><time>2026-04-18T16:11:36Z</time></trkpt><trkpt lat="48.4046475102387" lon="-4.593638156158467"><ele>47.400000000000006</ele><time>2026-04-18T16:11:38Z</time></trkpt><trkpt lat="48.40464209255595" lon="-4.5937906251614695"><ele>47.800000000000004</ele><time>2026-04-18T16:11:40Z</time></trkpt><trkpt lat="48.40463616327836" lon="-4.593947979095247"><ele>48.2</ele><time>2026-04-18T16:11:42Z</time></trkpt><trkpt lat="48.404640097096355" lon="-4.594113280779773"><ele>48.6</ele><time>2026-04-18T16:11:44Z</time></trkpt><trkpt lat="48.40464409939262" lon="-4.594255762134277"><ele>49.0</ele><time>2026-04-18T16:11:46Z</time></trkpt><trkpt lat="48.404649967217914" lon="-4.594407936503554"><ele>49.400000000000006</ele><time>2026-04-18T16:11:48Z</time></trkpt><trkpt lat="48.404661394153294" lon="-4.594571342515363"><ele>49.8</ele><time>2026-04-18T16:11:50Z</time></trkpt><trkpt lat="48.40466937562568" lon="-4.5947224404395275"><ele>50.2</ele><time>2026-04-18T16:11:52Z</time></trkpt><trkpt lat="48.40467454533417" lon="-4.5948588850087395"><ele>50.599999999999994</ele><time>2026-04-18T16:11:54Z</time></trkpt><trkpt lat="48.4046679649244" lon="-4.594992952383579"><ele>51.0</ele><time>2026-04-18T16:11:56Z</time></trkpt><trkpt lat="48.404667036847535" lon="-4.59512525798855"><ele>51.0</ele><time>2026-04-18T16:11:58Z</time></trkpt><trkpt lat="48.404652476673476" lon="-4.595254138944301"><ele>51.0</ele><time>2026-04-18T16:12:00Z</time></trkpt><trkpt lat="48.404633910728414" lon="-4.595374490074473"><ele>51.0</ele><time>2026-04-18T16:12:02Z</time></trkpt><trkpt lat="48.40461712770116" lon="-4.5954973937904136"><ele>51.0</ele><time>2026-04-18T16:12:04Z</time></trkpt><trkpt lat="48.40461479932519" lon="-4.595622233182421"><ele>51.0</ele><time>2026-04-18T16:12:06Z</time></trkpt><trkpt lat="48.40457926479378" lon="-4.595728138535865"><ele>51.0</ele><time>2026-04-18T16:12:08Z</time></trkpt><trkpt lat="48.40455819920835" lon="-4.59583373561438"><ele>51.5</ele><time>2026-04-18T16:12:10Z</time></trkpt><trkpt lat="48.40451949894324" lon="-4.595946582119763"><ele>52.0</ele><time>2026-04-18T16:12:12Z</time></trkpt><trkpt lat="48.40448061399817" lon="-4.596041118319401"><ele>52.5</ele><time>2026-04-18T16:12:14Z</time></trkpt><trkpt lat="48.40443469715348" lon="-4.596162637932712"><ele>53.0</ele><time>2026-04-18T16:12:16Z</time></trkpt><trkpt lat="48.40439658553278" lon="-4.596264384589709"><ele>53.5</ele><time>2026-04-18T16:12:18Z</time></trkpt><trkpt lat="48.40436126940654" lon="-4.596365777620382"><ele>54.0</ele><time>2026-04-18T16:12:20Z</time></trkpt><trkpt lat="48.404317760101684" lon="-4.596462202233056"><ele>54.285714285714285</ele><time>2026-04-18T16:12:22Z</time></trkpt><trkpt lat="48.40427777820514" lon="-4.596556182426946"><ele>54.57142857142857</ele><time>2026-04-18T16:12:24Z</time></trkpt><trkpt lat="48.40423577695227" lon="-4.596640603068155"><ele>54.85714285714286</ele><time>2026-04-18T16:12:26Z</time></trkpt><trkpt lat="48.40419883246856" lon="-4.596718715870332"><ele>55.14285714285714</ele><time>2026-04-18T16:12:28Z</time></trkpt><trkpt lat="48.404137233675" lon="-4.596844872836289"><ele>55.42857142857143</ele><time>2026-04-18T16:12:31Z</time></trkpt><trkpt lat="48.40409445416887" lon="-4.596933692937197"><ele>55.714285714285715</ele><time>2026-04-18T16:12:33Z</time></trkpt><trkpt lat="48.404062412893275" lon="-4.597016326793786"><ele>56.0</ele><time>2026-04-18T16:12:35Z</time></trkpt><trkpt lat="48.40401328821962" lon="-4.59713963119011"><ele>56.14285714285714</ele><time>2026-04-18T16:12:38Z</time></trkpt><trkpt lat="48.403975146762654" lon="-4.597221359852153"><ele>56.285714285714285</ele><time>2026-04-18T16:12:40Z</time></trkpt><trkpt lat="48.403941256348446" lon="-4.597314006896587"><ele>56.42857142857143</ele><time>2026-04-18T16:12:42Z</time></trkpt><trkpt lat="48.40388886328172" lon="-4.597437151665442"><ele>56.57142857142857</ele><time>2026-04-18T16:12:45Z</time></trkpt><trkpt lat="48.403849776913844" lon="-4.59752431811467"><ele>56.71428571428571</ele><time>2026-04-18T16:12:47Z</time></trkpt><trkpt lat="48.40380789365996" lon="-4.597605271855349"><ele>56.857142857142854</ele><time>2026-04-18T16:12:49Z</time></trkpt><trkpt lat="48.40376957872924" lon="-4.597685904790969"><ele>57.0</ele><time>2026-04-18T16:12:51Z</time></trkpt><trkpt lat="48.40372974654915" lon="-4.597766037961148"><ele>57.166666666666664</ele><time>2026-04-18T16:12:53Z</time></trkpt><trkpt lat="48.40368252099063" lon="-4.5978829150647735"><ele>57.33333333333333</ele><time>2026-04-18T16:12:56Z</time></trkpt><trkpt lat="48.403642507809764" lon="-4.597970348170614"><ele>57.5</ele><time>2026-04-18T16:12:58Z</time></trkpt><trkpt lat="48.40360478592327" lon="-4.598050758881274"><ele>57.666666666666664</ele><time>2026-04-18T16:13:00Z</time></trkpt><trkpt lat="48.40356470027539" lon="-4.598140350080005"><ele>57.83333333333333</ele><time>2026-04-18T16:13:02Z</time></trkpt><trkpt lat="48.403513716902715" lon="-4.598251960627238"><ele>58.0</ele><time>2026-04-18T16:13:05Z</time></trkpt><trkpt lat="48.403475822680704" lon="-4.598331908140018"><ele>58.00000000000001</ele><time>2026-04-18T16:13:07Z</time></trkpt><trkpt lat="48.40341834398842" lon="-4.598434033696516"><ele>58.0</ele><time>2026-04-18T16:13:10Z</time></trkpt><trkpt lat="48.4033809627245" lon="-4.598513264448502"><ele>58.00000000000001</ele><time>2026-04-18T16:13:12Z</time></trkpt><trkpt lat="48.40333549475934" lon="-4.598585257793109"><ele>58.00000000000001</ele><time>2026-04-18T16:13:14Z</time></trkpt><trkpt lat="48.40329347747015" lon="-4.5986708853199945"><ele>58.0</ele><time>2026-04-18T16:13:16Z</time></trkpt><trkpt lat="48.403245494496225" lon="-4.598752578142639"><ele>58.00000000000001</ele><time>2026-04-18T16:13:18Z</time></trkpt><trkpt lat="48.40320609379096" lon="-4.598830836222779"><ele>58.00000000000001</ele><time>2026-04-18T16:13:20Z</time></trkpt><trkpt lat="48.40315695360703" lon="-4.598930463331972"><ele>57.99999999999999</ele><time>2026-04-18T16:13:22Z</time></trkpt><trkpt lat="48.40311121465279" lon="-4.599013772976984"><ele>58.0</ele><time>2026-04-18T16:13:24Z</time></trkpt><trkpt lat="48.40305839684671" lon="-4.599106341306764"><ele>58.0</ele><time>2026-04-18T16:13:26Z</time></trkpt><trkpt lat="48.40300761063202" lon="-4.5991952442048065"><ele>58.0</ele><time>2026-04-18T16:13:28Z</time></trkpt><trkpt lat="48.40295013817846" lon="-4.599303488950657"><ele>57.99999999999999</ele><time>2026-04-18T16:13:30Z</time></trkpt><trkpt lat="48.402893065190554" lon="-4.599399226291111"><ele>58.0</ele><time>2026-04-18T16:13:32Z</time></trkpt><trkpt lat="48.402836662586395" lon="-4.5994974773085655"><ele>58.2</ele><time>2026-04-18T16:13:34Z</time></trkpt><trkpt lat="48.402778444448444" lon="-4.599598553459791"><ele>58.4</ele><time>2026-04-18T16:13:36Z</time></trkpt><trkpt lat="48.40271532958139" lon="-4.599702895793351"><ele>58.60000000000001</ele><time>2026-04-18T16:13:38Z</time></trkpt><trkpt lat="48.402649198634826" lon="-4.599809151723172"><ele>58.800000000000004</ele><time>2026-04-18T16:13:40Z</time></trkpt><trkpt lat="48.402591377093515" lon="-4.599913437800971"><ele>59.0</ele><time>2026-04-18T16:13:42Z</time></trkpt><trkpt lat="48.40252614639164" lon="-4.600016883842874"><ele>59.0</ele><time>2026-04-18T16:13:44Z</time></trkpt><trkpt lat="48.40246836501873" lon="-4.600124965154267"><ele>59.00000000000001</ele><time>2026-04-18T16:13:46Z</time></trkpt><trkpt lat="48.40240555584233" lon="-4.600230577655469"><ele>59.00000000000001</ele><time>2026-04-18T16:13:48Z</time></trkpt><trkpt lat="48.40234201914182" lon="-4.600330607837084"><ele>59.0</ele><time>2026-04-18T16:13:50Z</time></trkpt><trkpt lat="48.40227725891542" lon="-4.600426108004421"><ele>59.0</ele><time>2026-04-18T16:13:52Z</time></trkpt><trkpt lat="48.40221207291789" lon="-4.600512923443306"><ele>59.0</ele><time>2026-04-18T16:13:54Z</time></trkpt><trkpt lat="48.40213138768975" lon="-4.600605485803129"><ele>59.00000000000001</ele><time>2026-04-18T16:13:56Z</time></trkpt><trkpt lat="48.4020549243635" lon="-4.600662984587764"><ele>59.00000000000001</ele><time>2026-04-18T16:13:58Z</time></trkpt><trkpt lat="48.40197427617376" lon="-4.600732870534105"><ele>59.0</ele><time>2026-04-18T16:14:00Z</time></trkpt><trkpt lat="48.401885653001656" lon="-4.600797335338766"><ele>59.0</ele><time>2026-04-18T16:14:02Z</time></trkpt><trkpt lat="48.40180100886355" lon="-4.60086341162992"><ele>59.00000000000001</ele><time>2026-04-18T16:14:04Z</time></trkpt><trkpt lat="48.40171484597674" lon="-4.600915679277107"><ele>59.0</ele><time>2026-04-18T16:14:06Z</time></trkpt><trkpt lat="48.40163242099011" lon="-4.60097310058497"><ele>59.0</ele><time>2026-04-18T16:14:08Z</time></trkpt><trkpt lat="48.40156550507095" lon="-4.6010224817072976"><ele>59.0</ele><time>2026-04-18T16:14:10Z</time></trkpt><trkpt lat="48.40148054917658" lon="-4.601058601585108"><ele>59.00000000000001</ele><time>2026-04-18T16:14:12Z</time></trkpt><trkpt lat="48.40139376870238" lon="-4.601106712029998"><ele>59.0</ele><time>2026-04-18T16:14:14Z</time></trkpt><trkpt lat="48.40130170060481" lon="-4.6011539512974196"><ele>59.16666666666667</ele><time>2026-04-18T16:14:16Z</time></trkpt><trkpt lat="48.401239723266315" lon="-4.601248940210782"><ele>59.333333333333336</ele><time>2026-04-18T16:14:18Z</time></trkpt><trkpt lat="48.401212938637194" lon="-4.601381043903873"><ele>59.5</ele><time>2026-04-18T16:14:20Z</time></trkpt><trkpt lat="48.401216272054505" lon="-4.6015088470450785"><ele>59.66666666666667</ele><time>2026-04-18T16:14:22Z</time></trkpt><trkpt lat="48.40122856126923" lon="-4.601633857159005"><ele>59.833333333333336</ele><time>2026-04-18T16:14:24Z</time></trkpt><trkpt lat="48.40122761044397" lon="-4.60174644924346"><ele>60.0</ele><time>2026-04-18T16:14:26Z</time></trkpt><trkpt lat="48.401229447798755" lon="-4.601863997080469"><ele>60.0</ele><time>2026-04-18T16:14:28Z</time></trkpt><trkpt lat="48.40122981580476" lon="-4.601978228933889"><ele>60.0</ele><time>2026-04-18T16:14:30Z</time></trkpt><trkpt lat="48.401228521256826" lon="-4.60209352620802"><ele>60.0</ele><time>2026-04-18T16:14:32Z</time></trkpt><trkpt lat="48.40123364444821" lon="-4.602200430258079"><ele>60.0</ele><time>2026-04-18T16:14:34Z</time></trkpt><trkpt lat="48.401231399064564" lon="-4.602308517980847"><ele>60.0</ele><time>2026-04-18T16:14:36Z</time></trkpt><trkpt lat="48.40123161304339" lon="-4.602417131351502"><ele>60.0</ele><time>2026-04-18T16:14:38Z</time></trkpt><trkpt lat="48.401226768780425" lon="-4.602524399266326"><ele>60.0</ele><time>2026-04-18T16:14:40Z</time></trkpt><trkpt lat="48.40123501294479" lon="-4.60262251078845"><ele>60.28571428571429</ele><time>2026-04-18T16:14:42Z</time></trkpt><trkpt lat="48.40123106207821" lon="-4.602731834516428"><ele>60.57142857142857</ele><time>2026-04-18T16:14:44Z</time></trkpt><trkpt lat="48.40123298496404" lon="-4.6028435654705255"><ele>60.85714285714286</ele><time>2026-04-18T16:14:46Z</time></trkpt><trkpt lat="48.40123526855984" lon="-4.602952555632408"><ele>61.142857142857146</ele><time>2026-04-18T16:14:48Z</time></trkpt><trkpt lat="48.40123976590093" lon="-4.603064047408091"><ele>61.42857142857143</ele><time>2026-04-18T16:14:50Z</time></trkpt><trkpt lat="48.401238980489104" lon="-4.6031650492809435"><ele>61.714285714285715</ele><time>2026-04-18T16:14:52Z</time></trkpt><trkpt lat="48.40124058954208" lon="-4.603289818683973"><ele>62.0</ele><time>2026-04-18T16:14:54Z</time></trkpt><trkpt lat="48.40123770578259" lon="-4.603394263321412"><ele>62.28571428571429</ele><time>2026-04-18T16:14:56Z</time></trkpt><trkpt lat="48.401239558139025" lon="-4.603500088588437"><ele>62.57142857142858</ele><time>2026-04-18T16:14:58Z</time></trkpt><trkpt lat="48.40123822876105" lon="-4.603605640699001"><ele>62.85714285714286</ele><time>2026-04-18T16:15:00Z</time></trkpt><trkpt lat="48.401240429683845" lon="-4.603712112456909"><ele>63.14285714285714</ele><time>2026-04-18T16:15:02Z</time></trkpt><trkpt lat="48.40124183341342" lon="-4.603814223302507"><ele>63.42857142857142</ele><time>2026-04-18T16:15:04Z</time></trkpt><trkpt lat="48.40124498444613" lon="-4.603911951621465"><ele>63.71428571428571</ele><time>2026-04-18T16:15:06Z</time></trkpt><trkpt lat="48.40124474716011" lon="-4.604016223495575"><ele>64.0</ele><time>2026-04-18T16:15:08Z</time></trkpt><trkpt lat="48.401247482941685" lon="-4.6041221690719825"><ele>64.33333333333333</ele><time>2026-04-18T16:15:10Z</time></trkpt><trkpt lat="48.40124510795456" lon="-4.604235552185444"><ele>64.66666666666666</ele><time>2026-04-18T16:15:12Z</time></trkpt><trkpt lat="48.401249354330844" lon="-4.60433370536024"><ele>65.0</ele><time>2026-04-18T16:15:14Z</time></trkpt><trkpt lat="48.40125681370104" lon="-4.604473007622729"><ele>65.33333333333333</ele><time>2026-04-18T16:15:17Z</time></trkpt><trkpt lat="48.401258369047994" lon="-4.604610535410316"><ele>65.66666666666667</ele><time>2026-04-18T16:15:20Z</time></trkpt><trkpt lat="48.401262683919335" lon="-4.604748268954518"><ele>66.0</ele><time>2026-04-18T16:15:23Z</time></trkpt><trkpt lat="48.40126869139937" lon="-4.604848224748749"><ele>66.14285714285714</ele><time>2026-04-18T16:15:25Z</time></trkpt><trkpt lat="48.401272807182" lon="-4.60494719933904"><ele>66.28571428571429</ele><time>2026-04-18T16:15:27Z</time></trkpt><trkpt lat="48.401276044246714" lon="-4.60508654410336"><ele>66.42857142857143</ele><time>2026-04-18T16:15:30Z</time></trkpt><trkpt lat="48.40128374355435" lon="-4.605182017702245"><ele>66.57142857142857</ele><time>2026-04-18T16:15:32Z</time></trkpt><trkpt lat="48.40128493263462" lon="-4.60528250963559"><ele>66.71428571428571</ele><time>2026-04-18T16:15:34Z</time></trkpt><trkpt lat="48.40129042987156" lon="-4.605378900789438"><ele>66.85714285714286</ele><time>2026-04-18T16:15:36Z</time></trkpt><trkpt lat="48.40129681392296" lon="-4.605479605809045"><ele>67.0</ele><time>2026-04-18T16:15:38Z</time></trkpt><trkpt lat="48.40130005818149" lon="-4.605575311120217"><ele>67.33333333333333</ele><time>2026-04-18T16:15:40Z</time></trkpt><trkpt lat="48.40130582065937" lon="-4.605712216776849"><ele>67.66666666666666</ele><time>2026-04-18T16:15:43Z</time></trkpt><trkpt lat="48.4013096108592" lon="-4.605853488286948"><ele>68.0</ele><time>2026-04-18T16:15:46Z</time></trkpt><trkpt lat="48.40131432805383" lon="-4.60599228691836"><ele>68.33333333333333</ele><time>2026-04-18T16:15:49Z</time></trkpt><trkpt lat="48.40131659240131" lon="-4.606089498774639"><ele>68.66666666666667</ele><time>2026-04-18T16:15:51Z</time></trkpt><trkpt lat="48.401319648613985" lon="-4.6061855583317675"><ele>69.0</ele><time>2026-04-18T16:15:53Z</time></trkpt><trkpt lat="48.40132591431262" lon="-4.606280759827355"><ele>69.16666666666667</ele><time>2026-04-18T16:15:55Z</time></trkpt><trkpt lat="48.401332807582314" lon="-4.606415887487394"><ele>69.33333333333333</ele><time>2026-04-18T16:15:58Z</time></trkpt><trkpt lat="48.4013378514676" lon="-4.606560395977002"><ele>69.5</ele><time>2026-04-18T16:16:01Z</time></trkpt><trkpt lat="48.40133841007181" lon="-4.606658467578635"><ele>69.66666666666666</ele><time>2026-04-18T16:16:03Z</time></trkpt><trkpt lat="48.401352275101765" lon="-4.606801684141597"><ele>69.83333333333333</ele><time>2026-04-18T16:16:06Z</time></trkpt><trkpt lat="48.401353081415095" lon="-4.60690847312129"><ele>70.0</ele><time>2026-04-18T16:16:08Z</time></trkpt><trkpt lat="48.40135872123374" lon="-4.607049526893356"><ele>70.16666666666666</ele><time>2026-04-18T16:16:11Z</time></trkpt><trkpt lat="48.40136371423704" lon="-4.607147718477109"><ele>70.33333333333333</ele><time>2026-04-18T16:16:13Z</time></trkpt><trkpt lat="48.40136970685358" lon="-4.607280581481053"><ele>70.5</ele><time>2026-04-18T16:16:16Z</time></trkpt><trkpt lat="48.40137420138627" lon="-4.607419330937001"><ele>70.66666666666667</ele><time>2026-04-18T16:16:19Z</time></trkpt><trkpt lat="48.401372833536506" lon="-4.607558387938401"><ele>70.83333333333334</ele><time>2026-04-18T16:16:22Z</time></trkpt><trkpt lat="48.40138029554005" lon="-4.6076959020207"><ele>71.0</ele><time>2026-04-18T16:16:25Z</time></trkpt><trkpt lat="48.4013824271966" lon="-4.6077912711345865"><ele>71.14285714285714</ele><time>2026-04-18T16:16:27Z</time></trkpt><trkpt lat="48.40138557374576" lon="-4.607932044597047"><ele>71.28571428571428</ele><time>2026-04-18T16:16:30Z</time></trkpt><trkpt lat="48.401391445449924" lon="-4.608026765405502"><ele>71.42857142857143</ele><time>2026-04-18T16:16:32Z</time></trkpt><trkpt lat="48.40139783957292" lon="-4.6081213698349694"><ele>71.57142857142857</ele><time>2026-04-18T16:16:34Z</time></trkpt><trkpt lat="48.40139576126454" lon="-4.608220467289739"><ele>71.71428571428572</ele><time>2026-04-18T16:16:36Z</time></trkpt><trkpt lat="48.401401340724476" lon="-4.608319340028792"><ele>71.85714285714286</ele><time>2026-04-18T16:16:38Z</time></trkpt><trkpt lat="48.401412531631784" lon="-4.608453905996879"><ele>72.0</ele><time>2026-04-18T16:16:41Z</time></trkpt><trkpt lat="48.4014117979817" lon="-4.608553014026582"><ele>72.00000000000001</ele><time>2026-04-18T16:16:43Z</time></trkpt><trkpt lat="48.401426465954415" lon="-4.608649071243034"><ele>72.0</ele><time>2026-04-18T16:16:45Z</time></trkpt><trkpt lat="48.40142679398061" lon="-4.608755565000631"><ele>72.0</ele><time>2026-04-18T16:16:47Z</time></trkpt><trkpt lat="48.40143113810653" lon="-4.608856212115001"><ele>72.0</ele><time>2026-04-18T16:16:49Z</time></trkpt><trkpt lat="48.40143354075749" lon="-4.608964915378013"><ele>72.0</ele><time>2026-04-18T16:16:51Z</time></trkpt><trkpt lat="48.401436921918226" lon="-4.609107969166823"><ele>72.00000000000001</ele><time>2026-04-18T16:16:54Z</time></trkpt><trkpt lat="48.40144103477501" lon="-4.609210159575004"><ele>72.0</ele><time>2026-04-18T16:16:56Z</time></trkpt><trkpt lat="48.40144032292845" lon="-4.609313678275858"><ele>72.00000000000001</ele><time>2026-04-18T16:16:58Z</time></trkpt><trkpt lat="48.40144731933617" lon="-4.609422185232678"><ele>72.0</ele><time>2026-04-18T16:17:00Z</time></trkpt><trkpt lat="48.401453604181434" lon="-4.609519686663763"><ele>72.0</ele><time>2026-04-18T16:17:02Z</time></trkpt><trkpt lat="48.40145718317473" lon="-4.609650577005705"><ele>72.0</ele><time>2026-04-18T16:17:05Z</time></trkpt><trkpt lat="48.401463730373074" lon="-4.609758026695507"><ele>72.0</ele><time>2026-04-18T16:17:07Z</time></trkpt><trkpt lat="48.40146358589591" lon="-4.609859153242817"><ele>72.00000000000001</ele><time>2026-04-18T16:17:09Z</time></trkpt><trkpt lat="48.401468202211376" lon="-4.60996127361898"><ele>72.0</ele><time>2026-04-18T16:17:11Z</time></trkpt><trkpt lat="48.40147055030429" lon="-4.610069150905228"><ele>72.14285714285715</ele><time>2026-04-18T16:17:13Z</time></trkpt><trkpt lat="48.40147885823494" lon="-4.610172634813429"><ele>72.28571428571429</ele><time>2026-04-18T16:17:15Z</time></trkpt><trkpt lat="48.401491297474756" lon="-4.6102763229132675"><ele>72.42857142857143</ele><time>2026-04-18T16:17:17Z</time></trkpt><trkpt lat="48.40149827260025" lon="-4.6103729369848905"><ele>72.57142857142858</ele><time>2026-04-18T16:17:19Z</time></trkpt><trkpt lat="48.401503877911885" lon="-4.610480304554511"><ele>72.71428571428572</ele><time>2026-04-18T16:17:21Z</time></trkpt><trkpt lat="48.401518629961686" lon="-4.610580296855534"><ele>72.85714285714286</ele><time>2026-04-18T16:17:23Z</time></trkpt><trkpt lat="48.40153229502997" lon="-4.610686327864555"><ele>73.0</ele><time>2026-04-18T16:17:25Z</time></trkpt><trkpt lat="48.40154814736389" lon="-4.610784390694564"><ele>73.42857142857143</ele><time>2026-04-18T16:17:27Z</time></trkpt><trkpt lat="48.40157252554687" lon="-4.610877944093467"><ele>73.85714285714286</ele><time>2026-04-18T16:17:29Z</time></trkpt><trkpt lat="48.40159278299305" lon="-4.610970643258835"><ele>74.28571428571428</ele><time>2026-04-18T16:17:31Z</time></trkpt><trkpt lat="48.40161178727129" lon="-4.611067414655496"><ele>74.71428571428572</ele><time>2026-04-18T16:17:33Z</time></trkpt><trkpt lat="48.401629682686" lon="-4.611161381141642"><ele>75.14285714285715</ele><time>2026-04-18T16:17:35Z</time></trkpt><trkpt lat="48.40164887472319" lon="-4.611266315784615"><ele>75.57142857142857</ele><time>2026-04-18T16:17:37Z</time></trkpt><trkpt lat="48.401666625641454" lon="-4.611363121081602"><ele>76.0</ele><time>2026-04-18T16:17:39Z</time></trkpt><trkpt lat="48.40170198719925" lon="-4.611496148528392"><ele>76.42857142857143</ele><time>2026-04-18T16:17:42Z</time></trkpt><trkpt lat="48.40172892570135" lon="-4.611629214680065"><ele>76.85714285714286</ele><time>2026-04-18T16:17:45Z</time></trkpt><trkpt lat="48.4017587538459" lon="-4.611762976995256"><ele>77.28571428571429</ele><time>2026-04-18T16:17:48Z</time></trkpt><trkpt lat="48.401783970160054" lon="-4.611850272638554"><ele>77.71428571428572</ele><time>2026-04-18T16:17:50Z</time></trkpt><trkpt lat="48.4017957786031" lon="-4.611946419379684"><ele>78.14285714285714</ele><time>2026-04-18T16:17:52Z</time></trkpt><trkpt lat="48.40181586417005" lon="-4.61204173289652"><ele>78.57142857142858</ele><time>2026-04-18T16:17:54Z</time></trkpt><trkpt lat="48.40183298727884" lon="-4.612140285874749"><ele>79.0</ele><time>2026-04-18T16:17:56Z</time></trkpt><trkpt lat="48.40185661040516" lon="-4.612238536765815"><ele>79.14285714285715</ele><time>2026-04-18T16:17:58Z</time></trkpt><trkpt lat="48.40187397696171" lon="-4.612337308153293"><ele>79.28571428571429</ele><time>2026-04-18T16:18:00Z</time></trkpt><trkpt lat="48.401901931524364" lon="-4.6124347990109245"><ele>79.42857142857143</ele><time>2026-04-18T16:18:02Z</time></trkpt><trkpt lat="48.4019257052001" lon="-4.612532125181922"><ele>79.57142857142858</ele><time>2026-04-18T16:18:04Z</time></trkpt><trkpt lat="48.401943514395995" lon="-4.612633041666716"><ele>79.71428571428572</ele><time>2026-04-18T16:18:06Z</time></trkpt><trkpt lat="48.40196126356919" lon="-4.612733220759661"><ele>79.85714285714286</ele><time>2026-04-18T16:18:08Z</time></trkpt><trkpt lat="48.40198675270781" lon="-4.612832393454391"><ele>80.0</ele><time>2026-04-18T16:18:10Z</time></trkpt><trkpt lat="48.40201022838484" lon="-4.612921542806878"><ele>80.14285714285714</ele><time>2026-04-18T16:18:12Z</time></trkpt><trkpt lat="48.4020310095545" lon="-4.613016868900791"><ele>80.28571428571429</ele><time>2026-04-18T16:18:14Z</time></trkpt><trkpt lat="48.40205622478584" lon="-4.61311418454016"><ele>80.42857142857143</ele><time>2026-04-18T16:18:16Z</time></trkpt><trkpt lat="48.402077505625435" lon="-4.613208021754323"><ele>80.57142857142857</ele><time>2026-04-18T16:18:18Z</time></trkpt><trkpt lat="48.40209757774417" lon="-4.613315630720739"><ele>80.71428571428571</ele><time>2026-04-18T16:18:20Z</time></trkpt><trkpt lat="48.40212174277725" lon="-4.613404070966916"><ele>80.85714285714286</ele><time>2026-04-18T16:18:22Z</time></trkpt><trkpt lat="48.40214436867254" lon="-4.613499120605366"><ele>81.0</ele><time>2026-04-18T16:18:24Z</time></trkpt><trkpt lat="48.402163166911684" lon="-4.613601629980336"><ele>81.42857142857143</ele><time>2026-04-18T16:18:26Z</time></trkpt><trkpt lat="48.402184971946866" lon="-4.61369910243036"><ele>81.85714285714286</ele><time>2026-04-18T16:18:28Z</time></trkpt><trkpt lat="48.40220581622073" lon="-4.613796661084415"><ele>82.28571428571428</ele><time>2026-04-18T16:18:30Z</time></trkpt><trkpt lat="48.40222841220251" lon="-4.613891304003742"><ele>82.71428571428572</ele><time>2026-04-18T16:18:32Z</time></trkpt><trkpt lat="48.4022491636239" lon="-4.6140025141315455"><ele>83.14285714285714</ele><time>2026-04-18T16:18:34Z</time></trkpt><trkpt lat="48.40227174934724" lon="-4.614103105467712"><ele>83.57142857142857</ele><time>2026-04-18T16:18:36Z</time></trkpt><trkpt lat="48.40229183915435" lon="-4.614197430424525"><ele>84.0</ele><time>2026-04-18T16:18:38Z</time></trkpt><trkpt lat="48.402312352889886" lon="-4.614297444978085"><ele>84.0</ele><time>2026-04-18T16:18:40Z</time></trkpt><trkpt lat="48.40233553947893" lon="-4.614398778109213"><ele>84.0</ele><time>2026-04-18T16:18:42Z</time></trkpt><trkpt lat="48.40235647302395" lon="-4.614501806629115"><ele>84.0</ele><time>2026-04-18T16:18:44Z</time></trkpt><trkpt lat="48.40238550264901" lon="-4.61463063837545"><ele>84.0</ele><time>2026-04-18T16:18:47Z</time></trkpt><trkpt lat="48.40240366175844" lon="-4.614730344858366"><ele>84.0</ele><time>2026-04-18T16:18:49Z</time></trkpt><trkpt lat="48.40243006933122" lon="-4.614834138965498"><ele>84.0</ele><time>2026-04-18T16:18:51Z</time></trkpt><trkpt lat="48.40244831968317" lon="-4.614933137545481"><ele>84.0</ele><time>2026-04-18T16:18:53Z</time></trkpt><trkpt lat="48.40247618727966" lon="-4.615066043146261"><ele>84.0</ele><time>2026-04-18T16:18:56Z</time></trkpt><trkpt lat="48.402491038257935" lon="-4.615161015206785"><ele>84.0</ele><time>2026-04-18T16:18:58Z</time></trkpt><trkpt lat="48.402515822212365" lon="-4.615255699169007"><ele>84.0</ele><time>2026-04-18T16:19:00Z</time></trkpt><trkpt lat="48.402530143942066" lon="-4.615359001635694"><ele>84.0</ele><time>2026-04-18T16:19:02Z</time></trkpt><trkpt lat="48.40255800583962" lon="-4.615488681238031"><ele>84.0</ele><time>2026-04-18T16:19:05Z</time></trkpt><trkpt lat="48.402580088232526" lon="-4.615583144193348"><ele>84.0</ele><time>2026-04-18T16:19:07Z</time></trkpt><trkpt lat="48.40260283610091" lon="-4.615690381701874"><ele>84.0</ele><time>2026-04-18T16:19:09Z</time></trkpt><trkpt lat="48.40261868287636" lon="-4.61579034761835"><ele>84.0</ele><time>2026-04-18T16:19:11Z</time></trkpt><trkpt lat="48.402644430352034" lon="-4.615895469693125"><ele>84.0</ele><time>2026-04-18T16:19:13Z</time></trkpt><trkpt lat="48.40266417580755" lon="-4.616006916414012"><ele>84.0</ele><time>2026-04-18T16:19:15Z</time></trkpt><trkpt lat="48.40269152616954" lon="-4.6161284953038875"><ele>84.0</ele><time>2026-04-18T16:19:17Z</time></trkpt><trkpt lat="48.40271125087993" lon="-4.616237422893631"><ele>84.0</ele><time>2026-04-18T16:19:19Z</time></trkpt><trkpt lat="48.402736206094254" lon="-4.616347566992968"><ele>84.0</ele><time>2026-04-18T16:19:21Z</time></trkpt><trkpt lat="48.40276362698399" lon="-4.616452943898756"><ele>83.83333333333333</ele><time>2026-04-18T16:19:23Z</time></trkpt><trkpt lat="48.40278013143655" lon="-4.6165616992224265"><ele>83.66666666666667</ele><time>2026-04-18T16:19:25Z</time></trkpt><trkpt lat="48.402802213080825" lon="-4.6166767599492395"><ele>83.5</ele><time>2026-04-18T16:19:27Z</time></trkpt><trkpt lat="48.40282124314953" lon="-4.616777431706637"><ele>83.33333333333334</ele><time>2026-04-18T16:19:29Z</time></trkpt><trkpt lat="48.40283046871842" lon="-4.616895222970356"><ele>83.16666666666667</ele><time>2026-04-18T16:19:31Z</time></trkpt><trkpt lat="48.4028270661112" lon="-4.617015192948609"><ele>83.0</ele><time>2026-04-18T16:19:33Z</time></trkpt><trkpt lat="48.402833816170805" lon="-4.6171303185085"><ele>82.4</ele><time>2026-04-18T16:19:35Z</time></trkpt><trkpt lat="48.40283322222559" lon="-4.617260620859113"><ele>81.80000000000001</ele><time>2026-04-18T16:19:37Z</time></trkpt><trkpt lat="48.402827776669454" lon="-4.617402118976259"><ele>81.2</ele><time>2026-04-18T16:19:39Z</time></trkpt><trkpt lat="48.40282767035055" lon="-4.617547082641126"><ele>80.6</ele><time>2026-04-18T16:19:41Z</time></trkpt><trkpt lat="48.40282638366423" lon="-4.617693589310275"><ele>80.0</ele><time>2026-04-18T16:19:43Z</time></trkpt><trkpt lat="48.402825892482916" lon="-4.617819505691248"><ele>79.71428571428571</ele><time>2026-04-18T16:19:45Z</time></trkpt><trkpt lat="48.4028276330829" lon="-4.617924420098547"><ele>79.42857142857143</ele><time>2026-04-18T16:19:47Z</time></trkpt><trkpt lat="48.40282663406881" lon="-4.618027578488591"><ele>79.14285714285714</ele><time>2026-04-18T16:19:49Z</time></trkpt><trkpt lat="48.40282232046066" lon="-4.618143910680672"><ele>78.85714285714286</ele><time>2026-04-18T16:19:51Z</time></trkpt><trkpt lat="48.4028221599173" lon="-4.618254399390608"><ele>78.57142857142857</ele><time>2026-04-18T16:19:53Z</time></trkpt><trkpt lat="48.402818111595955" lon="-4.618354744550919"><ele>78.28571428571429</ele><time>2026-04-18T16:20:12Z</time></trkpt><trkpt lat="48.402768403850565" lon="-4.618428432648113"><ele>78.0</ele><time>2026-04-18T16:20:15Z</time></trkpt><trkpt lat="48.402677404178434" lon="-4.618420316224984"><ele>78.0</ele><time>2026-04-18T16:20:18Z</time></trkpt><trkpt lat="48.402601948665634" lon="-4.618403969599188"><ele>78.0</ele><time>2026-04-18T16:20:20Z</time></trkpt><trkpt lat="48.40251378647035" lon="-4.618390998477935"><ele>78.0</ele><time>2026-04-18T16:20:22Z</time></trkpt><trkpt lat="48.40242303604011" lon="-4.61838130240776"><ele>78.0</ele><time>2026-04-18T16:20:24Z</time></trkpt><trkpt lat="48.40232887316035" lon="-4.618372085211233"><ele>78.0</ele><time>2026-04-18T16:20:26Z</time></trkpt><trkpt lat="48.40223693490611" lon="-4.6183715410411015"><ele>78.0</ele><time>2026-04-18T16:20:28Z</time></trkpt><trkpt lat="48.40214347781609" lon="-4.618373300022305"><ele>78.0</ele><time>2026-04-18T16:20:30Z</time></trkpt><trkpt lat="48.4020545401435" lon="-4.618364824006283"><ele>78.0</ele><time>2026-04-18T16:20:32Z</time></trkpt><trkpt lat="48.401956533211425" lon="-4.618361430041929"><ele>78.0</ele><time>2026-04-18T16:20:34Z</time></trkpt><trkpt lat="48.40186266696766" lon="-4.61835662628685"><ele>78.0</ele><time>2026-04-18T16:20:36Z</time></trkpt><trkpt lat="48.40176825075517" lon="-4.618356472252884"><ele>78.0</ele><time>2026-04-18T16:20:38Z</time></trkpt><trkpt lat="48.40167076393539" lon="-4.618356173492683"><ele>78.0</ele><time>2026-04-18T16:20:40Z</time></trkpt><trkpt lat="48.40157116477499" lon="-4.618352749194142"><ele>78.0</ele><time>2026-04-18T16:20:42Z</time></trkpt><trkpt lat="48.40146203558431" lon="-4.618348727795811"><ele>78.0</ele><time>2026-04-18T16:20:44Z</time></trkpt><trkpt lat="48.401360985754145" lon="-4.618347991816133"><ele>78.0</ele><time>2026-04-18T16:20:46Z</time></trkpt><trkpt lat="48.401260692537534" lon="-4.618340149572728"><ele>78.0</ele><time>2026-04-18T16:20:48Z</time></trkpt><trkpt lat="48.4011623368783" lon="-4.618339400152981"><ele>77.8</ele><time>2026-04-18T16:20:50Z</time></trkpt><trkpt lat="48.40106053960402" lon="-4.618335972101495"><ele>77.6</ele><time>2026-04-18T16:20:52Z</time></trkpt><trkpt lat="48.40095091412805" lon="-4.618332762963199"><ele>77.4</ele><time>2026-04-18T16:20:54Z</time></trkpt><trkpt lat="48.400842590391015" lon="-4.618324026241743"><ele>77.2</ele><time>2026-04-18T16:20:56Z</time></trkpt><trkpt lat="48.40073402023343" lon="-4.618323555040524"><ele>77.0</ele><time>2026-04-18T16:20:58Z</time></trkpt><trkpt lat="48.40061966079916" lon="-4.6183224949661295"><ele>77.0</ele><time>2026-04-18T16:21:00Z</time></trkpt><trkpt lat="48.40050578431403" lon="-4.618318512317373"><ele>77.0</ele><time>2026-04-18T16:21:02Z</time></trkpt><trkpt lat="48.40039050833187" lon="-4.618315956517315"><ele>77.0</ele><time>2026-04-18T16:21:04Z</time></trkpt><trkpt lat="48.40026603418559" lon="-4.618311634585633"><ele>77.0</ele><time>2026-04-18T16:21:06Z</time></trkpt><trkpt lat="48.40020217190946" lon="-4.618305511856398"><ele>77.0</ele><time>2026-04-18T16:21:07Z</time></trkpt><trkpt lat="48.40013917746457" lon="-4.618304441203108"><ele>76.85714285714286</ele><time>2026-04-18T16:21:08Z</time></trkpt><trkpt lat="48.40007570141217" lon="-4.61829900565477"><ele>76.71428571428572</ele><time>2026-04-18T16:21:09Z</time></trkpt><trkpt lat="48.40000885542067" lon="-4.618296204896781"><ele>76.57142857142857</ele><time>2026-04-18T16:21:10Z</time></trkpt><trkpt lat="48.399945379390296" lon="-4.618288534498319"><ele>76.42857142857143</ele><time>2026-04-18T16:21:11Z</time></trkpt><trkpt lat="48.3998787989817" lon="-4.618280081009583"><ele>76.28571428571429</ele><time>2026-04-18T16:21:12Z</time></trkpt><trkpt lat="48.39981398186412" lon="-4.618270614014858"><ele>76.14285714285714</ele><time>2026-04-18T16:21:13Z</time></trkpt><trkpt lat="48.39974901657883" lon="-4.618262962850451"><ele>76.0</ele><time>2026-04-18T16:21:14Z</time></trkpt><trkpt lat="48.39968158306712" lon="-4.618255117167649"><ele>75.85714285714285</ele><time>2026-04-18T16:21:15Z</time></trkpt><trkpt lat="48.39961669062988" lon="-4.6182355024603154"><ele>75.71428571428572</ele><time>2026-04-18T16:21:16Z</time></trkpt><trkpt lat="48.39954964720973" lon="-4.618217776938673"><ele>75.57142857142857</ele><time>2026-04-18T16:21:17Z</time></trkpt><trkpt lat="48.39948457749882" lon="-4.618203647298898"><ele>75.42857142857142</ele><time>2026-04-18T16:21:18Z</time></trkpt><trkpt lat="48.39941834607868" lon="-4.618178218727902"><ele>75.28571428571428</ele><time>2026-04-18T16:21:19Z</time></trkpt><trkpt lat="48.39935278350504" lon="-4.618151852490435"><ele>75.14285714285714</ele><time>2026-04-18T16:21:20Z</time></trkpt><trkpt lat="48.39928800619084" lon="-4.618130180652967"><ele>75.0</ele><time>2026-04-18T16:21:21Z</time></trkpt><trkpt lat="48.399221916426725" lon="-4.61810865584282"><ele>74.99999999999999</ele><time>2026-04-18T16:21:22Z</time></trkpt><trkpt lat="48.39915461567271" lon="-4.618082111591076"><ele>75.0</ele><time>2026-04-18T16:21:23Z</time></trkpt><trkpt lat="48.39908670321151" lon="-4.618058414631367"><ele>75.0</ele><time>2026-04-18T16:21:24Z</time></trkpt><trkpt lat="48.39901637516967" lon="-4.618033739978244"><ele>75.0</ele><time>2026-04-18T16:21:25Z</time></trkpt><trkpt lat="48.39894753549851" lon="-4.618003263618587"><ele>75.0</ele><time>2026-04-18T16:21:26Z</time></trkpt><trkpt lat="48.39887711080201" lon="-4.617975871396858"><ele>74.99999999999999</ele><time>2026-04-18T16:21:27Z</time></trkpt><trkpt lat="48.398808040443235" lon="-4.617953326998688"><ele>75.0</ele><time>2026-04-18T16:21:28Z</time></trkpt><trkpt lat="48.39873344068288" lon="-4.61792809632556"><ele>74.83333333333333</ele><time>2026-04-18T16:21:29Z</time></trkpt><trkpt lat="48.398658362531094" lon="-4.617901896609278"><ele>74.66666666666667</ele><time>2026-04-18T16:21:30Z</time></trkpt><trkpt lat="48.39858271710543" lon="-4.617873768221901"><ele>74.5</ele><time>2026-04-18T16:21:31Z</time></trkpt><trkpt lat="48.39850658043694" lon="-4.617846397499443"><ele>74.33333333333334</ele><time>2026-04-18T16:21:32Z</time></trkpt><trkpt lat="48.39843065369208" lon="-4.61781556295315"><ele>74.16666666666667</ele><time>2026-04-18T16:21:33Z</time></trkpt><trkpt lat="48.398349950038096" lon="-4.617788882441851"><ele>74.0</ele><time>2026-04-18T16:21:34Z</time></trkpt><trkpt lat="48.39826992778406" lon="-4.617755484059662"><ele>74.0</ele><time>2026-04-18T16:21:35Z</time></trkpt><trkpt lat="48.3981895223612" lon="-4.617730003871269"><ele>74.0</ele><time>2026-04-18T16:21:36Z</time></trkpt><trkpt lat="48.39810643422889" lon="-4.617701590639493"><ele>74.0</ele><time>2026-04-18T16:21:37Z</time></trkpt><trkpt lat="48.3980273386837" lon="-4.617671898819935"><ele>74.0</ele><time>2026-04-18T16:21:38Z</time></trkpt><trkpt lat="48.39794566446818" lon="-4.617641864079057"><ele>74.0</ele><time>2026-04-18T16:21:39Z</time></trkpt><trkpt lat="48.397865977047765" lon="-4.617611392727182"><ele>74.0</ele><time>2026-04-18T16:21:40Z</time></trkpt><trkpt lat="48.3977865552437" lon="-4.6175828359868305"><ele>73.33333333333334</ele><time>2026-04-18T16:21:41Z</time></trkpt><trkpt lat="48.39770762022563" lon="-4.617555142022238"><ele>72.66666666666667</ele><time>2026-04-18T16:21:42Z</time></trkpt><trkpt lat="48.397631418512645" lon="-4.617526571569433"><ele>72.0</ele><time>2026-04-18T16:21:43Z</time></trkpt><trkpt lat="48.397554082603435" lon="-4.617497495767308"><ele>71.33333333333333</ele><time>2026-04-18T16:21:44Z</time></trkpt><trkpt lat="48.39747615066387" lon="-4.617472635988768"><ele>70.66666666666666</ele><time>2026-04-18T16:21:45Z</time></trkpt><trkpt lat="48.39740056943253" lon="-4.617444267659671"><ele>70.0</ele><time>2026-04-18T16:21:46Z</time></trkpt><trkpt lat="48.39732412035714" lon="-4.6174181808938535"><ele>70.0</ele><time>2026-04-18T16:21:47Z</time></trkpt><trkpt lat="48.397247543176604" lon="-4.617394496252055"><ele>70.0</ele><time>2026-04-18T16:21:48Z</time></trkpt><trkpt lat="48.39717840400337" lon="-4.617372492900323"><ele>70.0</ele><time>2026-04-18T16:21:49Z</time></trkpt><trkpt lat="48.39710368288694" lon="-4.617338427486212"><ele>70.0</ele><time>2026-04-18T16:21:50Z</time></trkpt><trkpt lat="48.39702839418267" lon="-4.617314801194858"><ele>70.0</ele><time>2026-04-18T16:21:51Z</time></trkpt><trkpt lat="48.39695261242547" lon="-4.617289573538673"><ele>70.0</ele><time>2026-04-18T16:21:52Z</time></trkpt><trkpt lat="48.39687938690289" lon="-4.61726320151282"><ele>69.85714285714286</ele><time>2026-04-18T16:21:53Z</time></trkpt><trkpt lat="48.396804372515156" lon="-4.617236435409544"><ele>69.71428571428572</ele><time>2026-04-18T16:21:54Z</time></trkpt><trkpt lat="48.396732588045566" lon="-4.617209935724587"><ele>69.57142857142857</ele><time>2026-04-18T16:21:55Z</time></trkpt><trkpt lat="48.39666241573136" lon="-4.617182625331776"><ele>69.42857142857143</ele><time>2026-04-18T16:21:56Z</time></trkpt><trkpt lat="48.39659096281168" lon="-4.61715987799008"><ele>69.28571428571429</ele><time>2026-04-18T16:21:57Z</time></trkpt><trkpt lat="48.3965185989142" lon="-4.6171314532983425"><ele>69.14285714285714</ele><time>2026-04-18T16:21:58Z</time></trkpt><trkpt lat="48.39644666638681" lon="-4.617106721803824"><ele>69.0</ele><time>2026-04-18T16:21:59Z</time></trkpt><trkpt lat="48.3963761192922" lon="-4.617081083111982"><ele>69.0</ele><time>2026-04-18T16:22:00Z</time></trkpt><trkpt lat="48.396307048761614" lon="-4.617055283679583"><ele>69.0</ele><time>2026-04-18T16:22:01Z</time></trkpt><trkpt lat="48.39623638663902" lon="-4.617023535514101"><ele>69.0</ele><time>2026-04-18T16:22:02Z</time></trkpt><trkpt lat="48.396165278887814" lon="-4.616998434149362"><ele>69.0</ele><time>2026-04-18T16:22:03Z</time></trkpt><trkpt lat="48.39609342682711" lon="-4.6169758472247135"><ele>69.0</ele><time>2026-04-18T16:22:04Z</time></trkpt><trkpt lat="48.39602390236199" lon="-4.616949543729407"><ele>69.0</ele><time>2026-04-18T16:22:05Z</time></trkpt><trkpt lat="48.39595178470756" lon="-4.616924853304041"><ele>69.0</ele><time>2026-04-18T16:22:06Z</time></trkpt><trkpt lat="48.39588208227024" lon="-4.616893546379115"><ele>69.28571428571429</ele><time>2026-04-18T16:22:07Z</time></trkpt><trkpt lat="48.39581201985628" lon="-4.616859264809625"><ele>69.57142857142858</ele><time>2026-04-18T16:22:08Z</time></trkpt><trkpt lat="48.39574014930317" lon="-4.616830436896146"><ele>69.85714285714286</ele><time>2026-04-18T16:22:09Z</time></trkpt><trkpt lat="48.3956700078767" lon="-4.6168008797707385"><ele>70.14285714285714</ele><time>2026-04-18T16:22:10Z</time></trkpt><trkpt lat="48.395599392890155" lon="-4.616768622453757"><ele>70.42857142857142</ele><time>2026-04-18T16:22:11Z</time></trkpt><trkpt lat="48.39553098769409" lon="-4.616733799723146"><ele>70.71428571428571</ele><time>2026-04-18T16:22:12Z</time></trkpt><trkpt lat="48.39546388360367" lon="-4.616701963013015"><ele>71.0</ele><time>2026-04-18T16:22:13Z</time></trkpt><trkpt lat="48.39539769342056" lon="-4.616667705657275"><ele>71.14285714285714</ele><time>2026-04-18T16:22:14Z</time></trkpt><trkpt lat="48.39533248043591" lon="-4.616629943452306"><ele>71.28571428571428</ele><time>2026-04-18T16:22:15Z</time></trkpt><trkpt lat="48.395267635023814" lon="-4.6165928335921045"><ele>71.42857142857143</ele><time>2026-04-18T16:22:16Z</time></trkpt><trkpt lat="48.3951999497531" lon="-4.616561858932931"><ele>71.57142857142857</ele><time>2026-04-18T16:22:17Z</time></trkpt><trkpt lat="48.39513610044001" lon="-4.616527176889802"><ele>71.71428571428572</ele><time>2026-04-18T16:22:18Z</time></trkpt><trkpt lat="48.395072132230716" lon="-4.616495222224298"><ele>71.85714285714286</ele><time>2026-04-18T16:22:19Z</time></trkpt><trkpt lat="48.395011206390656" lon="-4.61646064122146"><ele>72.0</ele><time>2026-04-18T16:22:20Z</time></trkpt><trkpt lat="48.394948743750085" lon="-4.6164280627348795"><ele>72.0</ele><time>2026-04-18T16:22:21Z</time></trkpt><trkpt lat="48.39488800995182" lon="-4.616395991920994"><ele>72.0</ele><time>2026-04-18T16:22:22Z</time></trkpt><trkpt lat="48.394826643059346" lon="-4.616367258955061"><ele>72.0</ele><time>2026-04-18T16:22:23Z</time></trkpt><trkpt lat="48.39471420344426" lon="-4.616297720258217"><ele>72.0</ele><time>2026-04-18T16:22:25Z</time></trkpt><trkpt lat="48.39459907288528" lon="-4.61623389755601"><ele>72.0</ele><time>2026-04-18T16:22:27Z</time></trkpt><trkpt lat="48.39448699556755" lon="-4.616175521761962"><ele>72.6</ele><time>2026-04-18T16:22:29Z</time></trkpt><trkpt lat="48.39438138347188" lon="-4.616118367896036"><ele>73.2</ele><time>2026-04-18T16:22:31Z</time></trkpt><trkpt lat="48.39427438699538" lon="-4.616062410660738"><ele>73.8</ele><time>2026-04-18T16:22:33Z</time></trkpt><trkpt lat="48.39417082806255" lon="-4.616006835170306"><ele>74.4</ele><time>2026-04-18T16:22:35Z</time></trkpt><trkpt lat="48.39406363329792" lon="-4.615953370821938"><ele>75.0</ele><time>2026-04-18T16:22:37Z</time></trkpt><trkpt lat="48.39396421377498" lon="-4.615896465831894"><ele>75.0</ele><time>2026-04-18T16:22:39Z</time></trkpt><trkpt lat="48.39386925520645" lon="-4.61584745317029"><ele>75.0</ele><time>2026-04-18T16:22:41Z</time></trkpt><trkpt lat="48.39376865524444" lon="-4.6158145494096035"><ele>75.0</ele><time>2026-04-18T16:22:43Z</time></trkpt><trkpt lat="48.39366863765079" lon="-4.6157746686733425"><ele>75.0</ele><time>2026-04-18T16:22:45Z</time></trkpt><trkpt lat="48.39356966880012" lon="-4.615736890322499"><ele>75.0</ele><time>2026-04-18T16:22:47Z</time></trkpt><trkpt lat="48.39347255473813" lon="-4.6157044451718825"><ele>75.2</ele><time>2026-04-18T16:22:49Z</time></trkpt><trkpt lat="48.39336929889934" lon="-4.61567545260163"><ele>75.4</ele><time>2026-04-18T16:22:51Z</time></trkpt><trkpt lat="48.39327125962435" lon="-4.615649415299943"><ele>75.6</ele><time>2026-04-18T16:22:53Z</time></trkpt><trkpt lat="48.39317246302642" lon="-4.615629499441546"><ele>75.8</ele><time>2026-04-18T16:22:55Z</time></trkpt><trkpt lat="48.39307578095585" lon="-4.615610497580181"><ele>76.0</ele><time>2026-04-18T16:22:57Z</time></trkpt><trkpt lat="48.39297857359646" lon="-4.61559313592365"><ele>76.2</ele><time>2026-04-18T16:22:59Z</time></trkpt><trkpt lat="48.392875280725214" lon="-4.615585172670053"><ele>76.39999999999999</ele><time>2026-04-18T16:23:01Z</time></trkpt><trkpt lat="48.392771096359134" lon="-4.615582734337096"><ele>76.6</ele><time>2026-04-18T16:23:03Z</time></trkpt><trkpt lat="48.39266645651991" lon="-4.615582821840772"><ele>76.8</ele><time>2026-04-18T16:23:05Z</time></trkpt><trkpt lat="48.39256501808767" lon="-4.615585349005054"><ele>77.0</ele><time>2026-04-18T16:23:07Z</time></trkpt><trkpt lat="48.39245996144596" lon="-4.615595415426378"><ele>77.0</ele><time>2026-04-18T16:23:09Z</time></trkpt><trkpt lat="48.392360917103396" lon="-4.615607767529208"><ele>77.0</ele><time>2026-04-18T16:23:11Z</time></trkpt><trkpt lat="48.392256702718576" lon="-4.615620629475953"><ele>77.0</ele><time>2026-04-18T16:23:13Z</time></trkpt><trkpt lat="48.39215788036383" lon="-4.615638826195343"><ele>77.0</ele><time>2026-04-18T16:23:15Z</time></trkpt><trkpt lat="48.39206534782384" lon="-4.615661606570321"><ele>77.0</ele><time>2026-04-18T16:23:17Z</time></trkpt><trkpt lat="48.39197032500911" lon="-4.615681479643873"><ele>77.4</ele><time>2026-04-18T16:23:19Z</time></trkpt><trkpt lat="48.391872030199686" lon="-4.615716823342708"><ele>77.80000000000001</ele><time>2026-04-18T16:23:21Z</time></trkpt><trkpt lat="48.39176879704529" lon="-4.615750882260278"><ele>78.2</ele><time>2026-04-18T16:23:23Z</time></trkpt><trkpt lat="48.39166360280289" lon="-4.615795292955754"><ele>78.60000000000001</ele><time>2026-04-18T16:23:25Z</time></trkpt><trkpt lat="48.39156575913888" lon="-4.615840406644175"><ele>79.0</ele><time>2026-04-18T16:23:27Z</time></trkpt><trkpt lat="48.39146986600351" lon="-4.615882408170092"><ele>79.0</ele><time>2026-04-18T16:23:29Z</time></trkpt><trkpt lat="48.39136580000551" lon="-4.615932979186787"><ele>79.0</ele><time>2026-04-18T16:23:31Z</time></trkpt><trkpt lat="48.39125971013335" lon="-4.615988263937302"><ele>79.0</ele><time>2026-04-18T16:23:33Z</time></trkpt><trkpt lat="48.39115293930369" lon="-4.616046437059406"><ele>79.0</ele><time>2026-04-18T16:23:35Z</time></trkpt><trkpt lat="48.39104076670454" lon="-4.616105141509973"><ele>79.0</ele><time>2026-04-18T16:23:37Z</time></trkpt><trkpt lat="48.39093207585688" lon="-4.616171255991786"><ele>79.0</ele><time>2026-04-18T16:23:39Z</time></trkpt><trkpt lat="48.39087053655186" lon="-4.616196852928485"><ele>79.0</ele><time>2026-04-18T16:23:40Z</time></trkpt><trkpt lat="48.39075895284532" lon="-4.616263012603955"><ele>79.0</ele><time>2026-04-18T16:23:42Z</time></trkpt><trkpt lat="48.39064742714314" lon="-4.616329003518987"><ele>79.0</ele><time>2026-04-18T16:23:44Z</time></trkpt><trkpt lat="48.3905374871599" lon="-4.616395281046196"><ele>78.2</ele><time>2026-04-18T16:23:46Z</time></trkpt><trkpt lat="48.39042306377147" lon="-4.616463747031524"><ele>77.4</ele><time>2026-04-18T16:23:48Z</time></trkpt><trkpt lat="48.3903076529637" lon="-4.616525539942835"><ele>76.6</ele><time>2026-04-18T16:23:50Z</time></trkpt><trkpt lat="48.390188773968966" lon="-4.616596275353595"><ele>75.8</ele><time>2026-04-18T16:23:52Z</time></trkpt><trkpt lat="48.3901256591426" lon="-4.616630176458922"><ele>75.0</ele><time>2026-04-18T16:23:53Z</time></trkpt><trkpt lat="48.390064336546196" lon="-4.616668712933601"><ele>74.99999999999999</ele><time>2026-04-18T16:23:54Z</time></trkpt><trkpt lat="48.390005542924065" lon="-4.616703247754886"><ele>75.0</ele><time>2026-04-18T16:23:55Z</time></trkpt><trkpt lat="48.389942425831386" lon="-4.616746084650402"><ele>75.0</ele><time>2026-04-18T16:23:56Z</time></trkpt><trkpt lat="48.38988049069984" lon="-4.616782194142766"><ele>75.0</ele><time>2026-04-18T16:23:57Z</time></trkpt><trkpt lat="48.389816913421875" lon="-4.6168214545037936"><ele>75.0</ele><time>2026-04-18T16:23:58Z</time></trkpt><trkpt lat="48.38975481769789" lon="-4.616857679355081"><ele>74.99999999999999</ele><time>2026-04-18T16:23:59Z</time></trkpt><trkpt lat="48.38969511919803" lon="-4.616902899793164"><ele>75.0</ele><time>2026-04-18T16:24:00Z</time></trkpt><trkpt lat="48.389634853433904" lon="-4.616951899562903"><ele>74.99999999999999</ele><time>2026-04-18T16:24:01Z</time></trkpt><trkpt lat="48.38957400199781" lon="-4.616998114434002"><ele>75.0</ele><time>2026-04-18T16:24:02Z</time></trkpt><trkpt lat="48.38951199295264" lon="-4.617041536704679"><ele>75.0</ele><time>2026-04-18T16:24:03Z</time></trkpt><trkpt lat="48.38945000929664" lon="-4.617085049125406"><ele>75.0</ele><time>2026-04-18T16:24:04Z</time></trkpt><trkpt lat="48.38938875808872" lon="-4.617131877944983"><ele>75.0</ele><time>2026-04-18T16:24:05Z</time></trkpt><trkpt lat="48.3893264250807" lon="-4.617182682416732"><ele>74.99999999999999</ele><time>2026-04-18T16:24:06Z</time></trkpt><trkpt lat="48.38926555944415" lon="-4.6172329676742985"><ele>75.0</ele><time>2026-04-18T16:24:07Z</time></trkpt><trkpt lat="48.389202289179444" lon="-4.617280811104135"><ele>74.99999999999999</ele><time>2026-04-18T16:24:08Z</time></trkpt><trkpt lat="48.38914333076147" lon="-4.617330939490845"><ele>75.0</ele><time>2026-04-18T16:24:09Z</time></trkpt><trkpt lat="48.389087815127155" lon="-4.617381703216149"><ele>75.0</ele><time>2026-04-18T16:24:10Z</time></trkpt><trkpt lat="48.389027992427636" lon="-4.617439256028478"><ele>75.0</ele><time>2026-04-18T16:24:11Z</time></trkpt><trkpt lat="48.38896679785988" lon="-4.617490113199855"><ele>75.0</ele><time>2026-04-18T16:24:12Z</time></trkpt><trkpt lat="48.388906379452735" lon="-4.617541017765119"><ele>74.99999999999999</ele><time>2026-04-18T16:24:13Z</time></trkpt><trkpt lat="48.38884569445423" lon="-4.617592355962454"><ele>75.0</ele><time>2026-04-18T16:24:14Z</time></trkpt><trkpt lat="48.38878879622884" lon="-4.617650914894699"><ele>75.14285714285714</ele><time>2026-04-18T16:24:15Z</time></trkpt><trkpt lat="48.38873118972764" lon="-4.617708777774563"><ele>75.28571428571428</ele><time>2026-04-18T16:24:16Z</time></trkpt><trkpt lat="48.38867230654617" lon="-4.617765656090301"><ele>75.42857142857142</ele><time>2026-04-18T16:24:17Z</time></trkpt><trkpt lat="48.388615944457506" lon="-4.617822185800599"><ele>75.57142857142857</ele><time>2026-04-18T16:24:18Z</time></trkpt><trkpt lat="48.38856277043596" lon="-4.617881118375836"><ele>75.71428571428572</ele><time>2026-04-18T16:24:19Z</time></trkpt><trkpt lat="48.38850891461409" lon="-4.6179351806704645"><ele>75.85714285714285</ele><time>2026-04-18T16:24:20Z</time></trkpt><trkpt lat="48.38845454680475" lon="-4.617995527823371"><ele>76.0</ele><time>2026-04-18T16:24:21Z</time></trkpt><trkpt lat="48.38839914284355" lon="-4.618054602864121"><ele>76.0</ele><time>2026-04-18T16:24:22Z</time></trkpt><trkpt lat="48.38834740209514" lon="-4.618111361517175"><ele>76.0</ele><time>2026-04-18T16:24:23Z</time></trkpt><trkpt lat="48.38829492638163" lon="-4.618168578988593"><ele>76.0</ele><time>2026-04-18T16:24:24Z</time></trkpt><trkpt lat="48.388193275712794" lon="-4.618282222858102"><ele>76.0</ele><time>2026-04-18T16:24:26Z</time></trkpt><trkpt lat="48.38809661537869" lon="-4.618401721501924"><ele>76.0</ele><time>2026-04-18T16:24:28Z</time></trkpt><trkpt lat="48.38799937629093" lon="-4.618511829783672"><ele>76.5</ele><time>2026-04-18T16:24:30Z</time></trkpt><trkpt lat="48.38790935079898" lon="-4.618629636598329"><ele>77.0</ele><time>2026-04-18T16:24:32Z</time></trkpt><trkpt lat="48.38781983060137" lon="-4.6187407337642705"><ele>77.5</ele><time>2026-04-18T16:24:34Z</time></trkpt><trkpt lat="48.38773337314652" lon="-4.618845673271237"><ele>78.0</ele><time>2026-04-18T16:24:36Z</time></trkpt><trkpt lat="48.38764321422479" lon="-4.618953141612541"><ele>78.0</ele><time>2026-04-18T16:24:38Z</time></trkpt><trkpt lat="48.38755456125494" lon="-4.61905372333326"><ele>78.0</ele><time>2026-04-18T16:24:40Z</time></trkpt><trkpt lat="48.38747277610863" lon="-4.619155421918316"><ele>78.0</ele><time>2026-04-18T16:24:42Z</time></trkpt><trkpt lat="48.387385358461366" lon="-4.619254902937292"><ele>78.0</ele><time>2026-04-18T16:24:44Z</time></trkpt><trkpt lat="48.3872959096778" lon="-4.619350791399532"><ele>78.0</ele><time>2026-04-18T16:24:46Z</time></trkpt><trkpt lat="48.38720376513036" lon="-4.6194457684445895"><ele>78.4</ele><time>2026-04-18T16:24:48Z</time></trkpt><trkpt lat="48.387114226399824" lon="-4.6195414994519055"><ele>78.8</ele><time>2026-04-18T16:24:50Z</time></trkpt><trkpt lat="48.38702109708847" lon="-4.619637393433385"><ele>79.2</ele><time>2026-04-18T16:24:52Z</time></trkpt><trkpt lat="48.38692858878604" lon="-4.61972353628541"><ele>79.6</ele><time>2026-04-18T16:24:54Z</time></trkpt><trkpt lat="48.3868320615497" lon="-4.619809059881896"><ele>80.0</ele><time>2026-04-18T16:24:56Z</time></trkpt><trkpt lat="48.386730147093914" lon="-4.619886594655158"><ele>80.0</ele><time>2026-04-18T16:24:58Z</time></trkpt><trkpt lat="48.38662779911625" lon="-4.619961933770184"><ele>80.0</ele><time>2026-04-18T16:25:00Z</time></trkpt><trkpt lat="48.386524370505086" lon="-4.620031342662233"><ele>80.0</ele><time>2026-04-18T16:25:02Z</time></trkpt><trkpt lat="48.38642946030207" lon="-4.6200960480356"><ele>80.0</ele><time>2026-04-18T16:25:04Z</time></trkpt><trkpt lat="48.38632619127803" lon="-4.620162387767384"><ele>80.0</ele><time>2026-04-18T16:25:06Z</time></trkpt><trkpt lat="48.38622417652729" lon="-4.620220870652906"><ele>80.0</ele><time>2026-04-18T16:25:08Z</time></trkpt><trkpt lat="48.38611741211534" lon="-4.620284068719337"><ele>80.0</ele><time>2026-04-18T16:25:10Z</time></trkpt><trkpt lat="48.386057011423006" lon="-4.6203181077384645"><ele>80.0</ele><time>2026-04-18T16:25:11Z</time></trkpt><trkpt lat="48.385938513405975" lon="-4.6203805259628385"><ele>80.0</ele><time>2026-04-18T16:25:13Z</time></trkpt><trkpt lat="48.38582169038872" lon="-4.620437352775759"><ele>80.0</ele><time>2026-04-18T16:25:15Z</time></trkpt><trkpt lat="48.38570749563867" lon="-4.620499589262791"><ele>79.8</ele><time>2026-04-18T16:25:17Z</time></trkpt><trkpt lat="48.385591642704824" lon="-4.620547297324942"><ele>79.6</ele><time>2026-04-18T16:25:19Z</time></trkpt><trkpt lat="48.38548725981755" lon="-4.620607305485768"><ele>79.4</ele><time>2026-04-18T16:25:21Z</time></trkpt><trkpt lat="48.385391703466354" lon="-4.620660863068795"><ele>79.2</ele><time>2026-04-18T16:25:23Z</time></trkpt><trkpt lat="48.38531564965028" lon="-4.620733708718907"><ele>79.0</ele><time>2026-04-18T16:25:25Z</time></trkpt><trkpt lat="48.38525854293779" lon="-4.620848082630121"><ele>78.60000000000001</ele><time>2026-04-18T16:25:27Z</time></trkpt><trkpt lat="48.38516624530311" lon="-4.620876196498065"><ele>78.2</ele><time>2026-04-18T16:25:29Z</time></trkpt><trkpt lat="48.3850565438759" lon="-4.620834945557487"><ele>77.80000000000001</ele><time>2026-04-18T16:25:31Z</time></trkpt><trkpt lat="48.38494601061988" lon="-4.62088621779088"><ele>77.4</ele><time>2026-04-18T16:25:33Z</time></trkpt><trkpt lat="48.38482909019147" lon="-4.620958849465379"><ele>77.0</ele><time>2026-04-18T16:25:35Z</time></trkpt><trkpt lat="48.38471345747898" lon="-4.6210191989289156"><ele>76.83333333333334</ele><time>2026-04-18T16:25:37Z</time></trkpt><trkpt lat="48.384648233714884" lon="-4.62104909942658"><ele>76.66666666666667</ele><time>2026-04-18T16:25:38Z</time></trkpt><trkpt lat="48.38458571554287" lon="-4.621078955121353"><ele>76.5</ele><time>2026-04-18T16:25:39Z</time></trkpt><trkpt lat="48.38452433976346" lon="-4.621121844263112"><ele>76.33333333333333</ele><time>2026-04-18T16:25:40Z</time></trkpt><trkpt lat="48.3844596200332" lon="-4.621152423357019"><ele>76.16666666666666</ele><time>2026-04-18T16:25:41Z</time></trkpt><trkpt lat="48.38439472185618" lon="-4.621187289891107"><ele>76.0</ele><time>2026-04-18T16:25:42Z</time></trkpt><trkpt lat="48.3842720974887" lon="-4.621243626209039"><ele>75.66666666666666</ele><time>2026-04-18T16:25:44Z</time></trkpt><trkpt lat="48.38420567434644" lon="-4.621261730637514"><ele>75.33333333333333</ele><time>2026-04-18T16:25:45Z</time></trkpt><trkpt lat="48.38414518411249" lon="-4.621292838654083"><ele>75.0</ele><time>2026-04-18T16:25:46Z</time></trkpt><trkpt lat="48.38408418299932" lon="-4.621328185436186"><ele>74.66666666666667</ele><time>2026-04-18T16:25:47Z</time></trkpt><trkpt lat="48.38401992400324" lon="-4.621359108771246"><ele>74.33333333333334</ele><time>2026-04-18T16:25:48Z</time></trkpt><trkpt lat="48.38390229298708" lon="-4.621423035679006"><ele>74.0</ele><time>2026-04-18T16:25:50Z</time></trkpt><trkpt lat="48.383783857308096" lon="-4.621474324176015"><ele>74.0</ele><time>2026-04-18T16:25:52Z</time></trkpt><trkpt lat="48.38367066389493" lon="-4.6215417920400155"><ele>74.0</ele><time>2026-04-18T16:25:54Z</time></trkpt><trkpt lat="48.383558359914915" lon="-4.621601955815308"><ele>74.0</ele><time>2026-04-18T16:25:56Z</time></trkpt><trkpt lat="48.383493302708544" lon="-4.621620219270309"><ele>74.0</ele><time>2026-04-18T16:25:57Z</time></trkpt><trkpt lat="48.38338254020732" lon="-4.621666130023523"><ele>74.0</ele><time>2026-04-18T16:25:59Z</time></trkpt><trkpt lat="48.38327354233869" lon="-4.621702956959586"><ele>74.0</ele><time>2026-04-18T16:26:01Z</time></trkpt><trkpt lat="48.38317362363475" lon="-4.621732802609234"><ele>74.0</ele><time>2026-04-18T16:26:03Z</time></trkpt><trkpt lat="48.38308028812931" lon="-4.621758874697923"><ele>74.0</ele><time>2026-04-18T16:26:05Z</time></trkpt><trkpt lat="48.38299961841827" lon="-4.621785300148231"><ele>74.0</ele><time>2026-04-18T16:26:07Z</time></trkpt><trkpt lat="48.3829100884759" lon="-4.6218089151695105"><ele>74.0</ele><time>2026-04-18T16:26:09Z</time></trkpt><trkpt lat="48.382830678735644" lon="-4.621835717406432"><ele>73.83333333333334</ele><time>2026-04-18T16:26:11Z</time></trkpt><trkpt lat="48.38274671708047" lon="-4.621852492108565"><ele>73.66666666666667</ele><time>2026-04-18T16:26:13Z</time></trkpt><trkpt lat="48.38265382229812" lon="-4.621874653819167"><ele>73.5</ele><time>2026-04-18T16:26:15Z</time></trkpt><trkpt lat="48.38256093497942" lon="-4.621901142777959"><ele>73.33333333333333</ele><time>2026-04-18T16:26:17Z</time></trkpt><trkpt lat="48.38248558042899" lon="-4.6219461787630935"><ele>73.16666666666666</ele><time>2026-04-18T16:26:19Z</time></trkpt><trkpt lat="48.382455626700725" lon="-4.622041985885774"><ele>73.0</ele><time>2026-04-18T16:26:21Z</time></trkpt><trkpt lat="48.382431495502225" lon="-4.622162680883891"><ele>72.83333333333333</ele><time>2026-04-18T16:26:23Z</time></trkpt><trkpt lat="48.38236896429188" lon="-4.622263429717441"><ele>72.66666666666666</ele><time>2026-04-18T16:26:25Z</time></trkpt><trkpt lat="48.38228802292749" lon="-4.622299894725"><ele>72.5</ele><time>2026-04-18T16:26:27Z</time></trkpt><trkpt lat="48.38220529170391" lon="-4.622283613204609"><ele>72.33333333333333</ele><time>2026-04-18T16:26:29Z</time></trkpt><trkpt lat="48.382123381690356" lon="-4.622268828125774"><ele>72.16666666666667</ele><time>2026-04-18T16:26:31Z</time></trkpt><trkpt lat="48.38203176363403" lon="-4.622259361111799"><ele>72.0</ele><time>2026-04-18T16:26:33Z</time></trkpt><trkpt lat="48.3819389304063" lon="-4.62225404835035"><ele>71.5</ele><time>2026-04-18T16:26:35Z</time></trkpt><trkpt lat="48.38184786665929" lon="-4.62224696287079"><ele>71.0</ele><time>2026-04-18T16:26:37Z</time></trkpt><trkpt lat="48.38176272618702" lon="-4.622247923748042"><ele>70.5</ele><time>2026-04-18T16:26:39Z</time></trkpt><trkpt lat="48.38169011536801" lon="-4.622207790702067"><ele>70.0</ele><time>2026-04-18T16:26:41Z</time></trkpt><trkpt lat="48.38163506948947" lon="-4.6221141123594265"><ele>69.5</ele><time>2026-04-18T16:26:43Z</time></trkpt><trkpt lat="48.38158614491869" lon="-4.621979845072619"><ele>69.0</ele><time>2026-04-18T16:26:45Z</time></trkpt><trkpt lat="48.38152767451377" lon="-4.621822309751318"><ele>69.0</ele><time>2026-04-18T16:26:47Z</time></trkpt><trkpt lat="48.3814869271781" lon="-4.621682361099822"><ele>69.0</ele><time>2026-04-18T16:26:49Z</time></trkpt><trkpt lat="48.381481600269865" lon="-4.621527316288695"><ele>69.0</ele><time>2026-04-18T16:26:51Z</time></trkpt><trkpt lat="48.38148594825517" lon="-4.6213653533869685"><ele>69.0</ele><time>2026-04-18T16:26:53Z</time></trkpt><trkpt lat="48.38152247448472" lon="-4.621222060678102"><ele>69.0</ele><time>2026-04-18T16:26:55Z</time></trkpt><trkpt lat="48.381556891870595" lon="-4.621087071388026"><ele>69.16666666666667</ele><time>2026-04-18T16:26:57Z</time></trkpt><trkpt lat="48.381625957415885" lon="-4.620992930688925"><ele>69.33333333333333</ele><time>2026-04-18T16:26:59Z</time></trkpt><trkpt lat="48.38158102142084" lon="-4.620878793446171"><ele>69.5</ele><time>2026-04-18T16:27:00Z</time></trkpt><trkpt lat="48.38160410341482" lon="-4.6207718991598306"><ele>69.66666666666666</ele><time>2026-04-18T16:27:02Z</time></trkpt><trkpt lat="48.381622269068295" lon="-4.620660347203609"><ele>69.83333333333333</ele><time>2026-04-18T16:27:04Z</time></trkpt><trkpt lat="48.38164470068398" lon="-4.6205481924934855"><ele>70.0</ele><time>2026-04-18T16:27:06Z</time></trkpt><trkpt lat="48.381669217062644" lon="-4.620446017264531"><ele>70.0</ele><time>2026-04-18T16:27:08Z</time></trkpt><trkpt lat="48.38168865920982" lon="-4.620335351327328"><ele>70.0</ele><time>2026-04-18T16:27:10Z</time></trkpt><trkpt lat="48.38168908336158" lon="-4.62020255433697"><ele>70.0</ele><time>2026-04-18T16:27:12Z</time></trkpt><trkpt lat="48.38170575936533" lon="-4.620078303048694"><ele>70.0</ele><time>2026-04-18T16:27:14Z</time></trkpt><trkpt lat="48.38171178047537" lon="-4.619954192201562"><ele>70.0</ele><time>2026-04-18T16:27:16Z</time></trkpt><trkpt lat="48.38171035860822" lon="-4.6198243957761385"><ele>70.0</ele><time>2026-04-18T16:27:18Z</time></trkpt><trkpt lat="48.38171169480611" lon="-4.619680079777384"><ele>69.8</ele><time>2026-04-18T16:27:20Z</time></trkpt><trkpt lat="48.381706934460844" lon="-4.619536653668972"><ele>69.6</ele><time>2026-04-18T16:27:22Z</time></trkpt><trkpt lat="48.38171220763212" lon="-4.619388891989718"><ele>69.4</ele><time>2026-04-18T16:27:24Z</time></trkpt><trkpt lat="48.38171089064396" lon="-4.619233685422077"><ele>69.2</ele><time>2026-04-18T16:27:26Z</time></trkpt><trkpt lat="48.38170621005589" lon="-4.61907815977046"><ele>69.0</ele><time>2026-04-18T16:27:28Z</time></trkpt><trkpt lat="48.381698375467835" lon="-4.618940177029504"><ele>68.8</ele><time>2026-04-18T16:27:30Z</time></trkpt><trkpt lat="48.381684738971515" lon="-4.618803883674628"><ele>68.60000000000001</ele><time>2026-04-18T16:27:32Z</time></trkpt><trkpt lat="48.381659356959034" lon="-4.618660612770072"><ele>68.4</ele><time>2026-04-18T16:27:34Z</time></trkpt><trkpt lat="48.38164215408873" lon="-4.618520846887403"><ele>68.2</ele><time>2026-04-18T16:27:36Z</time></trkpt><trkpt lat="48.38162429565504" lon="-4.618386349146651"><ele>68.0</ele><time>2026-04-18T16:27:38Z</time></trkpt><trkpt lat="48.38161495762427" lon="-4.618248197155747"><ele>68.0</ele><time>2026-04-18T16:27:40Z</time></trkpt><trkpt lat="48.381601158327264" lon="-4.618108713793371"><ele>68.0</ele><time>2026-04-18T16:27:42Z</time></trkpt><trkpt lat="48.381589257709955" lon="-4.617987023306021"><ele>68.0</ele><time>2026-04-18T16:27:44Z</time></trkpt><trkpt lat="48.3815835194162" lon="-4.61786240028282"><ele>68.0</ele><time>2026-04-18T16:27:46Z</time></trkpt><trkpt lat="48.38156230469518" lon="-4.617751523470958"><ele>68.0</ele><time>2026-04-18T16:27:48Z</time></trkpt><trkpt lat="48.38155372126831" lon="-4.617626639425195"><ele>68.0</ele><time>2026-04-18T16:27:50Z</time></trkpt><trkpt lat="48.38153771978015" lon="-4.617508406594595"><ele>68.66666666666667</ele><time>2026-04-18T16:27:52Z</time></trkpt><trkpt lat="48.38153129884511" lon="-4.617383754620674"><ele>69.33333333333334</ele><time>2026-04-18T16:27:54Z</time></trkpt><trkpt lat="48.38152696302113" lon="-4.617255971977523"><ele>70.0</ele><time>2026-04-18T16:27:56Z</time></trkpt><trkpt lat="48.38152241532573" lon="-4.617134577358755"><ele>70.66666666666667</ele><time>2026-04-18T16:27:58Z</time></trkpt><trkpt lat="48.381516601883604" lon="-4.617020883014131"><ele>71.33333333333333</ele><time>2026-04-18T16:28:00Z</time></trkpt><trkpt lat="48.38150779954843" lon="-4.6169034952463806"><ele>72.0</ele><time>2026-04-18T16:28:02Z</time></trkpt><trkpt lat="48.38150284822908" lon="-4.616781503900128"><ele>75.0</ele><time>2026-04-18T16:28:04Z</time></trkpt><trkpt lat="48.38149440639872" lon="-4.6166664608236765"><ele>75.0</ele><time>2026-04-18T16:28:06Z</time></trkpt><trkpt lat="48.38148882887422" lon="-4.616565371790774"><ele>75.0</ele><time>2026-04-18T16:28:08Z</time></trkpt><trkpt lat="48.38148167198847" lon="-4.616469194929163"><ele>75.0</ele><time>2026-04-18T16:28:10Z</time></trkpt><trkpt lat="48.38147471835273" lon="-4.616374651810514"><ele>75.0</ele><time>2026-04-18T16:28:14Z</time></trkpt></trkseg></trk></gpx>